Wetterdaten: Freitag, 26.08.2016
Datum Zeit Temp. A. Temp. A. max Feuchte A. Luftdruck Regen Wind Richtung Richtung Sonnenschein ET UV Solar Taupunkt Windben
26.08.2016 00:00 15,1 C 15,2 C 95 % 1016,8 hPa 0,0 mm 0,0 km/h (0 Bft) O 86 0 min 0,000 mm 0,0 UV-I 0 W/m 14,3 C 0,0 km/h (0 Bft)
26.08.2016 00:01 15,1 C 15,1 C 95 % 1016,7 hPa 0,0 mm 0,0 km/h (0 Bft) O 86 0 min 0,000 mm 0,0 UV-I 0 W/m 14,3 C 0,0 km/h (0 Bft)
26.08.2016 00:02 15,1 C 15,1 C 95 % 1016,7 hPa 0,0 mm 0,0 km/h (0 Bft) O 86 0 min 0,000 mm 0,0 UV-I 0 W/m 14,3 C 0,0 km/h (0 Bft)
26.08.2016 00:03 15,1 C 15,1 C 95 % 1016,7 hPa 0,0 mm 0,0 km/h (0 Bft) O 86 0 min 0,000 mm 0,0 UV-I 0 W/m 14,3 C 0,0 km/h (0 Bft)
26.08.2016 00:04 15,1 C 15,1 C 95 % 1016,7 hPa 0,0 mm 0,0 km/h (0 Bft) O 86 0 min 0,000 mm 0,0 UV-I 0 W/m 14,3 C 0,0 km/h (0 Bft)
26.08.2016 00:05 15,1 C 15,1 C 95 % 1016,7 hPa 0,0 mm 0,0 km/h (0 Bft) O 86 0 min 0,000 mm 0,0 UV-I 0 W/m 14,3 C 0,0 km/h (0 Bft)
26.08.2016 00:06 15,0 C 15,1 C 95 % 1016,7 hPa 0,0 mm 0,0 km/h (0 Bft) O 86 0 min 0,000 mm 0,0 UV-I 0 W/m 14,2 C 0,0 km/h (0 Bft)
26.08.2016 00:07 14,9 C 15,0 C 95 % 1016,7 hPa 0,0 mm 0,0 km/h (0 Bft) O 86 0 min 0,000 mm 0,0 UV-I 0 W/m 14,1 C 0,0 km/h (0 Bft)
26.08.2016 00:09 14,9 C 15,0 C 95 % 1016,7 hPa 0,0 mm 0,0 km/h (0 Bft) O 86 0 min 0,000 mm 0,0 UV-I 0 W/m 14,1 C 0,0 km/h (0 Bft)
26.08.2016 00:10 14,9 C 14,9 C 95 % 1016,7 hPa 0,0 mm 0,0 km/h (0 Bft) O 86 0 min 0,000 mm 0,0 UV-I 0 W/m 14,1 C 0,0 km/h (0 Bft)
26.08.2016 00:11 14,9 C 14,9 C 95 % 1016,7 hPa 0,0 mm 0,0 km/h (0 Bft) O 86 0 min 0,000 mm 0,0 UV-I 0 W/m 14,1 C 0,0 km/h (0 Bft)
26.08.2016 00:12 14,9 C 14,9 C 95 % 1016,7 hPa 0,0 mm 0,0 km/h (0 Bft) O 86 0 min 0,000 mm 0,0 UV-I 0 W/m 14,1 C 0,0 km/h (0 Bft)
26.08.2016 00:13 14,9 C 14,9 C 95 % 1016,7 hPa 0,0 mm 0,0 km/h (0 Bft) O 86 0 min 0,000 mm 0,0 UV-I 0 W/m 14,1 C 0,0 km/h (0 Bft)
26.08.2016 00:14 14,8 C 14,9 C 95 % 1016,7 hPa 0,0 mm 0,0 km/h (0 Bft) O 86 0 min 0,000 mm 0,0 UV-I 0 W/m 14,0 C 0,0 km/h (0 Bft)
26.08.2016 00:15 14,8 C 14,9 C 95 % 1016,7 hPa 0,0 mm 0,0 km/h (0 Bft) O 86 0 min 0,000 mm 0,0 UV-I 0 W/m 14,0 C 0,0 km/h (0 Bft)
26.08.2016 00:16 14,8 C 14,9 C 95 % 1016,7 hPa 0,0 mm 0,0 km/h (0 Bft) O 86 0 min 0,000 mm 0,0 UV-I 0 W/m 14,0 C 0,0 km/h (0 Bft)
26.08.2016 00:17 14,8 C 14,8 C 95 % 1016,7 hPa 0,0 mm 0,0 km/h (0 Bft) O 86 0 min 0,000 mm 0,0 UV-I 0 W/m 14,0 C 0,0 km/h (0 Bft)
26.08.2016 00:18 14,9 C 14,9 C 95 % 1016,7 hPa 0,0 mm 0,0 km/h (0 Bft) O 86 0 min 0,000 mm 0,0 UV-I 0 W/m 14,1 C 0,0 km/h (0 Bft)
26.08.2016 00:19 14,9 C 14,9 C 95 % 1016,7 hPa 0,0 mm 1,0 km/h (0 Bft) O 86 0 min 0,000 mm 0,0 UV-I 0 W/m 14,1 C 1,6 km/h (1 Bft)
26.08.2016 00:20 14,9 C 14,9 C 95 % 1016,7 hPa 0,0 mm 1,4 km/h (1 Bft) O 86 0 min 0,000 mm 0,0 UV-I 0 W/m 14,1 C 1,6 km/h (1 Bft)
26.08.2016 00:21 14,8 C 14,9 C 95 % 1016,7 hPa 0,0 mm 1,0 km/h (0 Bft) O 86 0 min 0,000 mm 0,0 UV-I 0 W/m 14,0 C 1,6 km/h (1 Bft)
26.08.2016 00:22 14,7 C 14,8 C 95 % 1016,7 hPa 0,0 mm 1,2 km/h (1 Bft) O 86 0 min 0,000 mm 0,0 UV-I 0 W/m 13,9 C 1,6 km/h (1 Bft)
26.08.2016 00:23 14,7 C 14,7 C 95 % 1016,7 hPa 0,0 mm 0,6 km/h (0 Bft) O 86 0 min 0,000 mm 0,0 UV-I 0 W/m 13,9 C 1,6 km/h (1 Bft)
26.08.2016 00:24 14,7 C 14,7 C 95 % 1016,7 hPa 0,0 mm 0,1 km/h (0 Bft) O 86 0 min 0,000 mm 0,0 UV-I 0 W/m 13,9 C 1,6 km/h (1 Bft)
26.08.2016 00:25 14,7 C 14,7 C 95 % 1016,7 hPa 0,0 mm 0,3 km/h (0 Bft) O 86 0 min 0,000 mm 0,0 UV-I 0 W/m 13,9 C 1,6 km/h (1 Bft)
26.08.2016 00:26 14,7 C 14,7 C 95 % 1016,7 hPa 0,0 mm 0,0 km/h (0 Bft) O 86 0 min 0,000 mm 0,0 UV-I 0 W/m 13,9 C 0,0 km/h (0 Bft)
26.08.2016 00:27 14,7 C 14,7 C 95 % 1016,7 hPa 0,0 mm 0,5 km/h (0 Bft) O 86 0 min 0,000 mm 0,0 UV-I 0 W/m 13,9 C 1,6 km/h (1 Bft)
26.08.2016 00:28 14,7 C 14,7 C 95 % 1016,7 hPa 0,0 mm 0,0 km/h (0 Bft) O 86 0 min 0,000 mm 0,0 UV-I 0 W/m 13,9 C 0,0 km/h (0 Bft)
26.08.2016 00:29 14,7 C 14,7 C 95 % 1016,7 hPa 0,0 mm 0,0 km/h (0 Bft) O 86 0 min 0,000 mm 0,0 UV-I 0 W/m 13,9 C 0,0 km/h (0 Bft)
26.08.2016 00:30 14,7 C 14,7 C 95 % 1016,7 hPa 0,0 mm 0,1 km/h (0 Bft) O 86 0 min 0,000 mm 0,0 UV-I 0 W/m 13,9 C 1,6 km/h (1 Bft)
26.08.2016 00:31 14,9 C 14,9 C 96 % 1016,7 hPa 0,0 mm 0,6 km/h (0 Bft) O 86 0 min 0,000 mm 0,0 UV-I 0 W/m 14,3 C 1,6 km/h (1 Bft)
26.08.2016 00:32 14,9 C 15,0 C 96 % 1016,7 hPa 0,0 mm 1,3 km/h (1 Bft) O 86 0 min 0,000 mm 0,0 UV-I 0 W/m 14,3 C 1,6 km/h (1 Bft)
26.08.2016 00:33 15,1 C 15,1 C 96 % 1016,7 hPa 0,0 mm 0,5 km/h (0 Bft) O 86 0 min 0,000 mm 0,0 UV-I 0 W/m 14,5 C 1,6 km/h (1 Bft)
26.08.2016 00:34 15,1 C 15,1 C 96 % 1016,7 hPa 0,0 mm 0,0 km/h (0 Bft) O 86 0 min 0,000 mm 0,0 UV-I 0 W/m 14,5 C 0,0 km/h (0 Bft)
26.08.2016 00:35 15,1 C 15,1 C 96 % 1016,7 hPa 0,0 mm 0,0 km/h (0 Bft) O 86 0 min 0,000 mm 0,0 UV-I 0 W/m 14,5 C 0,0 km/h (0 Bft)
26.08.2016 00:36 15,1 C 15,2 C 96 % 1016,7 hPa 0,0 mm 0,0 km/h (0 Bft) O 86 0 min 0,000 mm 0,0 UV-I 0 W/m 14,5 C 0,0 km/h (0 Bft)
26.08.2016 00:37 15,1 C 15,1 C 96 % 1016,7 hPa 0,0 mm 0,2 km/h (0 Bft) O 86 0 min 0,000 mm 0,0 UV-I 0 W/m 14,5 C 1,6 km/h (1 Bft)
26.08.2016 00:38 15,2 C 15,2 C 96 % 1016,7 hPa 0,0 mm 0,4 km/h (0 Bft) O 86 0 min 0,000 mm 0,0 UV-I 0 W/m 14,6 C 1,6 km/h (1 Bft)
26.08.2016 00:39 15,2 C 15,2 C 96 % 1016,7 hPa 0,0 mm 0,6 km/h (0 Bft) O 86 0 min 0,000 mm 0,0 UV-I 0 W/m 14,6 C 1,6 km/h (1 Bft)
26.08.2016 00:40 15,1 C 15,2 C 96 % 1016,6 hPa 0,0 mm 0,5 km/h (0 Bft) O 86 0 min 0,000 mm 0,0 UV-I 0 W/m 14,5 C 1,6 km/h (1 Bft)
26.08.2016 00:41 15,1 C 15,1 C 95 % 1016,7 hPa 0,0 mm 0,0 km/h (0 Bft) O 86 0 min 0,000 mm 0,0 UV-I 0 W/m 14,3 C 0,0 km/h (0 Bft)
26.08.2016 00:42 15,1 C 15,1 C 95 % 1016,6 hPa 0,0 mm 0,3 km/h (0 Bft) O 86 0 min 0,000 mm 0,0 UV-I 0 W/m 14,3 C 1,6 km/h (1 Bft)
26.08.2016 00:43 15,1 C 15,1 C 95 % 1016,7 hPa 0,0 mm 0,0 km/h (0 Bft) O 86 0 min 0,000 mm 0,0 UV-I 0 W/m 14,3 C 0,0 km/h (0 Bft)
26.08.2016 00:44 15,0 C 15,1 C 95 % 1016,7 hPa 0,0 mm 0,0 km/h (0 Bft) O 86 0 min 0,000 mm 0,0 UV-I 0 W/m 14,2 C 0,0 km/h (0 Bft)
26.08.2016 00:45 14,9 C 15,0 C 95 % 1016,6 hPa 0,0 mm 0,0 km/h (0 Bft) O 86 0 min 0,000 mm 0,0 UV-I 0 W/m 14,1 C 0,0 km/h (0 Bft)
26.08.2016 00:46 14,9 C 14,9 C 95 % 1016,6 hPa 0,0 mm 0,0 km/h (0 Bft) O 86 0 min 0,000 mm 0,0 UV-I 0 W/m 14,1 C 0,0 km/h (0 Bft)
26.08.2016 00:47 14,9 C 14,9 C 95 % 1016,7 hPa 0,0 mm 0,0 km/h (0 Bft) O 86 0 min 0,000 mm 0,0 UV-I 0 W/m 14,1 C 0,0 km/h (0 Bft)
26.08.2016 00:48 14,8 C 14,9 C 95 % 1016,6 hPa 0,0 mm 0,0 km/h (0 Bft) O 86 0 min 0,000 mm 0,0 UV-I 0 W/m 14,0 C 0,0 km/h (0 Bft)
26.08.2016 00:49 14,8 C 14,8 C 95 % 1016,6 hPa 0,0 mm 0,0 km/h (0 Bft) O 86 0 min 0,000 mm 0,0 UV-I 0 W/m 14,0 C 0,0 km/h (0 Bft)
26.08.2016 00:50 14,8 C 14,8 C 95 % 1016,6 hPa 0,0 mm 0,0 km/h (0 Bft) O 86 0 min 0,000 mm 0,0 UV-I 0 W/m 14,0 C 0,0 km/h (0 Bft)
26.08.2016 00:51 14,9 C 14,9 C 95 % 1016,6 hPa 0,0 mm 0,0 km/h (0 Bft) O 86 0 min 0,000 mm 0,0 UV-I 0 W/m 14,1 C 0,0 km/h (0 Bft)
26.08.2016 00:52 14,8 C 14,9 C 95 % 1016,6 hPa 0,0 mm 0,0 km/h (0 Bft) O 86 0 min 0,000 mm 0,0 UV-I 0 W/m 14,0 C 0,0 km/h (0 Bft)
26.08.2016 00:53 14,8 C 14,8 C 95 % 1016,6 hPa 0,0 mm 0,0 km/h (0 Bft) O 86 0 min 0,000 mm 0,0 UV-I 0 W/m 14,0 C 0,0 km/h (0 Bft)
26.08.2016 00:54 14,8 C 14,8 C 95 % 1016,6 hPa 0,0 mm 0,0 km/h (0 Bft) O 86 0 min 0,000 mm 0,0 UV-I 0 W/m 14,0 C 0,0 km/h (0 Bft)
26.08.2016 00:55 14,7 C 14,8 C 95 % 1016,6 hPa 0,0 mm 0,0 km/h (0 Bft) O 86 0 min 0,000 mm 0,0 UV-I 0 W/m 13,9 C 0,0 km/h (0 Bft)
26.08.2016 00:56 14,8 C 14,8 C 95 % 1016,6 hPa 0,0 mm 0,0 km/h (0 Bft) O 86 0 min 0,000 mm 0,0 UV-I 0 W/m 14,0 C 0,0 km/h (0 Bft)
26.08.2016 00:57 14,8 C 14,8 C 96 % 1016,6 hPa 0,0 mm 0,3 km/h (0 Bft) O 86 0 min 0,000 mm 0,0 UV-I 0 W/m 14,2 C 1,6 km/h (1 Bft)
26.08.2016 00:58 14,8 C 14,8 C 96 % 1016,6 hPa 0,0 mm 0,7 km/h (0 Bft) O 86 0 min 0,000 mm 0,0 UV-I 0 W/m 14,2 C 1,6 km/h (1 Bft)
26.08.2016 00:59 14,8 C 14,8 C 95 % 1016,6 hPa 0,0 mm 1,7 km/h (1 Bft) O 86 0 min 0,000 mm 0,0 UV-I 0 W/m 14,0 C 3,2 km/h (1 Bft)
26.08.2016 01:00 14,7 C 14,8 C 96 % 1016,6 hPa 0,0 mm 1,3 km/h (1 Bft) O 86 0 min 0,000 mm 0,0 UV-I 0 W/m 14,1 C 3,2 km/h (1 Bft)
26.08.2016 01:01 14,7 C 14,8 C 96 % 1016,7 hPa 0,0 mm 1,5 km/h (1 Bft) O 86 0 min 0,000 mm 0,0 UV-I 0 W/m 14,1 C 3,2 km/h (1 Bft)
26.08.2016 01:02 14,7 C 14,7 C 95 % 1016,7 hPa 0,0 mm 1,3 km/h (1 Bft) O 86 0 min 0,000 mm 0,0 UV-I 0 W/m 13,9 C 1,6 km/h (1 Bft)
26.08.2016 01:03 14,7 C 14,7 C 96 % 1016,6 hPa 0,0 mm 1,3 km/h (1 Bft) O 86 0 min 0,000 mm 0,0 UV-I 0 W/m 14,1 C 1,6 km/h (1 Bft)
26.08.2016 01:04 14,8 C 14,8 C 96 % 1016,6 hPa 0,0 mm 0,5 km/h (0 Bft) O 86 0 min 0,000 mm 0,0 UV-I 0 W/m 14,2 C 1,6 km/h (1 Bft)
26.08.2016 01:05 14,9 C 14,9 C 96 % 1016,6 hPa 0,0 mm 1,3 km/h (1 Bft) O 86 0 min 0,000 mm 0,0 UV-I 0 W/m 14,3 C 1,6 km/h (1 Bft)
26.08.2016 01:06 14,8 C 14,9 C 96 % 1016,6 hPa 0,0 mm 0,7 km/h (0 Bft) O 86 0 min 0,000 mm 0,0 UV-I 0 W/m 14,2 C 1,6 km/h (1 Bft)
26.08.2016 01:07 14,7 C 14,8 C 95 % 1016,6 hPa 0,0 mm 0,1 km/h (0 Bft) O 86 0 min 0,000 mm 0,0 UV-I 0 W/m 13,9 C 1,6 km/h (1 Bft)
26.08.2016 01:08 14,7 C 14,7 C 95 % 1016,6 hPa 0,0 mm 0,0 km/h (0 Bft) O 86 0 min 0,000 mm 0,0 UV-I 0 W/m 13,9 C 0,0 km/h (0 Bft)
26.08.2016 01:09 14,7 C 14,7 C 96 % 1016,6 hPa 0,0 mm 0,0 km/h (0 Bft) O 86 0 min 0,000 mm 0,0 UV-I 0 W/m 14,1 C 0,0 km/h (0 Bft)
26.08.2016 01:10 14,7 C 14,7 C 96 % 1016,5 hPa 0,0 mm 0,0 km/h (0 Bft) O 86 0 min 0,000 mm 0,0 UV-I 0 W/m 14,1 C 0,0 km/h (0 Bft)
26.08.2016 01:11 14,8 C 14,8 C 96 % 1016,6 hPa 0,0 mm 0,0 km/h (0 Bft) O 86 0 min 0,000 mm 0,0 UV-I 0 W/m 14,2 C 0,0 km/h (0 Bft)
26.08.2016 01:12 14,8 C 14,8 C 96 % 1016,6 hPa 0,0 mm 0,0 km/h (0 Bft) O 86 0 min 0,000 mm 0,0 UV-I 0 W/m 14,2 C 0,0 km/h (0 Bft)
26.08.2016 01:13 14,7 C 14,8 C 96 % 1016,6 hPa 0,0 mm 0,0 km/h (0 Bft) O 86 0 min 0,000 mm 0,0 UV-I 0 W/m 14,1 C 0,0 km/h (0 Bft)
26.08.2016 01:14 14,7 C 14,8 C 96 % 1016,6 hPa 0,0 mm 0,0 km/h (0 Bft) O 86 0 min 0,000 mm 0,0 UV-I 0 W/m 14,1 C 0,0 km/h (0 Bft)
26.08.2016 01:15 14,8 C 14,8 C 96 % 1016,6 hPa 0,0 mm 0,0 km/h (0 Bft) O 86 0 min 0,000 mm 0,0 UV-I 0 W/m 14,2 C 0,0 km/h (0 Bft)
26.08.2016 01:16 14,8 C 14,8 C 96 % 1016,6 hPa 0,0 mm 0,0 km/h (0 Bft) O 86 0 min 0,000 mm 0,0 UV-I 0 W/m 14,2 C 0,0 km/h (0 Bft)
26.08.2016 01:17 14,8 C 14,8 C 96 % 1016,5 hPa 0,0 mm 0,0 km/h (0 Bft) O 86 0 min 0,000 mm 0,0 UV-I 0 W/m 14,2 C 0,0 km/h (0 Bft)
26.08.2016 01:18 14,8 C 14,9 C 96 % 1016,6 hPa 0,0 mm 0,0 km/h (0 Bft) O 86 0 min 0,000 mm 0,0 UV-I 0 W/m 14,2 C 0,0 km/h (0 Bft)
26.08.2016 01:19 14,8 C 14,8 C 96 % 1016,5 hPa 0,0 mm 0,0 km/h (0 Bft) O 86 0 min 0,000 mm 0,0 UV-I 0 W/m 14,2 C 0,0 km/h (0 Bft)
26.08.2016 01:20 14,8 C 14,9 C 96 % 1016,5 hPa 0,0 mm 0,0 km/h (0 Bft) O 86 0 min 0,000 mm 0,0 UV-I 0 W/m 14,2 C 0,0 km/h (0 Bft)
26.08.2016 01:21 14,8 C 14,9 C 96 % 1016,5 hPa 0,0 mm 0,0 km/h (0 Bft) O 86 0 min 0,000 mm 0,0 UV-I 0 W/m 14,2 C 0,0 km/h (0 Bft)
26.08.2016 01:22 14,8 C 14,9 C 96 % 1016,5 hPa 0,0 mm 0,0 km/h (0 Bft) O 86 0 min 0,000 mm 0,0 UV-I 0 W/m 14,2 C 0,0 km/h (0 Bft)
26.08.2016 01:23 14,9 C 14,9 C 96 % 1016,5 hPa 0,0 mm 0,0 km/h (0 Bft) O 86 0 min 0,000 mm 0,0 UV-I 0 W/m 14,3 C 0,0 km/h (0 Bft)
26.08.2016 01:24 14,8 C 14,9 C 96 % 1016,5 hPa 0,0 mm 0,0 km/h (0 Bft) O 86 0 min 0,000 mm 0,0 UV-I 0 W/m 14,2 C 0,0 km/h (0 Bft)
26.08.2016 01:25 14,8 C 14,8 C 96 % 1016,4 hPa 0,0 mm 0,0 km/h (0 Bft) O 86 0 min 0,000 mm 0,0 UV-I 0 W/m 14,2 C 0,0 km/h (0 Bft)
26.08.2016 01:26 14,8 C 14,9 C 96 % 1016,4 hPa 0,0 mm 0,0 km/h (0 Bft) O 86 0 min 0,000 mm 0,0 UV-I 0 W/m 14,2 C 0,0 km/h (0 Bft)
26.08.2016 01:27 14,8 C 14,8 C 96 % 1016,4 hPa 0,0 mm 0,0 km/h (0 Bft) O 86 0 min 0,000 mm 0,0 UV-I 0 W/m 14,2 C 0,0 km/h (0 Bft)
26.08.2016 01:28 14,8 C 14,8 C 96 % 1016,4 hPa 0,0 mm 0,0 km/h (0 Bft) O 86 0 min 0,000 mm 0,0 UV-I 0 W/m 14,2 C 0,0 km/h (0 Bft)
26.08.2016 01:29 14,8 C 14,8 C 96 % 1016,4 hPa 0,0 mm 0,0 km/h (0 Bft) O 86 0 min 0,000 mm 0,0 UV-I 0 W/m 14,2 C 0,0 km/h (0 Bft)
26.08.2016 01:30 14,8 C 14,8 C 96 % 1016,4 hPa 0,0 mm 0,0 km/h (0 Bft) O 86 0 min 0,000 mm 0,0 UV-I 0 W/m 14,2 C 0,0 km/h (0 Bft)
26.08.2016 01:31 14,8 C 14,8 C 96 % 1016,4 hPa 0,0 mm 0,0 km/h (0 Bft) O 86 0 min 0,000 mm 0,0 UV-I 0 W/m 14,2 C 0,0 km/h (0 Bft)
26.08.2016 01:32 14,8 C 14,8 C 96 % 1016,4 hPa 0,0 mm 0,0 km/h (0 Bft) O 86 0 min 0,000 mm 0,0 UV-I 0 W/m 14,2 C 0,0 km/h (0 Bft)
26.08.2016 01:33 14,8 C 14,8 C 96 % 1016,4 hPa 0,0 mm 0,0 km/h (0 Bft) O 86 0 min 0,000 mm 0,0 UV-I 0 W/m 14,2 C 0,0 km/h (0 Bft)
26.08.2016 01:34 14,7 C 14,8 C 96 % 1016,4 hPa 0,0 mm 0,0 km/h (0 Bft) O 86 0 min 0,000 mm 0,0 UV-I 0 W/m 14,1 C 0,0 km/h (0 Bft)
26.08.2016 01:35 14,7 C 14,7 C 96 % 1016,4 hPa 0,0 mm 0,0 km/h (0 Bft) O 86 0 min 0,000 mm 0,0 UV-I 0 W/m 14,1 C 0,0 km/h (0 Bft)
26.08.2016 01:36 14,7 C 14,8 C 96 % 1016,4 hPa 0,0 mm 0,0 km/h (0 Bft) O 86 0 min 0,000 mm 0,0 UV-I 0 W/m 14,1 C 0,0 km/h (0 Bft)
26.08.2016 01:37 14,7 C 14,8 C 96 % 1016,4 hPa 0,0 mm 0,0 km/h (0 Bft) O 86 0 min 0,000 mm 0,0 UV-I 0 W/m 14,1 C 0,0 km/h (0 Bft)
26.08.2016 01:38 14,7 C 14,7 C 96 % 1016,4 hPa 0,0 mm 0,0 km/h (0 Bft) O 86 0 min 0,000 mm 0,0 UV-I 0 W/m 14,1 C 0,0 km/h (0 Bft)
26.08.2016 01:39 14,7 C 14,7 C 96 % 1016,4 hPa 0,0 mm 0,0 km/h (0 Bft) O 86 0 min 0,000 mm 0,0 UV-I 0 W/m 14,1 C 0,0 km/h (0 Bft)
26.08.2016 01:40 14,8 C 14,8 C 96 % 1016,4 hPa 0,0 mm 0,0 km/h (0 Bft) O 86 0 min 0,000 mm 0,0 UV-I 0 W/m 14,2 C 0,0 km/h (0 Bft)
26.08.2016 01:41 14,8 C 14,8 C 96 % 1016,4 hPa 0,0 mm 0,0 km/h (0 Bft) O 86 0 min 0,000 mm 0,0 UV-I 0 W/m 14,2 C 0,0 km/h (0 Bft)
26.08.2016 01:42 14,8 C 14,8 C 96 % 1016,4 hPa 0,0 mm 0,0 km/h (0 Bft) O 86 0 min 0,000 mm 0,0 UV-I 0 W/m 14,2 C 0,0 km/h (0 Bft)
26.08.2016 01:43 14,8 C 14,8 C 96 % 1016,4 hPa 0,0 mm 0,0 km/h (0 Bft) O 86 0 min 0,000 mm 0,0 UV-I 0 W/m 14,2 C 0,0 km/h (0 Bft)
26.08.2016 01:44 14,7 C 14,8 C 96 % 1016,4 hPa 0,0 mm 0,0 km/h (0 Bft) O 86 0 min 0,000 mm 0,0 UV-I 0 W/m 14,1 C 0,0 km/h (0 Bft)
26.08.2016 01:45 14,7 C 14,8 C 96 % 1016,4 hPa 0,0 mm 0,0 km/h (0 Bft) O 86 0 min 0,000 mm 0,0 UV-I 0 W/m 14,1 C 0,0 km/h (0 Bft)
26.08.2016 01:46 14,8 C 14,8 C 96 % 1016,4 hPa 0,0 mm 0,0 km/h (0 Bft) O 86 0 min 0,000 mm 0,0 UV-I 0 W/m 14,2 C 0,0 km/h (0 Bft)
26.08.2016 01:47 14,8 C 14,8 C 96 % 1016,4 hPa 0,0 mm 0,0 km/h (0 Bft) O 86 0 min 0,000 mm 0,0 UV-I 0 W/m 14,2 C 0,0 km/h (0 Bft)
26.08.2016 01:48 14,8 C 14,8 C 96 % 1016,4 hPa 0,0 mm 0,0 km/h (0 Bft) O 86 0 min 0,000 mm 0,0 UV-I 0 W/m 14,2 C 0,0 km/h (0 Bft)
26.08.2016 01:49 14,7 C 14,8 C 96 % 1016,4 hPa 0,0 mm 0,0 km/h (0 Bft) O 86 0 min 0,000 mm 0,0 UV-I 0 W/m 14,1 C 0,0 km/h (0 Bft)
26.08.2016 01:50 14,7 C 14,7 C 96 % 1016,4 hPa 0,0 mm 0,0 km/h (0 Bft) O 86 0 min 0,000 mm 0,0 UV-I 0 W/m 14,1 C 0,0 km/h (0 Bft)
26.08.2016 01:51 14,7 C 14,8 C 96 % 1016,4 hPa 0,0 mm 0,0 km/h (0 Bft) O 86 0 min 0,000 mm 0,0 UV-I 0 W/m 14,1 C 0,0 km/h (0 Bft)
26.08.2016 01:52 14,7 C 14,8 C 96 % 1016,4 hPa 0,0 mm 0,0 km/h (0 Bft) O 86 0 min 0,000 mm 0,0 UV-I 0 W/m 14,1 C 0,0 km/h (0 Bft)
26.08.2016 01:53 14,7 C 14,7 C 96 % 1016,4 hPa 0,0 mm 0,0 km/h (0 Bft) O 86 0 min 0,000 mm 0,0 UV-I 0 W/m 14,1 C 0,0 km/h (0 Bft)
26.08.2016 01:54 14,7 C 14,7 C 96 % 1016,3 hPa 0,0 mm 0,0 km/h (0 Bft) O 86 0 min 0,000 mm 0,0 UV-I 0 W/m 14,1 C 0,0 km/h (0 Bft)
26.08.2016 01:55 14,7 C 14,7 C 96 % 1016,3 hPa 0,0 mm 0,0 km/h (0 Bft) O 86 0 min 0,000 mm 0,0 UV-I 0 W/m 14,1 C 0,0 km/h (0 Bft)
26.08.2016 01:56 14,7 C 14,7 C 96 % 1016,3 hPa 0,0 mm 0,0 km/h (0 Bft) O 86 0 min 0,000 mm 0,0 UV-I 0 W/m 14,1 C 0,0 km/h (0 Bft)
26.08.2016 01:57 14,7 C 14,7 C 96 % 1016,3 hPa 0,0 mm 0,0 km/h (0 Bft) O 86 0 min 0,000 mm 0,0 UV-I 0 W/m 14,1 C 0,0 km/h (0 Bft)
26.08.2016 01:58 14,7 C 14,7 C 96 % 1016,3 hPa 0,0 mm 0,0 km/h (0 Bft) O 86 0 min 0,000 mm 0,0 UV-I 0 W/m 14,1 C 0,0 km/h (0 Bft)
26.08.2016 01:59 14,7 C 14,7 C 96 % 1016,3 hPa 0,0 mm 0,0 km/h (0 Bft) O 86 0 min 0,000 mm 0,0 UV-I 0 W/m 14,1 C 0,0 km/h (0 Bft)
26.08.2016 02:00 14,7 C 14,7 C 96 % 1016,3 hPa 0,0 mm 0,0 km/h (0 Bft) O 86 0 min 0,000 mm 0,0 UV-I 0 W/m 14,1 C 0,0 km/h (0 Bft)
26.08.2016 02:01 14,7 C 14,7 C 96 % 1016,3 hPa 0,0 mm 0,0 km/h (0 Bft) O 86 0 min 0,000 mm 0,0 UV-I 0 W/m 14,1 C 0,0 km/h (0 Bft)
26.08.2016 02:02 14,7 C 14,7 C 96 % 1016,3 hPa 0,0 mm 0,0 km/h (0 Bft) O 86 0 min 0,000 mm 0,0 UV-I 0 W/m 14,1 C 0,0 km/h (0 Bft)
26.08.2016 02:03 14,7 C 14,7 C 96 % 1016,3 hPa 0,0 mm 0,0 km/h (0 Bft) O 86 0 min 0,000 mm 0,0 UV-I 0 W/m 14,1 C 0,0 km/h (0 Bft)
26.08.2016 02:04 14,7 C 14,7 C 96 % 1016,3 hPa 0,0 mm 0,0 km/h (0 Bft) O 86 0 min 0,000 mm 0,0 UV-I 0 W/m 14,1 C 0,0 km/h (0 Bft)
26.08.2016 02:05 14,7 C 14,7 C 96 % 1016,3 hPa 0,0 mm 0,0 km/h (0 Bft) O 86 0 min 0,000 mm 0,0 UV-I 0 W/m 14,1 C 0,0 km/h (0 Bft)
26.08.2016 02:06 14,7 C 14,7 C 96 % 1016,3 hPa 0,0 mm 0,0 km/h (0 Bft) O 86 0 min 0,000 mm 0,0 UV-I 0 W/m 14,1 C 0,0 km/h (0 Bft)
26.08.2016 02:07 14,7 C 14,7 C 96 % 1016,3 hPa 0,0 mm 0,0 km/h (0 Bft) O 86 0 min 0,000 mm 0,0 UV-I 0 W/m 14,1 C 0,0 km/h (0 Bft)
26.08.2016 02:08 14,7 C 14,7 C 96 % 1016,3 hPa 0,0 mm 0,0 km/h (0 Bft) O 86 0 min 0,000 mm 0,0 UV-I 0 W/m 14,1 C 0,0 km/h (0 Bft)
26.08.2016 02:09 14,6 C 14,7 C 96 % 1016,3 hPa 0,0 mm 0,0 km/h (0 Bft) O 86 0 min 0,000 mm 0,0 UV-I 0 W/m 14,0 C 0,0 km/h (0 Bft)
26.08.2016 02:10 14,6 C 14,7 C 96 % 1016,3 hPa 0,0 mm 0,0 km/h (0 Bft) O 86 0 min 0,000 mm 0,0 UV-I 0 W/m 14,0 C 0,0 km/h (0 Bft)
26.08.2016 02:11 14,6 C 14,6 C 96 % 1016,2 hPa 0,0 mm 0,0 km/h (0 Bft) O 86 0 min 0,000 mm 0,0 UV-I 0 W/m 14,0 C 0,0 km/h (0 Bft)
26.08.2016 02:12 14,6 C 14,7 C 96 % 1016,2 hPa 0,0 mm 0,0 km/h (0 Bft) O 86 0 min 0,000 mm 0,0 UV-I 0 W/m 14,0 C 0,0 km/h (0 Bft)
26.08.2016 02:13 14,6 C 14,6 C 96 % 1016,2 hPa 0,0 mm 0,0 km/h (0 Bft) O 86 0 min 0,000 mm 0,0 UV-I 0 W/m 14,0 C 0,0 km/h (0 Bft)
26.08.2016 02:14 14,6 C 14,6 C 96 % 1016,2 hPa 0,0 mm 0,0 km/h (0 Bft) O 86 0 min 0,000 mm 0,0 UV-I 0 W/m 14,0 C 0,0 km/h (0 Bft)
26.08.2016 02:15 14,6 C 14,6 C 96 % 1016,2 hPa 0,0 mm 0,0 km/h (0 Bft) O 86 0 min 0,000 mm 0,0 UV-I 0 W/m 14,0 C 0,0 km/h (0 Bft)
26.08.2016 02:16 14,6 C 14,6 C 96 % 1016,2 hPa 0,0 mm 0,0 km/h (0 Bft) O 86 0 min 0,000 mm 0,0 UV-I 0 W/m 14,0 C 0,0 km/h (0 Bft)
26.08.2016 02:17 14,6 C 14,6 C 96 % 1016,2 hPa 0,0 mm 0,0 km/h (0 Bft) O 86 0 min 0,000 mm 0,0 UV-I 0 W/m 14,0 C 0,0 km/h (0 Bft)
26.08.2016 02:18 14,6 C 14,6 C 96 % 1016,2 hPa 0,0 mm 0,0 km/h (0 Bft) O 86 0 min 0,000 mm 0,0 UV-I 0 W/m 14,0 C 0,0 km/h (0 Bft)
26.08.2016 02:19 14,6 C 14,6 C 96 % 1016,2 hPa 0,0 mm 0,0 km/h (0 Bft) O 86 0 min 0,000 mm 0,0 UV-I 0 W/m 14,0 C 0,0 km/h (0 Bft)
26.08.2016 02:20 14,7 C 14,7 C 96 % 1016,2 hPa 0,0 mm 0,0 km/h (0 Bft) O 86 0 min 0,000 mm 0,0 UV-I 0 W/m 14,1 C 0,0 km/h (0 Bft)
26.08.2016 02:21 14,8 C 14,8 C 96 % 1016,2 hPa 0,0 mm 0,0 km/h (0 Bft) O 86 0 min 0,000 mm 0,0 UV-I 0 W/m 14,2 C 0,0 km/h (0 Bft)
26.08.2016 02:22 14,9 C 14,9 C 97 % 1016,2 hPa 0,0 mm 0,0 km/h (0 Bft) O 86 0 min 0,000 mm 0,0 UV-I 0 W/m 14,4 C 0,0 km/h (0 Bft)
26.08.2016 02:23 14,9 C 14,9 C 97 % 1016,2 hPa 0,0 mm 0,0 km/h (0 Bft) O 86 0 min 0,000 mm 0,0 UV-I 0 W/m 14,4 C 0,0 km/h (0 Bft)
26.08.2016 02:24 14,9 C 14,9 C 97 % 1016,2 hPa 0,0 mm 0,0 km/h (0 Bft) O 86 0 min 0,000 mm 0,0 UV-I 0 W/m 14,4 C 0,0 km/h (0 Bft)
26.08.2016 02:25 14,8 C 14,9 C 97 % 1016,2 hPa 0,0 mm 0,0 km/h (0 Bft) O 86 0 min 0,000 mm 0,0 UV-I 0 W/m 14,3 C 0,0 km/h (0 Bft)
26.08.2016 02:26 14,7 C 14,8 C 96 % 1016,2 hPa 0,0 mm 0,0 km/h (0 Bft) O 86 0 min 0,000 mm 0,0 UV-I 0 W/m 14,1 C 0,0 km/h (0 Bft)
26.08.2016 02:27 14,7 C 14,7 C 96 % 1016,2 hPa 0,0 mm 0,0 km/h (0 Bft) O 86 0 min 0,000 mm 0,0 UV-I 0 W/m 14,1 C 0,0 km/h (0 Bft)
26.08.2016 02:28 14,6 C 14,7 C 96 % 1016,2 hPa 0,0 mm 0,0 km/h (0 Bft) O 86 0 min 0,000 mm 0,0 UV-I 0 W/m 14,0 C 0,0 km/h (0 Bft)
26.08.2016 02:29 14,4 C 14,6 C 96 % 1016,2 hPa 0,0 mm 0,0 km/h (0 Bft) O 86 0 min 0,000 mm 0,0 UV-I 0 W/m 13,8 C 0,0 km/h (0 Bft)
26.08.2016 02:30 14,4 C 14,4 C 96 % 1016,2 hPa 0,0 mm 0,0 km/h (0 Bft) O 86 0 min 0,000 mm 0,0 UV-I 0 W/m 13,8 C 0,0 km/h (0 Bft)
26.08.2016 02:31 14,3 C 14,4 C 96 % 1016,2 hPa 0,0 mm 0,0 km/h (0 Bft) O 86 0 min 0,000 mm 0,0 UV-I 0 W/m 13,7 C 0,0 km/h (0 Bft)
26.08.2016 02:32 14,3 C 14,3 C 96 % 1016,2 hPa 0,0 mm 0,0 km/h (0 Bft) O 86 0 min 0,000 mm 0,0 UV-I 0 W/m 13,7 C 0,0 km/h (0 Bft)
26.08.2016 02:33 14,2 C 14,3 C 96 % 1016,2 hPa 0,0 mm 0,0 km/h (0 Bft) O 86 0 min 0,000 mm 0,0 UV-I 0 W/m 13,6 C 0,0 km/h (0 Bft)
26.08.2016 02:34 14,2 C 14,3 C 96 % 1016,2 hPa 0,0 mm 0,0 km/h (0 Bft) O 86 0 min 0,000 mm 0,0 UV-I 0 W/m 13,6 C 0,0 km/h (0 Bft)
26.08.2016 02:35 14,2 C 14,3 C 96 % 1016,2 hPa 0,0 mm 0,0 km/h (0 Bft) O 86 0 min 0,000 mm 0,0 UV-I 0 W/m 13,6 C 0,0 km/h (0 Bft)
26.08.2016 02:36 14,2 C 14,2 C 96 % 1016,2 hPa 0,0 mm 0,0 km/h (0 Bft) O 86 0 min 0,000 mm 0,0 UV-I 0 W/m 13,6 C 0,0 km/h (0 Bft)
26.08.2016 02:37 14,1 C 14,2 C 96 % 1016,2 hPa 0,0 mm 0,0 km/h (0 Bft) O 86 0 min 0,000 mm 0,0 UV-I 0 W/m 13,5 C 0,0 km/h (0 Bft)
26.08.2016 02:38 14,2 C 14,2 C 96 % 1016,2 hPa 0,0 mm 0,0 km/h (0 Bft) O 86 0 min 0,000 mm 0,0 UV-I 0 W/m 13,6 C 0,0 km/h (0 Bft)
26.08.2016 02:39 14,2 C 14,2 C 96 % 1016,2 hPa 0,0 mm 0,0 km/h (0 Bft) O 86 0 min 0,000 mm 0,0 UV-I 0 W/m 13,6 C 0,0 km/h (0 Bft)
26.08.2016 02:40 14,2 C 14,2 C 96 % 1016,2 hPa 0,0 mm 0,0 km/h (0 Bft) O 86 0 min 0,000 mm 0,0 UV-I 0 W/m 13,6 C 0,0 km/h (0 Bft)
26.08.2016 02:41 14,2 C 14,2 C 96 % 1016,2 hPa 0,0 mm 0,0 km/h (0 Bft) O 86 0 min 0,000 mm 0,0 UV-I 0 W/m 13,6 C 0,0 km/h (0 Bft)
26.08.2016 02:42 14,2 C 14,2 C 96 % 1016,2 hPa 0,0 mm 0,0 km/h (0 Bft) O 86 0 min 0,000 mm 0,0 UV-I 0 W/m 13,6 C 0,0 km/h (0 Bft)
26.08.2016 02:43 14,2 C 14,2 C 96 % 1016,2 hPa 0,0 mm 0,0 km/h (0 Bft) O 86 0 min 0,000 mm 0,0 UV-I 0 W/m 13,6 C 0,0 km/h (0 Bft)
26.08.2016 02:44 14,2 C 14,2 C 96 % 1016,2 hPa 0,0 mm 0,0 km/h (0 Bft) O 86 0 min 0,000 mm 0,0 UV-I 0 W/m 13,6 C 0,0 km/h (0 Bft)
26.08.2016 02:45 14,2 C 14,2 C 96 % 1016,2 hPa 0,0 mm 0,0 km/h (0 Bft) O 86 0 min 0,000 mm 0,0 UV-I 0 W/m 13,6 C 0,0 km/h (0 Bft)
26.08.2016 02:46 14,2 C 14,2 C 96 % 1016,2 hPa 0,0 mm 0,0 km/h (0 Bft) O 86 0 min 0,000 mm 0,0 UV-I 0 W/m 13,6 C 0,0 km/h (0 Bft)
26.08.2016 02:47 14,3 C 14,3 C 96 % 1016,2 hPa 0,0 mm 0,0 km/h (0 Bft) O 86 0 min 0,000 mm 0,0 UV-I 0 W/m 13,7 C 0,0 km/h (0 Bft)
26.08.2016 02:48 14,2 C 14,3 C 96 % 1016,2 hPa 0,0 mm 0,0 km/h (0 Bft) O 86 0 min 0,000 mm 0,0 UV-I 0 W/m 13,6 C 0,0 km/h (0 Bft)
26.08.2016 02:49 14,2 C 14,2 C 96 % 1016,2 hPa 0,0 mm 0,0 km/h (0 Bft) O 86 0 min 0,000 mm 0,0 UV-I 0 W/m 13,6 C 0,0 km/h (0 Bft)
26.08.2016 02:50 14,1 C 14,2 C 96 % 1016,2 hPa 0,0 mm 0,0 km/h (0 Bft) O 86 0 min 0,000 mm 0,0 UV-I 0 W/m 13,5 C 0,0 km/h (0 Bft)
26.08.2016 02:51 14,1 C 14,1 C 96 % 1016,2 hPa 0,0 mm 0,0 km/h (0 Bft) O 86 0 min 0,000 mm 0,0 UV-I 0 W/m 13,5 C 0,0 km/h (0 Bft)
26.08.2016 02:52 14,2 C 14,2 C 96 % 1016,2 hPa 0,0 mm 0,0 km/h (0 Bft) O 86 0 min 0,000 mm 0,0 UV-I 0 W/m 13,6 C 0,0 km/h (0 Bft)
26.08.2016 02:53 14,2 C 14,2 C 96 % 1016,2 hPa 0,0 mm 0,0 km/h (0 Bft) O 86 0 min 0,000 mm 0,0 UV-I 0 W/m 13,6 C 0,0 km/h (0 Bft)
26.08.2016 02:54 14,3 C 14,3 C 96 % 1016,3 hPa 0,0 mm 0,0 km/h (0 Bft) O 86 0 min 0,000 mm 0,0 UV-I 0 W/m 13,7 C 0,0 km/h (0 Bft)
26.08.2016 02:55 14,2 C 14,3 C 96 % 1016,3 hPa 0,0 mm 0,0 km/h (0 Bft) O 86 0 min 0,000 mm 0,0 UV-I 0 W/m 13,6 C 0,0 km/h (0 Bft)
26.08.2016 02:56 14,2 C 14,2 C 96 % 1016,3 hPa 0,0 mm 0,0 km/h (0 Bft) O 86 0 min 0,000 mm 0,0 UV-I 0 W/m 13,6 C 0,0 km/h (0 Bft)
26.08.2016 02:57 14,2 C 14,2 C 96 % 1016,3 hPa 0,0 mm 0,0 km/h (0 Bft) O 86 0 min 0,000 mm 0,0 UV-I 0 W/m 13,6 C 0,0 km/h (0 Bft)
26.08.2016 02:58 14,3 C 14,3 C 96 % 1016,3 hPa 0,0 mm 0,0 km/h (0 Bft) O 86 0 min 0,000 mm 0,0 UV-I 0 W/m 13,7 C 0,0 km/h (0 Bft)
26.08.2016 02:59 14,3 C 14,3 C 96 % 1016,3 hPa 0,0 mm 0,0 km/h (0 Bft) O 86 0 min 0,000 mm 0,0 UV-I 0 W/m 13,7 C 0,0 km/h (0 Bft)
26.08.2016 03:00 14,3 C 14,3 C 96 % 1016,3 hPa 0,0 mm 0,0 km/h (0 Bft) O 86 0 min 0,000 mm 0,0 UV-I 0 W/m 13,7 C 0,0 km/h (0 Bft)
26.08.2016 03:01 14,2 C 14,3 C 96 % 1016,3 hPa 0,0 mm 0,0 km/h (0 Bft) O 86 0 min 0,000 mm 0,0 UV-I 0 W/m 13,6 C 0,0 km/h (0 Bft)
26.08.2016 03:02 14,3 C 14,3 C 96 % 1016,3 hPa 0,0 mm 0,0 km/h (0 Bft) O 86 0 min 0,000 mm 0,0 UV-I 0 W/m 13,7 C 0,0 km/h (0 Bft)
26.08.2016 03:03 14,3 C 14,3 C 96 % 1016,3 hPa 0,0 mm 0,0 km/h (0 Bft) O 86 0 min 0,000 mm 0,0 UV-I 0 W/m 13,7 C 0,0 km/h (0 Bft)
26.08.2016 03:04 14,4 C 14,4 C 96 % 1016,3 hPa 0,0 mm 0,1 km/h (0 Bft) O 86 0 min 0,000 mm 0,0 UV-I 0 W/m 13,8 C 1,6 km/h (1 Bft)
26.08.2016 03:05 14,3 C 14,4 C 96 % 1016,3 hPa 0,0 mm 1,3 km/h (1 Bft) O 86 0 min 0,000 mm 0,0 UV-I 0 W/m 13,7 C 1,6 km/h (1 Bft)
26.08.2016 03:06 14,2 C 14,3 C 96 % 1016,4 hPa 0,0 mm 0,2 km/h (0 Bft) O 86 0 min 0,000 mm 0,0 UV-I 0 W/m 13,6 C 1,6 km/h (1 Bft)
26.08.2016 03:07 14,2 C 14,2 C 96 % 1016,4 hPa 0,0 mm 0,1 km/h (0 Bft) O 86 0 min 0,000 mm 0,0 UV-I 0 W/m 13,6 C 1,6 km/h (1 Bft)
26.08.2016 03:08 14,1 C 14,2 C 96 % 1016,4 hPa 0,0 mm 0,0 km/h (0 Bft) O 86 0 min 0,000 mm 0,0 UV-I 0 W/m 13,5 C 0,0 km/h (0 Bft)
26.08.2016 03:09 14,1 C 14,2 C 96 % 1016,4 hPa 0,0 mm 0,0 km/h (0 Bft) O 86 0 min 0,000 mm 0,0 UV-I 0 W/m 13,5 C 0,0 km/h (0 Bft)
26.08.2016 03:10 14,1 C 14,1 C 96 % 1016,4 hPa 0,0 mm 0,0 km/h (0 Bft) O 86 0 min 0,000 mm 0,0 UV-I 0 W/m 13,5 C 0,0 km/h (0 Bft)
26.08.2016 03:11 14,1 C 14,1 C 96 % 1016,4 hPa 0,0 mm 0,0 km/h (0 Bft) O 86 0 min 0,000 mm 0,0 UV-I 0 W/m 13,5 C 0,0 km/h (0 Bft)
26.08.2016 03:12 14,1 C 14,1 C 96 % 1016,4 hPa 0,0 mm 0,0 km/h (0 Bft) O 86 0 min 0,000 mm 0,0 UV-I 0 W/m 13,5 C 0,0 km/h (0 Bft)
26.08.2016 03:13 14,1 C 14,1 C 96 % 1016,5 hPa 0,0 mm 0,0 km/h (0 Bft) O 86 0 min 0,000 mm 0,0 UV-I 0 W/m 13,5 C 0,0 km/h (0 Bft)
26.08.2016 03:14 14,1 C 14,1 C 96 % 1016,4 hPa 0,0 mm 0,0 km/h (0 Bft) O 86 0 min 0,000 mm 0,0 UV-I 0 W/m 13,5 C 0,0 km/h (0 Bft)
26.08.2016 03:15 14,2 C 14,2 C 96 % 1016,5 hPa 0,0 mm 0,0 km/h (0 Bft) O 86 0 min 0,000 mm 0,0 UV-I 0 W/m 13,6 C 0,0 km/h (0 Bft)
26.08.2016 03:16 14,2 C 14,2 C 97 % 1016,5 hPa 0,0 mm 0,0 km/h (0 Bft) O 86 0 min 0,000 mm 0,0 UV-I 0 W/m 13,7 C 0,0 km/h (0 Bft)
26.08.2016 03:17 14,2 C 14,2 C 97 % 1016,5 hPa 0,0 mm 0,0 km/h (0 Bft) O 86 0 min 0,000 mm 0,0 UV-I 0 W/m 13,7 C 0,0 km/h (0 Bft)
26.08.2016 03:18 14,1 C 14,2 C 97 % 1016,4 hPa 0,0 mm 0,0 km/h (0 Bft) O 86 0 min 0,000 mm 0,0 UV-I 0 W/m 13,6 C 0,0 km/h (0 Bft)
26.08.2016 03:19 14,1 C 14,1 C 97 % 1016,4 hPa 0,0 mm 0,0 km/h (0 Bft) O 86 0 min 0,000 mm 0,0 UV-I 0 W/m 13,6 C 0,0 km/h (0 Bft)
26.08.2016 03:20 14,1 C 14,1 C 96 % 1016,5 hPa 0,0 mm 0,0 km/h (0 Bft) O 86 0 min 0,000 mm 0,0 UV-I 0 W/m 13,5 C 0,0 km/h (0 Bft)
26.08.2016 03:21 14,1 C 14,1 C 96 % 1016,5 hPa 0,0 mm 0,0 km/h (0 Bft) O 86 0 min 0,000 mm 0,0 UV-I 0 W/m 13,5 C 0,0 km/h (0 Bft)
26.08.2016 03:22 14,0 C 14,1 C 96 % 1016,4 hPa 0,0 mm 0,0 km/h (0 Bft) O 86 0 min 0,000 mm 0,0 UV-I 0 W/m 13,4 C 0,0 km/h (0 Bft)
26.08.2016 03:23 13,9 C 14,0 C 96 % 1016,5 hPa 0,0 mm 0,0 km/h (0 Bft) O 86 0 min 0,000 mm 0,0 UV-I 0 W/m 13,3 C 0,0 km/h (0 Bft)
26.08.2016 03:24 13,9 C 14,0 C 96 % 1016,5 hPa 0,0 mm 0,0 km/h (0 Bft) O 86 0 min 0,000 mm 0,0 UV-I 0 W/m 13,3 C 0,0 km/h (0 Bft)
26.08.2016 03:25 13,8 C 13,9 C 96 % 1016,5 hPa 0,0 mm 0,0 km/h (0 Bft) O 86 0 min 0,000 mm 0,0 UV-I 0 W/m 13,2 C 0,0 km/h (0 Bft)
26.08.2016 03:26 13,8 C 13,9 C 96 % 1016,5 hPa 0,0 mm 0,0 km/h (0 Bft) O 86 0 min 0,000 mm 0,0 UV-I 0 W/m 13,2 C 0,0 km/h (0 Bft)
26.08.2016 03:27 13,8 C 13,8 C 96 % 1016,5 hPa 0,0 mm 0,0 km/h (0 Bft) O 86 0 min 0,000 mm 0,0 UV-I 0 W/m 13,2 C 0,0 km/h (0 Bft)
26.08.2016 03:28 13,8 C 13,8 C 96 % 1016,5 hPa 0,0 mm 0,0 km/h (0 Bft) O 86 0 min 0,000 mm 0,0 UV-I 0 W/m 13,2 C 0,0 km/h (0 Bft)
26.08.2016 03:29 13,8 C 13,8 C 96 % 1016,5 hPa 0,0 mm 0,0 km/h (0 Bft) O 86 0 min 0,000 mm 0,0 UV-I 0 W/m 13,2 C 0,0 km/h (0 Bft)
26.08.2016 03:30 13,8 C 13,8 C 96 % 1016,5 hPa 0,0 mm 0,0 km/h (0 Bft) O 86 0 min 0,000 mm 0,0 UV-I 0 W/m 13,2 C 0,0 km/h (0 Bft)
26.08.2016 03:31 13,8 C 13,8 C 96 % 1016,5 hPa 0,0 mm 0,0 km/h (0 Bft) O 86 0 min 0,000 mm 0,0 UV-I 0 W/m 13,2 C 0,0 km/h (0 Bft)
26.08.2016 03:32 13,7 C 13,8 C 96 % 1016,5 hPa 0,0 mm 0,0 km/h (0 Bft) O 86 0 min 0,000 mm 0,0 UV-I 0 W/m 13,1 C 0,0 km/h (0 Bft)
26.08.2016 03:33 13,7 C 13,7 C 96 % 1016,5 hPa 0,0 mm 0,0 km/h (0 Bft) O 86 0 min 0,000 mm 0,0 UV-I 0 W/m 13,1 C 0,0 km/h (0 Bft)
26.08.2016 03:34 13,7 C 13,7 C 96 % 1016,5 hPa 0,0 mm 0,0 km/h (0 Bft) O 86 0 min 0,000 mm 0,0 UV-I 0 W/m 13,1 C 0,0 km/h (0 Bft)
26.08.2016 03:35 13,7 C 13,7 C 96 % 1016,5 hPa 0,0 mm 0,0 km/h (0 Bft) O 86 0 min 0,000 mm 0,0 UV-I 0 W/m 13,1 C 0,0 km/h (0 Bft)
26.08.2016 03:36 13,7 C 13,7 C 96 % 1016,5 hPa 0,0 mm 0,0 km/h (0 Bft) O 86 0 min 0,000 mm 0,0 UV-I 0 W/m 13,1 C 0,0 km/h (0 Bft)
26.08.2016 03:37 13,7 C 13,7 C 96 % 1016,6 hPa 0,0 mm 0,0 km/h (0 Bft) O 86 0 min 0,000 mm 0,0 UV-I 0 W/m 13,1 C 0,0 km/h (0 Bft)
26.08.2016 03:38 13,7 C 13,7 C 97 % 1016,6 hPa 0,0 mm 0,0 km/h (0 Bft) O 86 0 min 0,000 mm 0,0 UV-I 0 W/m 13,2 C 0,0 km/h (0 Bft)
26.08.2016 03:39 13,7 C 13,7 C 97 % 1016,6 hPa 0,0 mm 0,0 km/h (0 Bft) O 86 0 min 0,000 mm 0,0 UV-I 0 W/m 13,2 C 0,0 km/h (0 Bft)
26.08.2016 03:40 13,8 C 13,8 C 97 % 1016,6 hPa 0,0 mm 0,0 km/h (0 Bft) O 86 0 min 0,000 mm 0,0 UV-I 0 W/m 13,3 C 0,0 km/h (0 Bft)
26.08.2016 03:41 13,8 C 13,8 C 97 % 1016,6 hPa 0,0 mm 0,0 km/h (0 Bft) O 86 0 min 0,000 mm 0,0 UV-I 0 W/m 13,3 C 0,0 km/h (0 Bft)
26.08.2016 03:42 13,9 C 13,9 C 97 % 1016,6 hPa 0,0 mm 0,0 km/h (0 Bft) O 86 0 min 0,000 mm 0,0 UV-I 0 W/m 13,4 C 0,0 km/h (0 Bft)
26.08.2016 03:43 13,9 C 13,9 C 97 % 1016,7 hPa 0,0 mm 0,0 km/h (0 Bft) O 86 0 min 0,000 mm 0,0 UV-I 0 W/m 13,4 C 0,0 km/h (0 Bft)
26.08.2016 03:44 13,9 C 13,9 C 97 % 1016,7 hPa 0,0 mm 0,0 km/h (0 Bft) O 86 0 min 0,000 mm 0,0 UV-I 0 W/m 13,4 C 0,0 km/h (0 Bft)
26.08.2016 03:45 14,0 C 14,0 C 97 % 1016,7 hPa 0,0 mm 0,0 km/h (0 Bft) O 86 0 min 0,000 mm 0,0 UV-I 0 W/m 13,5 C 0,0 km/h (0 Bft)
26.08.2016 03:46 14,0 C 14,0 C 97 % 1016,6 hPa 0,0 mm 0,0 km/h (0 Bft) O 86 0 min 0,000 mm 0,0 UV-I 0 W/m 13,5 C 0,0 km/h (0 Bft)
26.08.2016 03:47 14,0 C 14,0 C 97 % 1016,7 hPa 0,0 mm 0,0 km/h (0 Bft) O 86 0 min 0,000 mm 0,0 UV-I 0 W/m 13,5 C 0,0 km/h (0 Bft)
26.08.2016 03:48 14,1 C 14,1 C 97 % 1016,7 hPa 0,0 mm 0,0 km/h (0 Bft) O 86 0 min 0,000 mm 0,0 UV-I 0 W/m 13,6 C 0,0 km/h (0 Bft)
26.08.2016 03:49 14,1 C 14,1 C 97 % 1016,7 hPa 0,0 mm 0,0 km/h (0 Bft) O 86 0 min 0,000 mm 0,0 UV-I 0 W/m 13,6 C 0,0 km/h (0 Bft)
26.08.2016 03:50 14,1 C 14,1 C 97 % 1016,7 hPa 0,0 mm 0,0 km/h (0 Bft) O 86 0 min 0,000 mm 0,0 UV-I 0 W/m 13,6 C 0,0 km/h (0 Bft)
26.08.2016 03:51 14,2 C 14,2 C 97 % 1016,7 hPa 0,0 mm 0,0 km/h (0 Bft) O 86 0 min 0,000 mm 0,0 UV-I 0 W/m 13,7 C 0,0 km/h (0 Bft)
26.08.2016 03:52 14,3 C 14,3 C 97 % 1016,7 hPa 0,0 mm 0,0 km/h (0 Bft) O 86 0 min 0,000 mm 0,0 UV-I 0 W/m 13,8 C 0,0 km/h (0 Bft)
26.08.2016 03:53 14,3 C 14,3 C 97 % 1016,7 hPa 0,0 mm 0,0 km/h (0 Bft) O 86 0 min 0,000 mm 0,0 UV-I 0 W/m 13,8 C 0,0 km/h (0 Bft)
26.08.2016 03:54 14,3 C 14,3 C 97 % 1016,6 hPa 0,0 mm 0,0 km/h (0 Bft) O 86 0 min 0,000 mm 0,0 UV-I 0 W/m 13,8 C 0,0 km/h (0 Bft)
26.08.2016 03:55 14,2 C 14,3 C 97 % 1016,6 hPa 0,0 mm 0,0 km/h (0 Bft) O 86 0 min 0,000 mm 0,0 UV-I 0 W/m 13,7 C 0,0 km/h (0 Bft)
26.08.2016 03:56 14,3 C 14,3 C 97 % 1016,6 hPa 0,0 mm 0,0 km/h (0 Bft) O 86 0 min 0,000 mm 0,0 UV-I 0 W/m 13,8 C 0,0 km/h (0 Bft)
26.08.2016 03:57 14,3 C 14,3 C 97 % 1016,6 hPa 0,0 mm 0,0 km/h (0 Bft) O 86 0 min 0,000 mm 0,0 UV-I 0 W/m 13,8 C 0,0 km/h (0 Bft)
26.08.2016 03:58 14,3 C 14,3 C 97 % 1016,6 hPa 0,0 mm 0,0 km/h (0 Bft) O 86 0 min 0,000 mm 0,0 UV-I 0 W/m 13,8 C 0,0 km/h (0 Bft)
26.08.2016 03:59 14,2 C 14,3 C 97 % 1016,6 hPa 0,0 mm 0,0 km/h (0 Bft) O 86 0 min 0,000 mm 0,0 UV-I 0 W/m 13,7 C 0,0 km/h (0 Bft)
26.08.2016 04:00 14,2 C 14,2 C 97 % 1016,6 hPa 0,0 mm 0,0 km/h (0 Bft) O 86 0 min 0,000 mm 0,0 UV-I 0 W/m 13,7 C 0,0 km/h (0 Bft)
26.08.2016 04:02 14,2 C 14,2 C 97 % 1016,7 hPa 0,0 mm 0,0 km/h (0 Bft) O 86 0 min 0,000 mm 0,0 UV-I 0 W/m 13,7 C 0,0 km/h (0 Bft)
26.08.2016 04:03 14,2 C 14,2 C 97 % 1016,7 hPa 0,0 mm 0,0 km/h (0 Bft) O 86 0 min 0,000 mm 0,0 UV-I 0 W/m 13,7 C 0,0 km/h (0 Bft)
26.08.2016 04:04 14,2 C 14,2 C 97 % 1016,6 hPa 0,0 mm 0,0 km/h (0 Bft) O 86 0 min 0,000 mm 0,0 UV-I 0 W/m 13,7 C 0,0 km/h (0 Bft)
26.08.2016 04:05 14,2 C 14,2 C 97 % 1016,7 hPa 0,0 mm 0,0 km/h (0 Bft) O 86 0 min 0,000 mm 0,0 UV-I 0 W/m 13,7 C 0,0 km/h (0 Bft)
26.08.2016 04:06 14,2 C 14,2 C 97 % 1016,7 hPa 0,0 mm 0,0 km/h (0 Bft) O 86 0 min 0,000 mm 0,0 UV-I 0 W/m 13,7 C 0,0 km/h (0 Bft)
26.08.2016 04:07 14,3 C 14,3 C 97 % 1016,6 hPa 0,0 mm 0,0 km/h (0 Bft) O 86 0 min 0,000 mm 0,0 UV-I 0 W/m 13,8 C 0,0 km/h (0 Bft)
26.08.2016 04:08 14,3 C 14,3 C 97 % 1016,7 hPa 0,0 mm 0,0 km/h (0 Bft) O 86 0 min 0,000 mm 0,0 UV-I 0 W/m 13,8 C 0,0 km/h (0 Bft)
26.08.2016 04:09 14,3 C 14,3 C 97 % 1016,7 hPa 0,0 mm 0,0 km/h (0 Bft) O 86 0 min 0,000 mm 0,0 UV-I 0 W/m 13,8 C 0,0 km/h (0 Bft)
26.08.2016 04:10 14,3 C 14,3 C 97 % 1016,8 hPa 0,0 mm 0,0 km/h (0 Bft) O 86 0 min 0,000 mm 0,0 UV-I 0 W/m 13,8 C 0,0 km/h (0 Bft)
26.08.2016 04:11 14,3 C 14,3 C 97 % 1016,7 hPa 0,0 mm 0,0 km/h (0 Bft) O 86 0 min 0,000 mm 0,0 UV-I 0 W/m 13,8 C 0,0 km/h (0 Bft)
26.08.2016 04:12 14,2 C 14,3 C 97 % 1016,6 hPa 0,0 mm 0,0 km/h (0 Bft) O 86 0 min 0,000 mm 0,0 UV-I 0 W/m 13,7 C 0,0 km/h (0 Bft)
26.08.2016 04:13 14,2 C 14,2 C 97 % 1016,6 hPa 0,0 mm 0,0 km/h (0 Bft) O 86 0 min 0,000 mm 0,0 UV-I 0 W/m 13,7 C 0,0 km/h (0 Bft)
26.08.2016 04:14 14,1 C 14,2 C 96 % 1016,6 hPa 0,0 mm 0,0 km/h (0 Bft) O 86 0 min 0,000 mm 0,0 UV-I 0 W/m 13,5 C 0,0 km/h (0 Bft)
26.08.2016 04:15 14,1 C 14,1 C 96 % 1016,7 hPa 0,0 mm 0,6 km/h (0 Bft) O 86 0 min 0,000 mm 0,0 UV-I 0 W/m 13,5 C 3,2 km/h (1 Bft)
26.08.2016 04:16 14,1 C 14,1 C 97 % 1016,7 hPa 0,0 mm 1,3 km/h (1 Bft) O 86 0 min 0,000 mm 0,0 UV-I 0 W/m 13,6 C 1,6 km/h (1 Bft)
26.08.2016 04:17 14,1 C 14,1 C 97 % 1016,6 hPa 0,0 mm 0,9 km/h (0 Bft) O 86 0 min 0,000 mm 0,0 UV-I 0 W/m 13,6 C 1,6 km/h (1 Bft)
26.08.2016 04:18 14,2 C 14,2 C 97 % 1016,6 hPa 0,0 mm 0,1 km/h (0 Bft) O 86 0 min 0,000 mm 0,0 UV-I 0 W/m 13,7 C 1,6 km/h (1 Bft)
26.08.2016 04:19 14,3 C 14,3 C 97 % 1016,6 hPa 0,0 mm 0,0 km/h (0 Bft) O 86 0 min 0,000 mm 0,0 UV-I 0 W/m 13,8 C 0,0 km/h (0 Bft)
26.08.2016 04:20 14,3 C 14,3 C 97 % 1016,6 hPa 0,0 mm 0,0 km/h (0 Bft) O 86 0 min 0,000 mm 0,0 UV-I 0 W/m 13,8 C 0,0 km/h (0 Bft)
26.08.2016 04:21 14,3 C 14,3 C 97 % 1016,7 hPa 0,0 mm 0,0 km/h (0 Bft) O 86 0 min 0,000 mm 0,0 UV-I 0 W/m 13,8 C 0,0 km/h (0 Bft)
26.08.2016 04:22 14,3 C 14,3 C 97 % 1016,7 hPa 0,0 mm 0,3 km/h (0 Bft) O 86 0 min 0,000 mm 0,0 UV-I 0 W/m 13,8 C 1,6 km/h (1 Bft)
26.08.2016 04:23 14,4 C 14,4 C 97 % 1016,7 hPa 0,0 mm 0,3 km/h (0 Bft) O 86 0 min 0,000 mm 0,0 UV-I 0 W/m 13,9 C 1,6 km/h (1 Bft)
26.08.2016 04:24 14,4 C 14,4 C 97 % 1016,7 hPa 0,0 mm 0,0 km/h (0 Bft) O 86 0 min 0,000 mm 0,0 UV-I 0 W/m 13,9 C 0,0 km/h (0 Bft)
26.08.2016 04:25 14,4 C 14,4 C 97 % 1016,7 hPa 0,0 mm 0,0 km/h (0 Bft) O 86 0 min 0,000 mm 0,0 UV-I 0 W/m 13,9 C 0,0 km/h (0 Bft)
26.08.2016 04:26 14,4 C 14,4 C 97 % 1016,7 hPa 0,0 mm 0,0 km/h (0 Bft) O 86 0 min 0,000 mm 0,0 UV-I 0 W/m 13,9 C 0,0 km/h (0 Bft)
26.08.2016 04:27 14,4 C 14,4 C 97 % 1016,6 hPa 0,0 mm 0,0 km/h (0 Bft) O 86 0 min 0,000 mm 0,0 UV-I 0 W/m 13,9 C 0,0 km/h (0 Bft)
26.08.2016 04:28 14,4 C 14,4 C 97 % 1016,6 hPa 0,0 mm 0,0 km/h (0 Bft) O 86 0 min 0,000 mm 0,0 UV-I 0 W/m 13,9 C 0,0 km/h (0 Bft)
26.08.2016 04:29 14,4 C 14,4 C 97 % 1016,6 hPa 0,0 mm 0,0 km/h (0 Bft) O 86 0 min 0,000 mm 0,0 UV-I 0 W/m 13,9 C 0,0 km/h (0 Bft)
26.08.2016 04:30 14,3 C 14,4 C 97 % 1016,6 hPa 0,0 mm 0,0 km/h (0 Bft) O 86 0 min 0,000 mm 0,0 UV-I 0 W/m 13,8 C 0,0 km/h (0 Bft)
26.08.2016 04:31 14,3 C 14,3 C 97 % 1016,6 hPa 0,0 mm 0,0 km/h (0 Bft) O 86 0 min 0,000 mm 0,0 UV-I 0 W/m 13,8 C 0,0 km/h (0 Bft)
26.08.2016 04:32 14,3 C 14,3 C 97 % 1016,6 hPa 0,0 mm 0,0 km/h (0 Bft) O 86 0 min 0,000 mm 0,0 UV-I 0 W/m 13,8 C 0,0 km/h (0 Bft)
26.08.2016 04:33 14,3 C 14,3 C 97 % 1016,6 hPa 0,0 mm 0,0 km/h (0 Bft) O 86 0 min 0,000 mm 0,0 UV-I 0 W/m 13,8 C 0,0 km/h (0 Bft)
26.08.2016 04:34 14,2 C 14,3 C 97 % 1016,6 hPa 0,0 mm 0,0 km/h (0 Bft) O 86 0 min 0,000 mm 0,0 UV-I 0 W/m 13,7 C 0,0 km/h (0 Bft)
26.08.2016 04:35 14,2 C 14,2 C 97 % 1016,6 hPa 0,0 mm 0,0 km/h (0 Bft) O 86 0 min 0,000 mm 0,0 UV-I 0 W/m 13,7 C 0,0 km/h (0 Bft)
26.08.2016 04:36 14,2 C 14,2 C 97 % 1016,6 hPa 0,0 mm 0,0 km/h (0 Bft) O 86 0 min 0,000 mm 0,0 UV-I 0 W/m 13,7 C 0,0 km/h (0 Bft)
26.08.2016 04:37 14,2 C 14,3 C 97 % 1016,6 hPa 0,0 mm 0,0 km/h (0 Bft) O 86 0 min 0,000 mm 0,0 UV-I 0 W/m 13,7 C 0,0 km/h (0 Bft)
26.08.2016 04:38 14,2 C 14,3 C 97 % 1016,6 hPa 0,0 mm 0,0 km/h (0 Bft) O 86 0 min 0,000 mm 0,0 UV-I 0 W/m 13,7 C 0,0 km/h (0 Bft)
26.08.2016 04:39 14,3 C 14,3 C 97 % 1016,6 hPa 0,0 mm 0,0 km/h (0 Bft) O 86 0 min 0,000 mm 0,0 UV-I 0 W/m 13,8 C 0,0 km/h (0 Bft)
26.08.2016 04:40 14,3 C 14,3 C 97 % 1016,6 hPa 0,0 mm 0,0 km/h (0 Bft) O 86 0 min 0,000 mm 0,0 UV-I 0 W/m 13,8 C 0,0 km/h (0 Bft)
26.08.2016 04:41 14,2 C 14,3 C 97 % 1016,6 hPa 0,0 mm 0,0 km/h (0 Bft) O 86 0 min 0,000 mm 0,0 UV-I 0 W/m 13,7 C 0,0 km/h (0 Bft)
26.08.2016 04:42 14,2 C 14,2 C 97 % 1016,6 hPa 0,0 mm 0,0 km/h (0 Bft) O 86 0 min 0,000 mm 0,0 UV-I 0 W/m 13,7 C 0,0 km/h (0 Bft)
26.08.2016 04:43 14,2 C 14,2 C 97 % 1016,6 hPa 0,0 mm 0,0 km/h (0 Bft) O 86 0 min 0,000 mm 0,0 UV-I 0 W/m 13,7 C 0,0 km/h (0 Bft)
26.08.2016 04:44 14,2 C 14,2 C 97 % 1016,6 hPa 0,0 mm 0,0 km/h (0 Bft) O 86 0 min 0,000 mm 0,0 UV-I 0 W/m 13,7 C 0,0 km/h (0 Bft)
26.08.2016 04:45 14,1 C 14,2 C 97 % 1016,6 hPa 0,0 mm 0,0 km/h (0 Bft) O 86 0 min 0,000 mm 0,0 UV-I 0 W/m 13,6 C 0,0 km/h (0 Bft)
26.08.2016 04:46 14,1 C 14,1 C 97 % 1016,6 hPa 0,0 mm 0,0 km/h (0 Bft) O 86 0 min 0,000 mm 0,0 UV-I 0 W/m 13,6 C 0,0 km/h (0 Bft)
26.08.2016 04:47 14,1 C 14,1 C 97 % 1016,6 hPa 0,0 mm 0,0 km/h (0 Bft) O 86 0 min 0,000 mm 0,0 UV-I 0 W/m 13,6 C 0,0 km/h (0 Bft)
26.08.2016 04:48 14,2 C 14,2 C 97 % 1016,6 hPa 0,0 mm 0,0 km/h (0 Bft) O 86 0 min 0,000 mm 0,0 UV-I 0 W/m 13,7 C 0,0 km/h (0 Bft)
26.08.2016 04:49 14,2 C 14,2 C 97 % 1016,6 hPa 0,0 mm 0,0 km/h (0 Bft) O 86 0 min 0,000 mm 0,0 UV-I 0 W/m 13,7 C 0,0 km/h (0 Bft)
26.08.2016 04:50 14,3 C 14,3 C 97 % 1016,6 hPa 0,0 mm 0,0 km/h (0 Bft) O 86 0 min 0,000 mm 0,0 UV-I 0 W/m 13,8 C 0,0 km/h (0 Bft)
26.08.2016 04:51 14,2 C 14,3 C 97 % 1016,6 hPa 0,0 mm 0,0 km/h (0 Bft) O 86 0 min 0,000 mm 0,0 UV-I 0 W/m 13,7 C 0,0 km/h (0 Bft)
26.08.2016 04:52 14,2 C 14,2 C 97 % 1016,6 hPa 0,0 mm 0,0 km/h (0 Bft) O 86 0 min 0,000 mm 0,0 UV-I 0 W/m 13,7 C 0,0 km/h (0 Bft)
26.08.2016 04:53 14,2 C 14,2 C 97 % 1016,6 hPa 0,0 mm 0,0 km/h (0 Bft) O 86 0 min 0,000 mm 0,0 UV-I 0 W/m 13,7 C 0,0 km/h (0 Bft)
26.08.2016 04:54 14,1 C 14,2 C 97 % 1016,6 hPa 0,0 mm 0,0 km/h (0 Bft) O 86 0 min 0,000 mm 0,0 UV-I 0 W/m 13,6 C 0,0 km/h (0 Bft)
26.08.2016 04:55 14,2 C 14,2 C 97 % 1016,6 hPa 0,0 mm 0,0 km/h (0 Bft) O 86 0 min 0,000 mm 0,0 UV-I 0 W/m 13,7 C 0,0 km/h (0 Bft)
26.08.2016 04:56 14,2 C 14,2 C 97 % 1016,6 hPa 0,0 mm 0,0 km/h (0 Bft) O 86 0 min 0,000 mm 0,0 UV-I 0 W/m 13,7 C 0,0 km/h (0 Bft)
26.08.2016 04:57 14,3 C 14,3 C 97 % 1016,7 hPa 0,0 mm 0,0 km/h (0 Bft) O 86 0 min 0,000 mm 0,0 UV-I 0 W/m 13,8 C 0,0 km/h (0 Bft)
26.08.2016 04:58 14,3 C 14,3 C 97 % 1016,7 hPa 0,0 mm 0,0 km/h (0 Bft) O 86 0 min 0,000 mm 0,0 UV-I 0 W/m 13,8 C 0,0 km/h (0 Bft)
26.08.2016 04:59 14,3 C 14,3 C 97 % 1016,7 hPa 0,0 mm 0,0 km/h (0 Bft) O 86 0 min 0,000 mm 0,0 UV-I 0 W/m 13,8 C 0,0 km/h (0 Bft)
26.08.2016 05:00 14,2 C 14,3 C 97 % 1016,7 hPa 0,0 mm 0,0 km/h (0 Bft) O 86 0 min 0,000 mm 0,0 UV-I 0 W/m 13,7 C 0,0 km/h (0 Bft)
26.08.2016 05:01 14,2 C 14,2 C 97 % 1016,7 hPa 0,0 mm 0,0 km/h (0 Bft) O 86 0 min 0,000 mm 0,0 UV-I 0 W/m 13,7 C 0,0 km/h (0 Bft)
26.08.2016 05:02 14,2 C 14,2 C 97 % 1016,7 hPa 0,0 mm 0,0 km/h (0 Bft) O 86 0 min 0,000 mm 0,0 UV-I 0 W/m 13,7 C 0,0 km/h (0 Bft)
26.08.2016 05:03 14,2 C 14,2 C 97 % 1016,7 hPa 0,0 mm 0,0 km/h (0 Bft) O 86 0 min 0,000 mm 0,0 UV-I 0 W/m 13,7 C 0,0 km/h (0 Bft)
26.08.2016 05:04 14,2 C 14,2 C 97 % 1016,7 hPa 0,0 mm 0,0 km/h (0 Bft) O 86 0 min 0,000 mm 0,0 UV-I 0 W/m 13,7 C 0,0 km/h (0 Bft)
26.08.2016 05:05 14,3 C 14,3 C 97 % 1016,7 hPa 0,0 mm 0,0 km/h (0 Bft) O 86 0 min 0,000 mm 0,0 UV-I 0 W/m 13,8 C 0,0 km/h (0 Bft)
26.08.2016 05:06 14,3 C 14,3 C 97 % 1016,7 hPa 0,0 mm 0,0 km/h (0 Bft) O 86 0 min 0,000 mm 0,0 UV-I 0 W/m 13,8 C 0,0 km/h (0 Bft)
26.08.2016 05:07 14,3 C 14,3 C 97 % 1016,8 hPa 0,0 mm 0,0 km/h (0 Bft) O 86 0 min 0,000 mm 0,0 UV-I 0 W/m 13,8 C 0,0 km/h (0 Bft)
26.08.2016 05:08 14,3 C 14,3 C 97 % 1016,8 hPa 0,0 mm 0,0 km/h (0 Bft) O 86 0 min 0,000 mm 0,0 UV-I 0 W/m 13,8 C 0,0 km/h (0 Bft)
26.08.2016 05:09 14,3 C 14,3 C 97 % 1016,8 hPa 0,0 mm 0,0 km/h (0 Bft) O 86 0 min 0,000 mm 0,0 UV-I 0 W/m 13,8 C 0,0 km/h (0 Bft)
26.08.2016 05:10 14,3 C 14,3 C 97 % 1016,7 hPa 0,0 mm 0,0 km/h (0 Bft) O 86 0 min 0,000 mm 0,0 UV-I 0 W/m 13,8 C 0,0 km/h (0 Bft)
26.08.2016 05:11 14,4 C 14,4 C 97 % 1016,8 hPa 0,0 mm 0,0 km/h (0 Bft) O 86 0 min 0,000 mm 0,0 UV-I 0 W/m 13,9 C 0,0 km/h (0 Bft)
26.08.2016 05:12 14,4 C 14,4 C 97 % 1016,8 hPa 0,0 mm 0,0 km/h (0 Bft) O 86 0 min 0,000 mm 0,0 UV-I 0 W/m 13,9 C 0,0 km/h (0 Bft)
26.08.2016 05:13 14,4 C 14,4 C 97 % 1016,8 hPa 0,0 mm 0,0 km/h (0 Bft) O 86 0 min 0,000 mm 0,0 UV-I 0 W/m 13,9 C 0,0 km/h (0 Bft)
26.08.2016 05:14 14,3 C 14,4 C 97 % 1016,8 hPa 0,0 mm 0,0 km/h (0 Bft) O 86 0 min 0,000 mm 0,0 UV-I 0 W/m 13,8 C 0,0 km/h (0 Bft)
26.08.2016 05:15 14,2 C 14,3 C 97 % 1016,8 hPa 0,0 mm 0,0 km/h (0 Bft) O 86 0 min 0,000 mm 0,0 UV-I 0 W/m 13,7 C 0,0 km/h (0 Bft)
26.08.2016 05:16 14,2 C 14,2 C 97 % 1016,8 hPa 0,0 mm 0,0 km/h (0 Bft) O 86 0 min 0,000 mm 0,0 UV-I 0 W/m 13,7 C 0,0 km/h (0 Bft)
26.08.2016 05:17 14,1 C 14,2 C 97 % 1016,8 hPa 0,0 mm 0,0 km/h (0 Bft) O 86 0 min 0,000 mm 0,0 UV-I 0 W/m 13,6 C 0,0 km/h (0 Bft)
26.08.2016 05:18 14,1 C 14,1 C 97 % 1016,8 hPa 0,0 mm 0,0 km/h (0 Bft) O 86 0 min 0,000 mm 0,0 UV-I 0 W/m 13,6 C 0,0 km/h (0 Bft)
26.08.2016 05:19 14,2 C 14,2 C 97 % 1016,8 hPa 0,0 mm 0,0 km/h (0 Bft) O 86 0 min 0,000 mm 0,0 UV-I 0 W/m 13,7 C 0,0 km/h (0 Bft)
26.08.2016 05:20 14,2 C 14,2 C 97 % 1016,8 hPa 0,0 mm 0,0 km/h (0 Bft) O 86 0 min 0,000 mm 0,0 UV-I 0 W/m 13,7 C 0,0 km/h (0 Bft)
26.08.2016 05:21 14,2 C 14,2 C 97 % 1016,8 hPa 0,0 mm 0,0 km/h (0 Bft) O 86 0 min 0,000 mm 0,0 UV-I 0 W/m 13,7 C 0,0 km/h (0 Bft)
26.08.2016 05:22 14,2 C 14,2 C 97 % 1016,7 hPa 0,0 mm 0,0 km/h (0 Bft) O 86 0 min 0,000 mm 0,0 UV-I 0 W/m 13,7 C 0,0 km/h (0 Bft)
26.08.2016 05:23 14,2 C 14,2 C 97 % 1016,7 hPa 0,0 mm 0,0 km/h (0 Bft) O 86 0 min 0,000 mm 0,0 UV-I 0 W/m 13,7 C 0,0 km/h (0 Bft)
26.08.2016 05:24 14,2 C 14,3 C 97 % 1016,8 hPa 0,0 mm 0,0 km/h (0 Bft) O 86 0 min 0,000 mm 0,0 UV-I 0 W/m 13,7 C 0,0 km/h (0 Bft)
26.08.2016 05:25 14,2 C 14,2 C 97 % 1016,7 hPa 0,0 mm 0,0 km/h (0 Bft) O 86 0 min 0,000 mm 0,0 UV-I 0 W/m 13,7 C 0,0 km/h (0 Bft)
26.08.2016 05:26 14,2 C 14,2 C 97 % 1016,7 hPa 0,0 mm 0,0 km/h (0 Bft) O 86 0 min 0,000 mm 0,0 UV-I 0 W/m 13,7 C 0,0 km/h (0 Bft)
26.08.2016 05:27 14,1 C 14,2 C 97 % 1016,7 hPa 0,0 mm 0,0 km/h (0 Bft) O 86 0 min 0,000 mm 0,0 UV-I 0 W/m 13,6 C 0,0 km/h (0 Bft)
26.08.2016 05:28 14,2 C 14,2 C 97 % 1016,7 hPa 0,0 mm 0,0 km/h (0 Bft) O 86 0 min 0,000 mm 0,0 UV-I 0 W/m 13,7 C 0,0 km/h (0 Bft)
26.08.2016 05:29 14,2 C 14,2 C 97 % 1016,7 hPa 0,0 mm 0,0 km/h (0 Bft) O 86 0 min 0,000 mm 0,0 UV-I 0 W/m 13,7 C 0,0 km/h (0 Bft)
26.08.2016 05:30 14,3 C 14,3 C 97 % 1016,7 hPa 0,0 mm 0,0 km/h (0 Bft) O 86 0 min 0,000 mm 0,0 UV-I 0 W/m 13,8 C 0,0 km/h (0 Bft)
26.08.2016 05:31 14,3 C 14,3 C 97 % 1016,6 hPa 0,0 mm 0,0 km/h (0 Bft) O 86 0 min 0,000 mm 0,0 UV-I 0 W/m 13,8 C 0,0 km/h (0 Bft)
26.08.2016 05:32 14,3 C 14,4 C 97 % 1016,7 hPa 0,0 mm 0,1 km/h (0 Bft) O 86 0 min 0,000 mm 0,0 UV-I 0 W/m 13,8 C 1,6 km/h (1 Bft)
26.08.2016 05:33 14,3 C 14,3 C 97 % 1016,7 hPa 0,0 mm 0,2 km/h (0 Bft) O 86 0 min 0,000 mm 0,0 UV-I 0 W/m 13,8 C 1,6 km/h (1 Bft)
26.08.2016 05:34 14,3 C 14,3 C 97 % 1016,7 hPa 0,0 mm 0,0 km/h (0 Bft) O 86 0 min 0,000 mm 0,0 UV-I 0 W/m 13,8 C 0,0 km/h (0 Bft)
26.08.2016 05:35 14,4 C 14,4 C 97 % 1016,7 hPa 0,0 mm 0,0 km/h (0 Bft) O 86 0 min 0,000 mm 0,0 UV-I 0 W/m 13,9 C 0,0 km/h (0 Bft)
26.08.2016 05:36 14,3 C 14,4 C 97 % 1016,7 hPa 0,0 mm 0,0 km/h (0 Bft) O 86 0 min 0,000 mm 0,0 UV-I 0 W/m 13,8 C 0,0 km/h (0 Bft)
26.08.2016 05:37 14,3 C 14,3 C 97 % 1016,7 hPa 0,0 mm 0,0 km/h (0 Bft) O 86 0 min 0,000 mm 0,0 UV-I 0 W/m 13,8 C 0,0 km/h (0 Bft)
26.08.2016 05:38 14,3 C 14,3 C 97 % 1016,7 hPa 0,0 mm 0,0 km/h (0 Bft) O 86 0 min 0,000 mm 0,0 UV-I 0 W/m 13,8 C 0,0 km/h (0 Bft)
26.08.2016 05:39 14,3 C 14,3 C 97 % 1016,7 hPa 0,0 mm 0,0 km/h (0 Bft) O 86 0 min 0,000 mm 0,0 UV-I 0 W/m 13,8 C 0,0 km/h (0 Bft)
26.08.2016 05:40 14,4 C 14,4 C 97 % 1016,7 hPa 0,0 mm 0,0 km/h (0 Bft) O 86 0 min 0,000 mm 0,0 UV-I 0 W/m 13,9 C 0,0 km/h (0 Bft)
26.08.2016 05:41 14,4 C 14,4 C 97 % 1016,8 hPa 0,0 mm 0,0 km/h (0 Bft) O 86 0 min 0,000 mm 0,0 UV-I 0 W/m 13,9 C 0,0 km/h (0 Bft)
26.08.2016 05:42 14,5 C 14,5 C 97 % 1016,8 hPa 0,0 mm 0,0 km/h (0 Bft) O 86 0 min 0,000 mm 0,0 UV-I 0 W/m 14,0 C 0,0 km/h (0 Bft)
26.08.2016 05:43 14,5 C 14,5 C 97 % 1016,8 hPa 0,0 mm 0,0 km/h (0 Bft) O 86 0 min 0,000 mm 0,0 UV-I 0 W/m 14,0 C 0,0 km/h (0 Bft)
26.08.2016 05:44 14,6 C 14,6 C 97 % 1016,8 hPa 0,0 mm 0,0 km/h (0 Bft) O 86 0 min 0,000 mm 0,0 UV-I 0 W/m 14,1 C 0,0 km/h (0 Bft)
26.08.2016 05:45 14,7 C 14,7 C 97 % 1016,8 hPa 0,0 mm 0,0 km/h (0 Bft) O 86 0 min 0,000 mm 0,0 UV-I 0 W/m 14,2 C 0,0 km/h (0 Bft)
26.08.2016 05:46 14,7 C 14,7 C 97 % 1016,8 hPa 0,0 mm 0,0 km/h (0 Bft) O 86 0 min 0,000 mm 0,0 UV-I 0 W/m 14,2 C 0,0 km/h (0 Bft)
26.08.2016 05:47 14,7 C 14,7 C 97 % 1016,8 hPa 0,0 mm 0,0 km/h (0 Bft) O 86 0 min 0,000 mm 0,0 UV-I 0 W/m 14,2 C 0,0 km/h (0 Bft)
26.08.2016 05:48 14,7 C 14,7 C 97 % 1016,8 hPa 0,0 mm 0,0 km/h (0 Bft) O 86 0 min 0,000 mm 0,0 UV-I 0 W/m 14,2 C 0,0 km/h (0 Bft)
26.08.2016 05:49 14,7 C 14,7 C 97 % 1016,8 hPa 0,0 mm 0,0 km/h (0 Bft) O 86 0 min 0,000 mm 0,0 UV-I 0 W/m 14,2 C 0,0 km/h (0 Bft)
26.08.2016 05:50 14,6 C 14,7 C 97 % 1016,8 hPa 0,0 mm 0,0 km/h (0 Bft) O 86 0 min 0,000 mm 0,0 UV-I 0 W/m 14,1 C 0,0 km/h (0 Bft)
26.08.2016 05:51 14,4 C 14,6 C 97 % 1016,8 hPa 0,0 mm 0,0 km/h (0 Bft) O 86 0 min 0,000 mm 0,0 UV-I 0 W/m 13,9 C 0,0 km/h (0 Bft)
26.08.2016 05:52 14,3 C 14,4 C 97 % 1016,8 hPa 0,0 mm 0,0 km/h (0 Bft) O 86 0 min 0,000 mm 0,0 UV-I 0 W/m 13,8 C 0,0 km/h (0 Bft)
26.08.2016 05:53 14,4 C 14,4 C 97 % 1016,8 hPa 0,0 mm 0,0 km/h (0 Bft) O 86 0 min 0,000 mm 0,0 UV-I 0 W/m 13,9 C 0,0 km/h (0 Bft)
26.08.2016 05:54 14,5 C 14,5 C 97 % 1016,8 hPa 0,0 mm 0,0 km/h (0 Bft) O 86 0 min 0,000 mm 0,0 UV-I 0 W/m 14,0 C 0,0 km/h (0 Bft)
26.08.2016 05:55 14,6 C 14,6 C 97 % 1016,8 hPa 0,0 mm 0,0 km/h (0 Bft) O 86 0 min 0,000 mm 0,0 UV-I 0 W/m 14,1 C 0,0 km/h (0 Bft)
26.08.2016 05:56 14,6 C 14,6 C 97 % 1016,8 hPa 0,0 mm 0,0 km/h (0 Bft) O 86 0 min 0,000 mm 0,0 UV-I 0 W/m 14,1 C 0,0 km/h (0 Bft)
26.08.2016 05:57 14,7 C 14,7 C 97 % 1016,8 hPa 0,0 mm 0,0 km/h (0 Bft) O 86 0 min 0,000 mm 0,0 UV-I 0 W/m 14,2 C 0,0 km/h (0 Bft)
26.08.2016 05:58 14,7 C 14,7 C 97 % 1016,8 hPa 0,0 mm 0,0 km/h (0 Bft) O 86 0 min 0,000 mm 0,0 UV-I 0 W/m 14,2 C 0,0 km/h (0 Bft)
26.08.2016 05:59 14,7 C 14,7 C 97 % 1016,8 hPa 0,0 mm 0,0 km/h (0 Bft) O 86 0 min 0,000 mm 0,0 UV-I 0 W/m 14,2 C 0,0 km/h (0 Bft)
26.08.2016 06:00 14,6 C 14,7 C 97 % 1016,8 hPa 0,0 mm 0,0 km/h (0 Bft) O 86 0 min 0,000 mm 0,0 UV-I 0 W/m 14,1 C 0,0 km/h (0 Bft)
26.08.2016 06:01 14,6 C 14,6 C 97 % 1016,8 hPa 0,0 mm 0,0 km/h (0 Bft) O 86 0 min 0,000 mm 0,0 UV-I 0 W/m 14,1 C 0,0 km/h (0 Bft)
26.08.2016 06:02 14,6 C 14,6 C 97 % 1016,8 hPa 0,0 mm 0,0 km/h (0 Bft) O 86 0 min 0,000 mm 0,0 UV-I 0 W/m 14,1 C 0,0 km/h (0 Bft)
26.08.2016 06:03 14,7 C 14,7 C 97 % 1016,8 hPa 0,0 mm 0,0 km/h (0 Bft) O 86 0 min 0,000 mm 0,0 UV-I 0 W/m 14,2 C 0,0 km/h (0 Bft)
26.08.2016 06:04 14,7 C 14,7 C 97 % 1016,8 hPa 0,0 mm 0,0 km/h (0 Bft) O 86 0 min 0,000 mm 0,0 UV-I 0 W/m 14,2 C 0,0 km/h (0 Bft)
26.08.2016 06:05 14,8 C 14,8 C 97 % 1016,8 hPa 0,0 mm 0,0 km/h (0 Bft) O 86 0 min 0,000 mm 0,0 UV-I 0 W/m 14,3 C 0,0 km/h (0 Bft)
26.08.2016 06:06 14,8 C 14,8 C 97 % 1016,8 hPa 0,0 mm 0,0 km/h (0 Bft) O 86 0 min 0,000 mm 0,0 UV-I 0 W/m 14,3 C 0,0 km/h (0 Bft)
26.08.2016 06:07 14,8 C 14,9 C 97 % 1016,8 hPa 0,0 mm 0,0 km/h (0 Bft) O 86 0 min 0,000 mm 0,0 UV-I 0 W/m 14,3 C 0,0 km/h (0 Bft)
26.08.2016 06:08 14,8 C 14,8 C 97 % 1016,8 hPa 0,0 mm 0,0 km/h (0 Bft) O 86 0 min 0,000 mm 0,0 UV-I 0 W/m 14,3 C 0,0 km/h (0 Bft)
26.08.2016 06:09 14,7 C 14,8 C 97 % 1016,8 hPa 0,0 mm 0,0 km/h (0 Bft) O 86 0 min 0,000 mm 0,0 UV-I 0 W/m 14,2 C 0,0 km/h (0 Bft)
26.08.2016 06:10 14,7 C 14,7 C 97 % 1016,8 hPa 0,0 mm 0,0 km/h (0 Bft) O 86 0 min 0,000 mm 0,0 UV-I 0 W/m 14,2 C 0,0 km/h (0 Bft)
26.08.2016 06:11 14,8 C 14,8 C 97 % 1016,9 hPa 0,0 mm 0,0 km/h (0 Bft) O 86 0 min 0,000 mm 0,0 UV-I 0 W/m 14,3 C 0,0 km/h (0 Bft)
26.08.2016 06:12 14,8 C 14,8 C 97 % 1016,9 hPa 0,0 mm 0,0 km/h (0 Bft) O 86 0 min 0,000 mm 0,0 UV-I 0 W/m 14,3 C 0,0 km/h (0 Bft)
26.08.2016 06:13 14,8 C 14,8 C 97 % 1016,9 hPa 0,0 mm 0,0 km/h (0 Bft) O 86 0 min 0,000 mm 0,0 UV-I 0 W/m 14,3 C 0,0 km/h (0 Bft)
26.08.2016 06:14 14,8 C 14,9 C 97 % 1016,9 hPa 0,0 mm 0,0 km/h (0 Bft) O 86 0 min 0,000 mm 0,0 UV-I 0 W/m 14,3 C 0,0 km/h (0 Bft)
26.08.2016 06:15 14,9 C 14,9 C 97 % 1016,9 hPa 0,0 mm 0,0 km/h (0 Bft) O 86 0 min 0,000 mm 0,0 UV-I 0 W/m 14,4 C 0,0 km/h (0 Bft)
26.08.2016 06:16 14,9 C 14,9 C 97 % 1016,9 hPa 0,0 mm 0,0 km/h (0 Bft) O 86 0 min 0,000 mm 0,0 UV-I 0 W/m 14,4 C 0,0 km/h (0 Bft)
26.08.2016 06:17 14,8 C 14,9 C 97 % 1016,9 hPa 0,0 mm 0,0 km/h (0 Bft) O 86 0 min 0,000 mm 0,0 UV-I 0 W/m 14,3 C 0,0 km/h (0 Bft)
26.08.2016 06:18 14,6 C 14,8 C 97 % 1017,0 hPa 0,0 mm 0,0 km/h (0 Bft) O 86 0 min 0,000 mm 0,0 UV-I 0 W/m 14,1 C 0,0 km/h (0 Bft)
26.08.2016 06:19 14,5 C 14,6 C 97 % 1016,9 hPa 0,0 mm 0,0 km/h (0 Bft) O 86 0 min 0,000 mm 0,0 UV-I 0 W/m 14,0 C 0,0 km/h (0 Bft)
26.08.2016 06:20 14,5 C 14,6 C 97 % 1016,9 hPa 0,0 mm 0,0 km/h (0 Bft) O 86 0 min 0,000 mm 0,0 UV-I 0 W/m 14,0 C 0,0 km/h (0 Bft)
26.08.2016 06:21 14,6 C 14,6 C 97 % 1016,9 hPa 0,0 mm 0,5 km/h (0 Bft) O 86 0 min 0,000 mm 0,0 UV-I 0 W/m 14,1 C 1,6 km/h (1 Bft)
26.08.2016 06:22 14,6 C 14,6 C 97 % 1016,9 hPa 0,0 mm 0,1 km/h (0 Bft) O 86 0 min 0,000 mm 0,0 UV-I 0 W/m 14,1 C 1,6 km/h (1 Bft)
26.08.2016 06:23 14,7 C 14,7 C 97 % 1017,0 hPa 0,0 mm 0,0 km/h (0 Bft) O 86 0 min 0,000 mm 0,0 UV-I 0 W/m 14,2 C 0,0 km/h (0 Bft)
26.08.2016 06:24 14,7 C 14,7 C 97 % 1017,0 hPa 0,0 mm 0,0 km/h (0 Bft) O 86 0 min 0,000 mm 0,0 UV-I 0 W/m 14,2 C 0,0 km/h (0 Bft)
26.08.2016 06:25 14,8 C 14,8 C 97 % 1017,0 hPa 0,0 mm 0,3 km/h (0 Bft) O 86 0 min 0,000 mm 0,0 UV-I 0 W/m 14,3 C 1,6 km/h (1 Bft)
26.08.2016 06:26 14,9 C 14,9 C 97 % 1017,1 hPa 0,0 mm 0,0 km/h (0 Bft) O 86 0 min 0,000 mm 0,0 UV-I 0 W/m 14,4 C 0,0 km/h (0 Bft)
26.08.2016 06:27 14,9 C 14,9 C 97 % 1017,1 hPa 0,0 mm 0,8 km/h (0 Bft) O 86 0 min 0,000 mm 0,0 UV-I 0 W/m 14,4 C 1,6 km/h (1 Bft)
26.08.2016 06:28 14,9 C 14,9 C 97 % 1017,1 hPa 0,0 mm 0,1 km/h (0 Bft) O 86 0 min 0,000 mm 0,0 UV-I 0 W/m 14,4 C 1,6 km/h (1 Bft)
26.08.2016 06:29 14,9 C 14,9 C 97 % 1017,0 hPa 0,0 mm 0,0 km/h (0 Bft) O 86 0 min 0,000 mm 0,0 UV-I 5 W/m 14,4 C 0,0 km/h (0 Bft)
26.08.2016 06:30 14,9 C 14,9 C 97 % 1017,1 hPa 0,0 mm 0,0 km/h (0 Bft) O 86 0 min 0,000 mm 0,0 UV-I 5 W/m 14,4 C 0,0 km/h (0 Bft)
26.08.2016 06:31 14,9 C 14,9 C 97 % 1017,1 hPa 0,0 mm 0,0 km/h (0 Bft) O 86 0 min 0,000 mm 0,0 UV-I 5 W/m 14,4 C 0,0 km/h (0 Bft)
26.08.2016 06:32 14,9 C 14,9 C 97 % 1017,1 hPa 0,0 mm 0,0 km/h (0 Bft) O 86 0 min 0,000 mm 0,0 UV-I 5 W/m 14,4 C 0,0 km/h (0 Bft)
26.08.2016 06:33 14,9 C 14,9 C 97 % 1017,1 hPa 0,0 mm 0,0 km/h (0 Bft) O 86 0 min 0,000 mm 0,0 UV-I 5 W/m 14,4 C 0,0 km/h (0 Bft)
26.08.2016 06:34 14,8 C 14,9 C 97 % 1017,1 hPa 0,0 mm 0,0 km/h (0 Bft) O 86 0 min 0,000 mm 0,0 UV-I 5 W/m 14,3 C 0,0 km/h (0 Bft)
26.08.2016 06:35 14,6 C 14,8 C 97 % 1017,1 hPa 0,0 mm 0,0 km/h (0 Bft) O 86 0 min 0,000 mm 0,0 UV-I 5 W/m 14,1 C 0,0 km/h (0 Bft)
26.08.2016 06:36 14,6 C 14,6 C 97 % 1017,1 hPa 0,0 mm 0,0 km/h (0 Bft) O 86 0 min 0,000 mm 0,0 UV-I 7 W/m 14,1 C 0,0 km/h (0 Bft)
26.08.2016 06:37 14,6 C 14,6 C 97 % 1017,1 hPa 0,0 mm 0,0 km/h (0 Bft) O 86 0 min 0,000 mm 0,0 UV-I 7 W/m 14,1 C 0,0 km/h (0 Bft)
26.08.2016 06:38 14,6 C 14,6 C 97 % 1017,1 hPa 0,0 mm 0,0 km/h (0 Bft) O 86 0 min 0,000 mm 0,0 UV-I 7 W/m 14,1 C 0,0 km/h (0 Bft)
26.08.2016 06:39 14,6 C 14,6 C 97 % 1017,2 hPa 0,0 mm 0,0 km/h (0 Bft) O 86 0 min 0,000 mm 0,0 UV-I 7 W/m 14,1 C 0,0 km/h (0 Bft)
26.08.2016 06:40 14,7 C 14,7 C 97 % 1017,2 hPa 0,0 mm 0,0 km/h (0 Bft) O 86 0 min 0,000 mm 0,0 UV-I 7 W/m 14,2 C 0,0 km/h (0 Bft)
26.08.2016 06:41 14,7 C 14,7 C 97 % 1017,2 hPa 0,0 mm 0,0 km/h (0 Bft) O 86 0 min 0,000 mm 0,0 UV-I 9 W/m 14,2 C 0,0 km/h (0 Bft)
26.08.2016 06:42 14,8 C 14,8 C 97 % 1017,2 hPa 0,0 mm 0,0 km/h (0 Bft) O 86 0 min 0,000 mm 0,0 UV-I 9 W/m 14,3 C 0,0 km/h (0 Bft)
26.08.2016 06:43 14,7 C 14,8 C 97 % 1017,2 hPa 0,0 mm 0,0 km/h (0 Bft) O 86 0 min 0,000 mm 0,0 UV-I 9 W/m 14,2 C 0,0 km/h (0 Bft)
26.08.2016 06:44 14,7 C 14,7 C 97 % 1017,1 hPa 0,0 mm 0,0 km/h (0 Bft) O 86 0 min 0,000 mm 0,0 UV-I 9 W/m 14,2 C 0,0 km/h (0 Bft)
26.08.2016 06:45 14,6 C 14,7 C 97 % 1017,1 hPa 0,0 mm 0,0 km/h (0 Bft) O 86 0 min 0,000 mm 0,0 UV-I 11 W/m 14,1 C 0,0 km/h (0 Bft)
26.08.2016 06:46 14,6 C 14,6 C 97 % 1017,1 hPa 0,0 mm 0,0 km/h (0 Bft) O 86 0 min 0,000 mm 0,0 UV-I 11 W/m 14,1 C 0,0 km/h (0 Bft)
26.08.2016 06:47 14,7 C 14,7 C 97 % 1017,1 hPa 0,0 mm 0,0 km/h (0 Bft) O 86 0 min 0,000 mm 0,0 UV-I 11 W/m 14,2 C 0,0 km/h (0 Bft)
26.08.2016 06:48 14,6 C 14,7 C 97 % 1017,1 hPa 0,0 mm 0,0 km/h (0 Bft) O 86 0 min 0,000 mm 0,0 UV-I 11 W/m 14,1 C 0,0 km/h (0 Bft)
26.08.2016 06:49 14,4 C 14,6 C 97 % 1017,1 hPa 0,0 mm 0,0 km/h (0 Bft) O 86 0 min 0,000 mm 0,0 UV-I 11 W/m 13,9 C 0,0 km/h (0 Bft)
26.08.2016 06:50 14,3 C 14,4 C 97 % 1017,1 hPa 0,0 mm 0,0 km/h (0 Bft) O 86 0 min 0,000 mm 0,0 UV-I 12 W/m 13,8 C 0,0 km/h (0 Bft)
26.08.2016 06:51 14,4 C 14,4 C 97 % 1017,1 hPa 0,0 mm 0,0 km/h (0 Bft) O 86 0 min 0,000 mm 0,0 UV-I 12 W/m 13,9 C 0,0 km/h (0 Bft)
26.08.2016 06:52 14,4 C 14,4 C 97 % 1017,1 hPa 0,0 mm 0,0 km/h (0 Bft) O 86 0 min 0,000 mm 0,0 UV-I 12 W/m 13,9 C 0,0 km/h (0 Bft)
26.08.2016 06:53 14,4 C 14,4 C 97 % 1017,0 hPa 0,0 mm 0,0 km/h (0 Bft) O 86 0 min 0,000 mm 0,0 UV-I 12 W/m 13,9 C 0,0 km/h (0 Bft)
26.08.2016 06:54 14,3 C 14,4 C 97 % 1017,0 hPa 0,0 mm 0,0 km/h (0 Bft) O 86 0 min 0,000 mm 0,0 UV-I 12 W/m 13,8 C 0,0 km/h (0 Bft)
26.08.2016 06:55 14,3 C 14,3 C 97 % 1017,1 hPa 0,0 mm 0,0 km/h (0 Bft) O 86 0 min 0,000 mm 0,0 UV-I 12 W/m 13,8 C 0,0 km/h (0 Bft)
26.08.2016 06:56 14,3 C 14,3 C 97 % 1017,1 hPa 0,0 mm 0,0 km/h (0 Bft) O 86 0 min 0,000 mm 0,0 UV-I 12 W/m 13,8 C 0,0 km/h (0 Bft)
26.08.2016 06:57 14,3 C 14,3 C 97 % 1017,0 hPa 0,0 mm 0,0 km/h (0 Bft) O 86 0 min 0,000 mm 0,0 UV-I 14 W/m 13,8 C 0,0 km/h (0 Bft)
26.08.2016 06:58 14,3 C 14,4 C 97 % 1017,0 hPa 0,0 mm 0,0 km/h (0 Bft) O 86 0 min 0,000 mm 0,0 UV-I 14 W/m 13,8 C 0,0 km/h (0 Bft)
26.08.2016 06:59 14,4 C 14,4 C 97 % 1017,1 hPa 0,0 mm 0,0 km/h (0 Bft) O 86 0 min 0,000 mm 0,0 UV-I 14 W/m 13,9 C 0,0 km/h (0 Bft)
26.08.2016 07:00 14,4 C 14,4 C 97 % 1017,0 hPa 0,0 mm 0,0 km/h (0 Bft) O 86 0 min 0,000 mm 0,0 UV-I 14 W/m 13,9 C 0,0 km/h (0 Bft)
26.08.2016 07:01 14,5 C 14,5 C 97 % 1017,0 hPa 0,0 mm 0,0 km/h (0 Bft) O 86 0 min 0,000 mm 0,0 UV-I 14 W/m 14,0 C 0,0 km/h (0 Bft)
26.08.2016 07:02 14,6 C 14,6 C 97 % 1017,0 hPa 0,0 mm 0,0 km/h (0 Bft) O 86 0 min 0,000 mm 0,0 UV-I 14 W/m 14,1 C 0,0 km/h (0 Bft)
26.08.2016 07:03 14,6 C 14,6 C 97 % 1017,1 hPa 0,0 mm 0,1 km/h (0 Bft) O 86 0 min 0,000 mm 0,0 UV-I 14 W/m 14,1 C 1,6 km/h (1 Bft)
26.08.2016 07:04 14,7 C 14,7 C 97 % 1017,1 hPa 0,0 mm 0,2 km/h (0 Bft) O 86 0 min 0,000 mm 0,0 UV-I 16 W/m 14,2 C 1,6 km/h (1 Bft)
26.08.2016 07:05 14,7 C 14,7 C 97 % 1017,1 hPa 0,0 mm 0,5 km/h (0 Bft) O 86 0 min 0,000 mm 0,0 UV-I 16 W/m 14,2 C 1,6 km/h (1 Bft)
26.08.2016 07:06 14,8 C 14,8 C 97 % 1017,1 hPa 0,0 mm 0,0 km/h (0 Bft) O 86 0 min 0,000 mm 0,0 UV-I 16 W/m 14,3 C 0,0 km/h (0 Bft)
26.08.2016 07:07 14,8 C 14,8 C 97 % 1017,1 hPa 0,0 mm 0,0 km/h (0 Bft) O 86 0 min 0,000 mm 0,0 UV-I 16 W/m 14,3 C 0,0 km/h (0 Bft)
26.08.2016 07:08 14,8 C 14,8 C 97 % 1017,1 hPa 0,0 mm 0,0 km/h (0 Bft) O 86 0 min 0,000 mm 0,0 UV-I 16 W/m 14,3 C 0,0 km/h (0 Bft)
26.08.2016 07:09 14,9 C 14,9 C 97 % 1017,1 hPa 0,0 mm 0,0 km/h (0 Bft) O 86 0 min 0,000 mm 0,0 UV-I 18 W/m 14,4 C 0,0 km/h (0 Bft)
26.08.2016 07:10 14,9 C 14,9 C 97 % 1017,1 hPa 0,0 mm 0,0 km/h (0 Bft) O 86 0 min 0,000 mm 0,0 UV-I 18 W/m 14,4 C 0,0 km/h (0 Bft)
26.08.2016 07:11 14,9 C 15,0 C 97 % 1017,1 hPa 0,0 mm 0,0 km/h (0 Bft) O 86 0 min 0,000 mm 0,0 UV-I 18 W/m 14,4 C 0,0 km/h (0 Bft)
26.08.2016 07:12 15,0 C 15,0 C 97 % 1017,1 hPa 0,0 mm 0,0 km/h (0 Bft) O 86 0 min 0,000 mm 0,0 UV-I 19 W/m 14,5 C 0,0 km/h (0 Bft)
26.08.2016 07:13 15,0 C 15,0 C 97 % 1017,1 hPa 0,0 mm 0,0 km/h (0 Bft) O 86 0 min 0,000 mm 0,0 UV-I 19 W/m 14,5 C 0,0 km/h (0 Bft)
26.08.2016 07:14 14,9 C 15,0 C 97 % 1017,1 hPa 0,0 mm 0,0 km/h (0 Bft) O 86 0 min 0,000 mm 0,0 UV-I 19 W/m 14,4 C 0,0 km/h (0 Bft)
26.08.2016 07:15 15,0 C 15,0 C 97 % 1017,1 hPa 0,0 mm 0,0 km/h (0 Bft) O 86 0 min 0,000 mm 0,0 UV-I 19 W/m 14,5 C 0,0 km/h (0 Bft)
26.08.2016 07:16 15,0 C 15,0 C 97 % 1017,0 hPa 0,0 mm 0,0 km/h (0 Bft) O 86 0 min 0,000 mm 0,0 UV-I 21 W/m 14,5 C 0,0 km/h (0 Bft)
26.08.2016 07:17 15,0 C 15,0 C 97 % 1017,1 hPa 0,0 mm 0,1 km/h (0 Bft) O 86 0 min 0,000 mm 0,0 UV-I 21 W/m 14,5 C 1,6 km/h (1 Bft)
26.08.2016 07:18 15,0 C 15,0 C 97 % 1017,0 hPa 0,0 mm 0,2 km/h (0 Bft) O 86 0 min 0,000 mm 0,0 UV-I 21 W/m 14,5 C 1,6 km/h (1 Bft)
26.08.2016 07:19 14,9 C 15,0 C 97 % 1017,0 hPa 0,0 mm 0,1 km/h (0 Bft) O 86 0 min 0,000 mm 0,0 UV-I 21 W/m 14,4 C 1,6 km/h (1 Bft)
26.08.2016 07:20 14,9 C 14,9 C 97 % 1017,0 hPa 0,0 mm 0,1 km/h (0 Bft) O 86 0 min 0,000 mm 0,0 UV-I 21 W/m 14,4 C 1,6 km/h (1 Bft)
26.08.2016 07:21 14,9 C 14,9 C 97 % 1017,1 hPa 0,0 mm 0,0 km/h (0 Bft) O 86 0 min 0,000 mm 0,0 UV-I 21 W/m 14,4 C 0,0 km/h (0 Bft)
26.08.2016 07:22 15,0 C 15,0 C 97 % 1017,1 hPa 0,0 mm 0,0 km/h (0 Bft) O 86 0 min 0,000 mm 0,0 UV-I 21 W/m 14,5 C 0,0 km/h (0 Bft)
26.08.2016 07:23 15,0 C 15,0 C 97 % 1017,1 hPa 0,0 mm 0,0 km/h (0 Bft) O 86 0 min 0,000 mm 0,0 UV-I 21 W/m 14,5 C 0,0 km/h (0 Bft)
26.08.2016 07:24 15,1 C 15,1 C 97 % 1017,1 hPa 0,0 mm 0,0 km/h (0 Bft) O 86 0 min 0,000 mm 0,0 UV-I 23 W/m 14,6 C 0,0 km/h (0 Bft)
26.08.2016 07:25 15,1 C 15,1 C 97 % 1017,1 hPa 0,0 mm 0,0 km/h (0 Bft) O 86 0 min 0,000 mm 0,0 UV-I 23 W/m 14,6 C 0,0 km/h (0 Bft)
26.08.2016 07:26 15,1 C 15,1 C 97 % 1017,1 hPa 0,0 mm 0,0 km/h (0 Bft) O 86 0 min 0,000 mm 0,0 UV-I 23 W/m 14,6 C 0,0 km/h (0 Bft)
26.08.2016 07:27 15,2 C 15,2 C 97 % 1017,1 hPa 0,0 mm 0,0 km/h (0 Bft) O 86 0 min 0,000 mm 0,0 UV-I 23 W/m 14,7 C 0,0 km/h (0 Bft)
26.08.2016 07:28 15,2 C 15,2 C 97 % 1017,1 hPa 0,0 mm 0,0 km/h (0 Bft) O 86 0 min 0,000 mm 0,0 UV-I 25 W/m 14,7 C 0,0 km/h (0 Bft)
26.08.2016 07:29 15,2 C 15,2 C 97 % 1017,1 hPa 0,0 mm 0,0 km/h (0 Bft) O 86 0 min 0,000 mm 0,0 UV-I 25 W/m 14,7 C 0,0 km/h (0 Bft)
26.08.2016 07:30 15,3 C 15,3 C 97 % 1017,1 hPa 0,0 mm 0,0 km/h (0 Bft) O 86 0 min 0,000 mm 0,0 UV-I 25 W/m 14,8 C 0,0 km/h (0 Bft)
26.08.2016 07:31 15,3 C 15,3 C 97 % 1017,1 hPa 0,0 mm 0,0 km/h (0 Bft) O 86 0 min 0,000 mm 0,0 UV-I 25 W/m 14,8 C 0,0 km/h (0 Bft)
26.08.2016 07:32 15,3 C 15,3 C 97 % 1017,1 hPa 0,0 mm 0,0 km/h (0 Bft) O 86 0 min 0,000 mm 0,0 UV-I 26 W/m 14,8 C 0,0 km/h (0 Bft)
26.08.2016 07:33 15,3 C 15,3 C 97 % 1017,1 hPa 0,0 mm 0,4 km/h (0 Bft) O 86 0 min 0,000 mm 0,0 UV-I 26 W/m 14,8 C 1,6 km/h (1 Bft)
26.08.2016 07:34 15,4 C 15,4 C 97 % 1017,1 hPa 0,0 mm 0,7 km/h (0 Bft) O 86 0 min 0,000 mm 0,0 UV-I 26 W/m 14,9 C 1,6 km/h (1 Bft)
26.08.2016 07:35 15,4 C 15,4 C 97 % 1017,2 hPa 0,0 mm 0,0 km/h (0 Bft) O 86 0 min 0,000 mm 0,0 UV-I 26 W/m 14,9 C 0,0 km/h (0 Bft)
26.08.2016 07:36 15,4 C 15,4 C 97 % 1017,2 hPa 0,0 mm 0,0 km/h (0 Bft) O 86 0 min 0,000 mm 0,0 UV-I 26 W/m 14,9 C 0,0 km/h (0 Bft)
26.08.2016 07:37 15,4 C 15,4 C 97 % 1017,1 hPa 0,0 mm 0,0 km/h (0 Bft) O 86 0 min 0,000 mm 0,0 UV-I 28 W/m 14,9 C 0,0 km/h (0 Bft)
26.08.2016 07:38 15,5 C 15,5 C 97 % 1017,1 hPa 0,0 mm 0,2 km/h (0 Bft) O 86 0 min 0,000 mm 0,0 UV-I 28 W/m 15,0 C 1,6 km/h (1 Bft)
26.08.2016 07:39 15,6 C 15,6 C 97 % 1017,1 hPa 0,0 mm 0,5 km/h (0 Bft) O 86 0 min 0,000 mm 0,0 UV-I 28 W/m 15,1 C 1,6 km/h (1 Bft)
26.08.2016 07:40 15,6 C 15,6 C 97 % 1017,1 hPa 0,0 mm 0,2 km/h (0 Bft) O 86 0 min 0,000 mm 0,0 UV-I 32 W/m 15,1 C 1,6 km/h (1 Bft)
26.08.2016 07:41 15,7 C 15,7 C 97 % 1017,1 hPa 0,0 mm 0,2 km/h (0 Bft) O 86 0 min 0,000 mm 0,0 UV-I 44 W/m 15,2 C 1,6 km/h (1 Bft)
26.08.2016 07:42 15,7 C 15,7 C 97 % 1017,1 hPa 0,0 mm 0,0 km/h (0 Bft) O 86 0 min 0,000 mm 0,5 UV-I 63 W/m 15,2 C 0,0 km/h (0 Bft)
26.08.2016 07:43 15,7 C 15,7 C 97 % 1017,1 hPa 0,0 mm 0,0 km/h (0 Bft) O 86 0 min 0,000 mm 0,5 UV-I 84 W/m 15,2 C 0,0 km/h (0 Bft)
26.08.2016 07:44 15,8 C 15,8 C 97 % 1017,0 hPa 0,0 mm 0,0 km/h (0 Bft) O 86 1 min 0,000 mm 0,5 UV-I 123 W/m 15,3 C 0,0 km/h (0 Bft)
26.08.2016 07:45 15,8 C 15,8 C 97 % 1017,0 hPa 0,0 mm 0,0 km/h (0 Bft) O 86 1 min 0,000 mm 0,5 UV-I 148 W/m 15,3 C 0,0 km/h (0 Bft)
26.08.2016 07:46 15,9 C 15,9 C 97 % 1017,0 hPa 0,0 mm 0,0 km/h (0 Bft) O 86 1 min 0,000 mm 0,5 UV-I 155 W/m 15,4 C 0,0 km/h (0 Bft)
26.08.2016 07:47 15,8 C 15,9 C 97 % 1017,0 hPa 0,0 mm 0,2 km/h (0 Bft) O 86 1 min 0,000 mm 0,5 UV-I 156 W/m 15,3 C 1,6 km/h (1 Bft)
26.08.2016 07:48 15,8 C 15,9 C 96 % 1017,0 hPa 0,0 mm 0,0 km/h (0 Bft) O 86 1 min 0,000 mm 0,6 UV-I 160 W/m 15,2 C 0,0 km/h (0 Bft)
26.08.2016 07:49 15,9 C 15,9 C 96 % 1017,0 hPa 0,0 mm 0,0 km/h (0 Bft) O 86 1 min 0,000 mm 0,6 UV-I 162 W/m 15,3 C 0,0 km/h (0 Bft)
26.08.2016 07:50 16,0 C 16,0 C 96 % 1016,9 hPa 0,0 mm 0,0 km/h (0 Bft) O 86 1 min 0,000 mm 0,6 UV-I 165 W/m 15,4 C 0,0 km/h (0 Bft)
26.08.2016 07:51 16,0 C 16,0 C 96 % 1016,9 hPa 0,0 mm 0,0 km/h (0 Bft) O 86 1 min 0,000 mm 0,6 UV-I 167 W/m 15,4 C 0,0 km/h (0 Bft)
26.08.2016 07:52 16,0 C 16,0 C 96 % 1016,9 hPa 0,0 mm 0,0 km/h (0 Bft) O 86 1 min 0,000 mm 0,6 UV-I 172 W/m 15,4 C 0,0 km/h (0 Bft)
26.08.2016 07:53 16,1 C 16,1 C 96 % 1017,0 hPa 0,0 mm 0,0 km/h (0 Bft) O 86 1 min 0,000 mm 0,6 UV-I 174 W/m 15,5 C 0,0 km/h (0 Bft)
26.08.2016 07:54 16,2 C 16,2 C 96 % 1017,0 hPa 0,0 mm 0,1 km/h (0 Bft) O 86 1 min 0,000 mm 0,6 UV-I 174 W/m 15,6 C 1,6 km/h (1 Bft)
26.08.2016 07:55 16,2 C 16,2 C 96 % 1016,9 hPa 0,0 mm 0,0 km/h (0 Bft) O 86 1 min 0,000 mm 0,6 UV-I 176 W/m 15,6 C 0,0 km/h (0 Bft)
26.08.2016 07:56 16,3 C 16,3 C 96 % 1017,0 hPa 0,0 mm 0,4 km/h (0 Bft) O 86 1 min 0,000 mm 0,7 UV-I 179 W/m 15,7 C 1,6 km/h (1 Bft)
26.08.2016 07:57 16,5 C 16,5 C 96 % 1016,9 hPa 0,0 mm 0,0 km/h (0 Bft) O 86 1 min 0,000 mm 0,7 UV-I 181 W/m 15,9 C 0,0 km/h (0 Bft)
26.08.2016 07:58 16,6 C 16,6 C 96 % 1017,0 hPa 0,0 mm 0,1 km/h (0 Bft) O 86 1 min 0,000 mm 0,7 UV-I 185 W/m 16,0 C 1,6 km/h (1 Bft)
26.08.2016 07:59 16,7 C 16,7 C 96 % 1016,9 hPa 0,0 mm 1,0 km/h (0 Bft) O 86 1 min 0,000 mm 0,7 UV-I 186 W/m 16,1 C 3,2 km/h (1 Bft)
26.08.2016 08:00 16,8 C 16,8 C 95 % 1016,9 hPa 0,0 mm 0,7 km/h (0 Bft) O 86 1 min 0,000 mm 0,7 UV-I 190 W/m 16,0 C 1,6 km/h (1 Bft)
26.08.2016 08:01 16,9 C 16,9 C 95 % 1016,9 hPa 0,0 mm 0,0 km/h (0 Bft) O 86 1 min 0,025 mm 0,8 UV-I 192 W/m 16,1 C 0,0 km/h (0 Bft)
26.08.2016 08:02 17,1 C 17,1 C 94 % 1016,9 hPa 0,0 mm 0,4 km/h (0 Bft) O 86 1 min 0,000 mm 0,8 UV-I 195 W/m 16,1 C 1,6 km/h (1 Bft)
26.08.2016 08:03 17,1 C 17,1 C 95 % 1016,9 hPa 0,0 mm 0,0 km/h (0 Bft) O 86 1 min 0,000 mm 0,8 UV-I 199 W/m 16,3 C 0,0 km/h (0 Bft)
26.08.2016 08:04 17,1 C 17,1 C 94 % 1016,9 hPa 0,0 mm 0,1 km/h (0 Bft) O 86 1 min 0,000 mm 0,8 UV-I 200 W/m 16,1 C 1,6 km/h (1 Bft)
26.08.2016 08:05 17,1 C 17,1 C 94 % 1016,9 hPa 0,0 mm 0,0 km/h (0 Bft) O 86 1 min 0,000 mm 0,8 UV-I 202 W/m 16,1 C 0,0 km/h (0 Bft)
26.08.2016 08:06 17,1 C 17,1 C 95 % 1016,9 hPa 0,0 mm 0,5 km/h (0 Bft) O 86 1 min 0,000 mm 0,8 UV-I 204 W/m 16,3 C 1,6 km/h (1 Bft)
26.08.2016 08:07 17,3 C 17,3 C 95 % 1016,9 hPa 0,0 mm 0,0 km/h (0 Bft) O 86 1 min 0,000 mm 0,9 UV-I 206 W/m 16,5 C 0,0 km/h (0 Bft)
26.08.2016 08:08 17,4 C 17,4 C 96 % 1016,9 hPa 0,0 mm 0,1 km/h (0 Bft) O 86 1 min 0,000 mm 0,9 UV-I 209 W/m 16,8 C 1,6 km/h (1 Bft)
26.08.2016 08:09 17,5 C 17,5 C 95 % 1016,9 hPa 0,0 mm 1,0 km/h (0 Bft) O 86 1 min 0,000 mm 0,9 UV-I 211 W/m 16,7 C 1,6 km/h (1 Bft)
26.08.2016 08:11 17,6 C 17,6 C 95 % 1016,8 hPa 0,0 mm 0,3 km/h (0 Bft) O 86 2 min 0,000 mm 0,9 UV-I 218 W/m 16,8 C 1,6 km/h (1 Bft)
26.08.2016 08:12 17,7 C 17,7 C 93 % 1016,8 hPa 0,0 mm 0,4 km/h (0 Bft) O 86 1 min 0,000 mm 0,9 UV-I 220 W/m 16,6 C 1,6 km/h (1 Bft)
26.08.2016 08:13 17,8 C 17,8 C 94 % 1016,9 hPa 0,0 mm 0,2 km/h (0 Bft) O 86 1 min 0,000 mm 1,0 UV-I 221 W/m 16,8 C 1,6 km/h (1 Bft)
26.08.2016 08:14 18,0 C 18,0 C 94 % 1016,9 hPa 0,0 mm 0,0 km/h (0 Bft) O 86 1 min 0,000 mm 1,0 UV-I 225 W/m 17,0 C 0,0 km/h (0 Bft)
26.08.2016 08:15 18,0 C 18,0 C 93 % 1016,9 hPa 0,0 mm 0,4 km/h (0 Bft) O 86 1 min 0,000 mm 1,0 UV-I 227 W/m 16,8 C 1,6 km/h (1 Bft)
26.08.2016 08:16 18,1 C 18,1 C 94 % 1017,0 hPa 0,0 mm 0,3 km/h (0 Bft) O 86 1 min 0,000 mm 1,0 UV-I 229 W/m 17,1 C 1,6 km/h (1 Bft)
26.08.2016 08:17 18,1 C 18,1 C 93 % 1017,0 hPa 0,0 mm 0,6 km/h (0 Bft) O 86 1 min 0,000 mm 1,0 UV-I 234 W/m 16,9 C 1,6 km/h (1 Bft)
26.08.2016 08:18 18,2 C 18,2 C 92 % 1016,9 hPa 0,0 mm 1,1 km/h (1 Bft) O 86 1 min 0,000 mm 1,0 UV-I 236 W/m 16,9 C 3,2 km/h (1 Bft)
26.08.2016 08:19 18,2 C 18,2 C 93 % 1016,9 hPa 0,0 mm 0,4 km/h (0 Bft) O 86 1 min 0,000 mm 1,1 UV-I 237 W/m 17,0 C 1,6 km/h (1 Bft)
26.08.2016 08:20 18,3 C 18,3 C 92 % 1016,9 hPa 0,0 mm 0,3 km/h (0 Bft) O 86 1 min 0,000 mm 1,1 UV-I 239 W/m 17,0 C 1,6 km/h (1 Bft)
26.08.2016 08:21 18,4 C 18,4 C 93 % 1016,9 hPa 0,0 mm 0,1 km/h (0 Bft) O 86 1 min 0,000 mm 1,1 UV-I 243 W/m 17,2 C 1,6 km/h (1 Bft)
26.08.2016 08:22 18,5 C 18,5 C 91 % 1016,9 hPa 0,0 mm 0,0 km/h (0 Bft) O 86 1 min 0,000 mm 1,1 UV-I 246 W/m 17,0 C 0,0 km/h (0 Bft)
26.08.2016 08:23 18,6 C 18,6 C 92 % 1016,9 hPa 0,0 mm 0,0 km/h (0 Bft) O 86 1 min 0,000 mm 1,1 UV-I 250 W/m 17,3 C 0,0 km/h (0 Bft)
26.08.2016 08:24 18,6 C 18,7 C 93 % 1016,9 hPa 0,0 mm 0,0 km/h (0 Bft) O 86 1 min 0,000 mm 1,2 UV-I 250 W/m 17,4 C 0,0 km/h (0 Bft)
26.08.2016 08:25 18,7 C 18,7 C 90 % 1017,0 hPa 0,0 mm 0,0 km/h (0 Bft) O 86 1 min 0,000 mm 1,2 UV-I 253 W/m 17,0 C 0,0 km/h (0 Bft)
26.08.2016 08:26 18,8 C 18,8 C 90 % 1016,9 hPa 0,0 mm 0,0 km/h (0 Bft) O 86 1 min 0,000 mm 1,2 UV-I 257 W/m 17,1 C 0,0 km/h (0 Bft)
26.08.2016 08:27 18,8 C 18,8 C 90 % 1017,0 hPa 0,0 mm 0,0 km/h (0 Bft) O 86 1 min 0,000 mm 1,2 UV-I 260 W/m 17,1 C 0,0 km/h (0 Bft)
26.08.2016 08:28 18,9 C 18,9 C 90 % 1017,0 hPa 0,0 mm 0,0 km/h (0 Bft) O 86 1 min 0,000 mm 1,2 UV-I 264 W/m 17,2 C 0,0 km/h (0 Bft)
26.08.2016 08:29 19,1 C 19,1 C 92 % 1017,0 hPa 0,0 mm 0,0 km/h (0 Bft) O 86 1 min 0,000 mm 1,2 UV-I 265 W/m 17,8 C 0,0 km/h (0 Bft)
26.08.2016 08:30 19,1 C 19,1 C 90 % 1017,0 hPa 0,0 mm 0,0 km/h (0 Bft) O 86 1 min 0,000 mm 1,3 UV-I 267 W/m 17,4 C 0,0 km/h (0 Bft)
26.08.2016 08:31 19,2 C 19,2 C 92 % 1017,0 hPa 0,0 mm 0,0 km/h (0 Bft) O 86 1 min 0,000 mm 1,3 UV-I 271 W/m 17,9 C 0,0 km/h (0 Bft)
26.08.2016 08:32 19,3 C 19,3 C 92 % 1017,0 hPa 0,0 mm 0,0 km/h (0 Bft) O 86 1 min 0,000 mm 1,3 UV-I 271 W/m 18,0 C 0,0 km/h (0 Bft)
26.08.2016 08:33 19,2 C 19,3 C 90 % 1017,0 hPa 0,0 mm 0,0 km/h (0 Bft) O 86 1 min 0,000 mm 1,3 UV-I 276 W/m 17,5 C 0,0 km/h (0 Bft)
26.08.2016 08:34 19,4 C 19,4 C 91 % 1017,0 hPa 0,0 mm 0,0 km/h (0 Bft) O 86 1 min 0,000 mm 1,3 UV-I 278 W/m 17,9 C 0,0 km/h (0 Bft)
26.08.2016 08:35 19,5 C 19,5 C 92 % 1017,0 hPa 0,0 mm 0,0 km/h (0 Bft) O 86 1 min 0,000 mm 1,3 UV-I 281 W/m 18,2 C 0,0 km/h (0 Bft)
26.08.2016 08:36 19,5 C 19,6 C 91 % 1017,0 hPa 0,0 mm 0,0 km/h (0 Bft) O 86 1 min 0,000 mm 1,4 UV-I 283 W/m 18,0 C 0,0 km/h (0 Bft)
26.08.2016 08:37 19,5 C 19,5 C 90 % 1017,0 hPa 0,0 mm 0,0 km/h (0 Bft) O 86 1 min 0,000 mm 1,4 UV-I 287 W/m 17,8 C 0,0 km/h (0 Bft)
26.08.2016 08:38 19,6 C 19,6 C 90 % 1017,0 hPa 0,0 mm 0,0 km/h (0 Bft) O 86 1 min 0,000 mm 1,4 UV-I 290 W/m 17,9 C 0,0 km/h (0 Bft)
26.08.2016 08:39 19,6 C 19,6 C 89 % 1016,9 hPa 0,0 mm 0,0 km/h (0 Bft) O 86 1 min 0,000 mm 1,4 UV-I 295 W/m 17,7 C 0,0 km/h (0 Bft)
26.08.2016 08:40 19,6 C 19,7 C 89 % 1016,9 hPa 0,0 mm 0,0 km/h (0 Bft) O 86 1 min 0,000 mm 1,4 UV-I 297 W/m 17,7 C 0,0 km/h (0 Bft)
26.08.2016 08:41 19,7 C 19,7 C 90 % 1016,9 hPa 0,0 mm 0,7 km/h (0 Bft) O 86 1 min 0,000 mm 1,5 UV-I 299 W/m 18,0 C 1,6 km/h (1 Bft)
26.08.2016 08:42 19,7 C 19,7 C 89 % 1016,9 hPa 0,0 mm 0,6 km/h (0 Bft) O 86 1 min 0,000 mm 1,5 UV-I 302 W/m 17,8 C 1,6 km/h (1 Bft)
26.08.2016 08:43 19,8 C 19,8 C 88 % 1016,9 hPa 0,0 mm 0,4 km/h (0 Bft) O 86 1 min 0,000 mm 1,5 UV-I 302 W/m 17,8 C 1,6 km/h (1 Bft)
26.08.2016 08:44 19,8 C 19,8 C 89 % 1017,0 hPa 0,0 mm 0,3 km/h (0 Bft) O 86 1 min 0,000 mm 1,5 UV-I 308 W/m 17,9 C 1,6 km/h (1 Bft)
26.08.2016 08:45 19,8 C 19,8 C 89 % 1016,9 hPa 0,0 mm 1,2 km/h (1 Bft) O 86 1 min 0,000 mm 1,5 UV-I 315 W/m 17,9 C 1,6 km/h (1 Bft)
26.08.2016 08:46 19,8 C 19,8 C 89 % 1016,9 hPa 0,0 mm 0,1 km/h (0 Bft) O 86 1 min 0,000 mm 1,6 UV-I 318 W/m 17,9 C 1,6 km/h (1 Bft)
26.08.2016 08:47 19,8 C 19,8 C 88 % 1016,9 hPa 0,0 mm 0,2 km/h (0 Bft) O 86 1 min 0,000 mm 1,6 UV-I 320 W/m 17,8 C 1,6 km/h (1 Bft)
26.08.2016 08:48 19,9 C 19,9 C 87 % 1016,9 hPa 0,0 mm 0,5 km/h (0 Bft) O 86 1 min 0,000 mm 1,6 UV-I 323 W/m 17,7 C 1,6 km/h (1 Bft)
26.08.2016 08:49 20,0 C 20,0 C 89 % 1016,9 hPa 0,0 mm 0,0 km/h (0 Bft) O 86 1 min 0,000 mm 1,6 UV-I 325 W/m 18,1 C 0,0 km/h (0 Bft)
26.08.2016 08:50 20,1 C 20,1 C 88 % 1016,9 hPa 0,0 mm 0,0 km/h (0 Bft) O 86 1 min 0,000 mm 1,7 UV-I 330 W/m 18,0 C 0,0 km/h (0 Bft)
26.08.2016 08:51 20,1 C 20,1 C 88 % 1016,9 hPa 0,0 mm 0,0 km/h (0 Bft) O 86 1 min 0,000 mm 1,7 UV-I 338 W/m 18,0 C 0,0 km/h (0 Bft)
26.08.2016 08:52 20,1 C 20,1 C 87 % 1016,9 hPa 0,0 mm 0,8 km/h (0 Bft) O 86 1 min 0,000 mm 1,7 UV-I 341 W/m 17,9 C 1,6 km/h (1 Bft)
26.08.2016 08:53 20,2 C 20,2 C 88 % 1016,9 hPa 0,0 mm 0,7 km/h (0 Bft) O 86 1 min 0,000 mm 1,8 UV-I 345 W/m 18,1 C 1,6 km/h (1 Bft)
26.08.2016 08:54 20,2 C 20,2 C 89 % 1016,9 hPa 0,0 mm 0,5 km/h (0 Bft) O 86 1 min 0,000 mm 1,8 UV-I 350 W/m 18,3 C 1,6 km/h (1 Bft)
26.08.2016 08:55 20,2 C 20,2 C 88 % 1017,0 hPa 0,0 mm 0,7 km/h (0 Bft) O 86 1 min 0,000 mm 1,8 UV-I 352 W/m 18,1 C 1,6 km/h (1 Bft)
26.08.2016 08:56 20,2 C 20,2 C 88 % 1016,9 hPa 0,0 mm 0,3 km/h (0 Bft) O 86 1 min 0,000 mm 1,8 UV-I 353 W/m 18,1 C 1,6 km/h (1 Bft)
26.08.2016 08:57 20,3 C 20,3 C 88 % 1016,9 hPa 0,0 mm 0,9 km/h (0 Bft) O 86 1 min 0,000 mm 1,8 UV-I 360 W/m 18,2 C 1,6 km/h (1 Bft)
26.08.2016 08:58 20,3 C 20,3 C 87 % 1016,9 hPa 0,0 mm 0,7 km/h (0 Bft) O 86 1 min 0,000 mm 1,9 UV-I 362 W/m 18,1 C 1,6 km/h (1 Bft)
26.08.2016 08:59 20,3 C 20,3 C 89 % 1016,9 hPa 0,0 mm 0,6 km/h (0 Bft) O 86 1 min 0,000 mm 1,9 UV-I 366 W/m 18,4 C 1,6 km/h (1 Bft)
26.08.2016 09:00 20,3 C 20,3 C 88 % 1016,9 hPa 0,0 mm 0,3 km/h (0 Bft) O 86 1 min 0,000 mm 1,9 UV-I 369 W/m 18,2 C 1,6 km/h (1 Bft)
26.08.2016 09:01 20,4 C 20,4 C 89 % 1016,9 hPa 0,0 mm 0,3 km/h (0 Bft) O 86 1 min 0,152 mm 1,9 UV-I 371 W/m 18,5 C 1,6 km/h (1 Bft)
26.08.2016 09:02 20,4 C 20,5 C 90 % 1016,9 hPa 0,0 mm 0,3 km/h (0 Bft) O 86 1 min 0,001 mm 2,0 UV-I 374 W/m 18,7 C 1,6 km/h (1 Bft)
26.08.2016 09:03 20,6 C 20,6 C 88 % 1016,9 hPa 0,0 mm 0,0 km/h (0 Bft) O 86 1 min 0,000 mm 2,0 UV-I 380 W/m 18,5 C 0,0 km/h (0 Bft)
26.08.2016 09:04 20,7 C 20,7 C 90 % 1016,9 hPa 0,0 mm 0,1 km/h (0 Bft) O 86 1 min 0,000 mm 2,0 UV-I 381 W/m 19,0 C 1,6 km/h (1 Bft)
26.08.2016 09:05 20,7 C 20,7 C 89 % 1016,9 hPa 0,0 mm 0,6 km/h (0 Bft) O 86 1 min 0,000 mm 2,1 UV-I 383 W/m 18,8 C 1,6 km/h (1 Bft)
26.08.2016 09:06 20,7 C 20,7 C 86 % 1016,9 hPa 0,0 mm 1,0 km/h (0 Bft) O 86 1 min 0,000 mm 2,1 UV-I 383 W/m 18,3 C 1,6 km/h (1 Bft)
26.08.2016 09:07 20,8 C 20,8 C 89 % 1016,9 hPa 0,0 mm 0,1 km/h (0 Bft) O 86 1 min 0,000 mm 2,1 UV-I 388 W/m 18,9 C 1,6 km/h (1 Bft)
26.08.2016 09:08 20,8 C 20,8 C 88 % 1016,9 hPa 0,0 mm 0,1 km/h (0 Bft) O 86 1 min 0,000 mm 2,1 UV-I 394 W/m 18,7 C 1,6 km/h (1 Bft)
26.08.2016 09:09 20,9 C 20,9 C 87 % 1016,9 hPa 0,0 mm 0,0 km/h (0 Bft) O 86 1 min 0,000 mm 2,1 UV-I 397 W/m 18,7 C 0,0 km/h (0 Bft)
26.08.2016 09:10 21,1 C 21,1 C 86 % 1016,9 hPa 0,0 mm 0,0 km/h (0 Bft) O 86 1 min 0,000 mm 2,2 UV-I 399 W/m 18,7 C 0,0 km/h (0 Bft)
26.08.2016 09:11 21,2 C 21,2 C 87 % 1016,9 hPa 0,0 mm 0,0 km/h (0 Bft) O 86 1 min 0,000 mm 2,2 UV-I 401 W/m 18,9 C 0,0 km/h (0 Bft)
26.08.2016 09:12 21,3 C 21,3 C 88 % 1016,9 hPa 0,0 mm 0,0 km/h (0 Bft) O 86 1 min 0,000 mm 2,2 UV-I 403 W/m 19,2 C 0,0 km/h (0 Bft)
26.08.2016 09:13 21,4 C 21,4 C 85 % 1016,9 hPa 0,0 mm 0,4 km/h (0 Bft) O 86 1 min 0,000 mm 2,2 UV-I 406 W/m 18,8 C 1,6 km/h (1 Bft)
26.08.2016 09:14 21,5 C 21,5 C 86 % 1016,9 hPa 0,0 mm 0,6 km/h (0 Bft) O 86 1 min 0,000 mm 2,2 UV-I 411 W/m 19,1 C 1,6 km/h (1 Bft)
26.08.2016 09:15 21,4 C 21,5 C 85 % 1016,9 hPa 0,0 mm 0,8 km/h (0 Bft) O 86 1 min 0,000 mm 2,3 UV-I 415 W/m 18,8 C 1,6 km/h (1 Bft)
26.08.2016 09:16 21,4 C 21,4 C 84 % 1016,9 hPa 0,0 mm 0,4 km/h (0 Bft) O 86 1 min 0,000 mm 2,3 UV-I 417 W/m 18,6 C 1,6 km/h (1 Bft)
26.08.2016 09:17 21,3 C 21,4 C 85 % 1016,9 hPa 0,0 mm 0,0 km/h (0 Bft) O 86 1 min 0,000 mm 2,3 UV-I 420 W/m 18,7 C 0,0 km/h (0 Bft)
26.08.2016 09:18 21,2 C 21,3 C 85 % 1016,9 hPa 0,0 mm 0,3 km/h (0 Bft) O 86 1 min 0,000 mm 2,3 UV-I 422 W/m 18,6 C 1,6 km/h (1 Bft)
26.08.2016 09:19 21,2 C 21,2 C 85 % 1016,9 hPa 0,0 mm 0,7 km/h (0 Bft) O 86 1 min 0,000 mm 2,4 UV-I 424 W/m 18,6 C 1,6 km/h (1 Bft)
26.08.2016 09:20 21,3 C 21,3 C 87 % 1016,9 hPa 0,0 mm 0,3 km/h (0 Bft) O 86 1 min 0,000 mm 2,4 UV-I 429 W/m 19,0 C 1,6 km/h (1 Bft)
26.08.2016 09:21 21,3 C 21,3 C 85 % 1016,9 hPa 0,0 mm 0,0 km/h (0 Bft) O 86 1 min 0,000 mm 2,4 UV-I 431 W/m 18,7 C 0,0 km/h (0 Bft)
26.08.2016 09:22 21,4 C 21,4 C 85 % 1016,9 hPa 0,0 mm 0,1 km/h (0 Bft) O 86 1 min 0,000 mm 2,4 UV-I 434 W/m 18,8 C 1,6 km/h (1 Bft)
26.08.2016 09:23 21,5 C 21,5 C 86 % 1016,9 hPa 0,0 mm 0,0 km/h (0 Bft) O 86 1 min 0,000 mm 2,5 UV-I 436 W/m 19,1 C 0,0 km/h (0 Bft)
26.08.2016 09:24 21,6 C 21,6 C 84 % 1016,9 hPa 0,0 mm 0,1 km/h (0 Bft) O 86 1 min 0,000 mm 2,5 UV-I 438 W/m 18,8 C 1,6 km/h (1 Bft)
26.08.2016 09:25 21,6 C 21,6 C 85 % 1016,9 hPa 0,0 mm 0,1 km/h (0 Bft) O 86 1 min 0,000 mm 2,5 UV-I 441 W/m 19,0 C 1,6 km/h (1 Bft)
26.08.2016 09:26 21,7 C 21,7 C 84 % 1016,9 hPa 0,0 mm 0,6 km/h (0 Bft) O 86 1 min 0,000 mm 2,5 UV-I 445 W/m 18,9 C 1,6 km/h (1 Bft)
26.08.2016 09:27 21,7 C 21,7 C 85 % 1016,9 hPa 0,0 mm 1,4 km/h (1 Bft) O 86 1 min 0,000 mm 2,6 UV-I 448 W/m 19,1 C 1,6 km/h (1 Bft)
26.08.2016 09:28 21,7 C 21,7 C 84 % 1016,8 hPa 0,0 mm 1,1 km/h (1 Bft) O 86 1 min 0,000 mm 2,6 UV-I 450 W/m 18,9 C 1,6 km/h (1 Bft)
26.08.2016 09:29 21,7 C 21,7 C 84 % 1016,9 hPa 0,0 mm 0,4 km/h (0 Bft) O 86 1 min 0,000 mm 2,6 UV-I 452 W/m 18,9 C 1,6 km/h (1 Bft)
26.08.2016 09:30 21,8 C 21,8 C 84 % 1016,8 hPa 0,0 mm 0,6 km/h (0 Bft) O 86 1 min 0,000 mm 2,6 UV-I 455 W/m 19,0 C 1,6 km/h (1 Bft)
26.08.2016 09:31 21,8 C 21,8 C 85 % 1016,8 hPa 0,0 mm 0,3 km/h (0 Bft) O 86 1 min 0,000 mm 2,6 UV-I 457 W/m 19,2 C 1,6 km/h (1 Bft)
26.08.2016 09:32 21,8 C 21,8 C 84 % 1016,9 hPa 0,0 mm 0,3 km/h (0 Bft) O 86 1 min 0,000 mm 2,7 UV-I 462 W/m 19,0 C 1,6 km/h (1 Bft)
26.08.2016 09:33 21,9 C 21,9 C 83 % 1016,8 hPa 0,0 mm 1,1 km/h (1 Bft) O 86 1 min 0,000 mm 2,7 UV-I 464 W/m 18,9 C 1,6 km/h (1 Bft)
26.08.2016 09:34 22,0 C 22,0 C 84 % 1016,9 hPa 0,0 mm 1,4 km/h (1 Bft) O 86 1 min 0,000 mm 2,7 UV-I 466 W/m 19,2 C 1,6 km/h (1 Bft)
26.08.2016 09:35 22,1 C 22,1 C 84 % 1016,9 hPa 0,0 mm 1,3 km/h (1 Bft) O 86 1 min 0,000 mm 2,7 UV-I 468 W/m 19,3 C 1,6 km/h (1 Bft)
26.08.2016 09:36 22,2 C 22,2 C 83 % 1016,9 hPa 0,0 mm 1,0 km/h (0 Bft) O 86 1 min 0,000 mm 2,8 UV-I 471 W/m 19,2 C 1,6 km/h (1 Bft)
26.08.2016 09:37 22,2 C 22,2 C 83 % 1016,9 hPa 0,0 mm 0,1 km/h (0 Bft) O 86 1 min 0,000 mm 2,8 UV-I 475 W/m 19,2 C 1,6 km/h (1 Bft)
26.08.2016 09:38 22,3 C 22,3 C 84 % 1016,9 hPa 0,0 mm 0,3 km/h (0 Bft) O 86 1 min 0,000 mm 2,8 UV-I 476 W/m 19,5 C 1,6 km/h (1 Bft)
26.08.2016 09:39 22,4 C 22,4 C 83 % 1016,9 hPa 0,0 mm 0,4 km/h (0 Bft) O 86 1 min 0,000 mm 2,8 UV-I 478 W/m 19,4 C 1,6 km/h (1 Bft)
26.08.2016 09:40 22,5 C 22,5 C 84 % 1016,9 hPa 0,0 mm 1,3 km/h (1 Bft) O 86 1 min 0,000 mm 2,9 UV-I 482 W/m 19,7 C 1,6 km/h (1 Bft)
26.08.2016 09:41 22,6 C 22,6 C 83 % 1016,9 hPa 0,0 mm 0,7 km/h (0 Bft) O 86 1 min 0,000 mm 2,9 UV-I 483 W/m 19,6 C 1,6 km/h (1 Bft)
26.08.2016 09:42 22,6 C 22,6 C 82 % 1016,9 hPa 0,0 mm 0,8 km/h (0 Bft) O 86 1 min 0,000 mm 2,9 UV-I 487 W/m 19,4 C 1,6 km/h (1 Bft)
26.08.2016 09:43 22,6 C 22,6 C 84 % 1016,9 hPa 0,0 mm 1,0 km/h (0 Bft) O 86 1 min 0,000 mm 2,9 UV-I 489 W/m 19,8 C 1,6 km/h (1 Bft)
26.08.2016 09:44 22,7 C 22,7 C 82 % 1016,8 hPa 0,0 mm 0,0 km/h (0 Bft) O 86 1 min 0,000 mm 3,0 UV-I 492 W/m 19,5 C 0,0 km/h (0 Bft)
26.08.2016 09:45 22,7 C 22,7 C 81 % 1016,8 hPa 0,0 mm 0,0 km/h (0 Bft) O 86 1 min 0,000 mm 3,0 UV-I 496 W/m 19,3 C 0,0 km/h (0 Bft)
26.08.2016 09:46 22,9 C 22,9 C 80 % 1016,8 hPa 0,0 mm 0,0 km/h (0 Bft) O 86 1 min 0,000 mm 3,0 UV-I 499 W/m 19,3 C 0,0 km/h (0 Bft)
26.08.2016 09:47 23,0 C 23,0 C 81 % 1016,8 hPa 0,0 mm 0,0 km/h (0 Bft) O 86 1 min 0,000 mm 3,0 UV-I 501 W/m 19,6 C 0,0 km/h (0 Bft)
26.08.2016 09:48 23,1 C 23,1 C 80 % 1016,8 hPa 0,0 mm 0,0 km/h (0 Bft) O 86 1 min 0,000 mm 3,1 UV-I 503 W/m 19,5 C 0,0 km/h (0 Bft)
26.08.2016 09:49 23,0 C 23,1 C 81 % 1016,8 hPa 0,0 mm 0,0 km/h (0 Bft) O 86 1 min 0,000 mm 3,1 UV-I 506 W/m 19,6 C 0,0 km/h (0 Bft)
26.08.2016 09:50 22,9 C 23,0 C 81 % 1016,8 hPa 0,0 mm 0,0 km/h (0 Bft) O 86 1 min 0,000 mm 3,1 UV-I 510 W/m 19,5 C 0,0 km/h (0 Bft)
26.08.2016 09:51 22,7 C 22,9 C 82 % 1016,8 hPa 0,0 mm 0,0 km/h (0 Bft) O 86 1 min 0,000 mm 3,1 UV-I 512 W/m 19,5 C 0,0 km/h (0 Bft)
26.08.2016 09:52 22,6 C 22,7 C 81 % 1016,8 hPa 0,0 mm 0,0 km/h (0 Bft) O 86 1 min 0,000 mm 3,1 UV-I 513 W/m 19,2 C 0,0 km/h (0 Bft)
26.08.2016 09:53 22,6 C 22,6 C 81 % 1016,8 hPa 0,0 mm 0,0 km/h (0 Bft) O 86 1 min 0,000 mm 3,2 UV-I 515 W/m 19,2 C 0,0 km/h (0 Bft)
26.08.2016 09:54 22,6 C 22,6 C 81 % 1016,8 hPa 0,0 mm 0,0 km/h (0 Bft) O 86 1 min 0,000 mm 3,2 UV-I 515 W/m 19,2 C 0,0 km/h (0 Bft)
26.08.2016 09:55 22,7 C 22,7 C 81 % 1016,8 hPa 0,0 mm 0,0 km/h (0 Bft) O 86 1 min 0,000 mm 3,2 UV-I 520 W/m 19,3 C 0,0 km/h (0 Bft)
26.08.2016 09:56 22,8 C 22,8 C 81 % 1016,8 hPa 0,0 mm 0,0 km/h (0 Bft) O 86 1 min 0,000 mm 3,2 UV-I 524 W/m 19,4 C 0,0 km/h (0 Bft)
26.08.2016 09:57 23,0 C 23,0 C 85 % 1016,9 hPa 0,0 mm 0,0 km/h (0 Bft) O 86 1 min 0,000 mm 3,2 UV-I 526 W/m 20,3 C 0,0 km/h (0 Bft)
26.08.2016 09:58 23,2 C 23,2 C 83 % 1016,8 hPa 0,0 mm 0,4 km/h (0 Bft) O 88 1 min 0,000 mm 3,3 UV-I 527 W/m 20,1 C 3,2 km/h (1 Bft)
26.08.2016 09:59 23,5 C 23,5 C 83 % 1016,9 hPa 0,0 mm 1,9 km/h (1 Bft) O 88 1 min 0,000 mm 3,3 UV-I 527 W/m 20,4 C 3,2 km/h (1 Bft)
26.08.2016 10:00 23,8 C 23,8 C 80 % 1016,9 hPa 0,0 mm 0,8 km/h (0 Bft) O 94 1 min 0,000 mm 3,3 UV-I 529 W/m 20,1 C 1,6 km/h (1 Bft)
26.08.2016 10:01 24,2 C 24,2 C 76 % 1016,9 hPa 0,0 mm 2,2 km/h (1 Bft) W-NW 295 1 min 0,279 mm 3,3 UV-I 534 W/m 19,7 C 4,8 km/h (1 Bft)
26.08.2016 10:02 24,4 C 24,4 C 80 % 1016,9 hPa 0,0 mm 1,7 km/h (1 Bft) W 271 1 min 0,000 mm 3,4 UV-I 536 W/m 20,7 C 3,2 km/h (1 Bft)
26.08.2016 10:04 24,1 C 24,4 C 75 % 1016,9 hPa 0,0 mm 1,3 km/h (1 Bft) NW 323 2 min 0,000 mm 3,4 UV-I 541 W/m 19,4 C 4,8 km/h (1 Bft)
26.08.2016 10:05 23,9 C 24,1 C 81 % 1016,9 hPa 0,0 mm 4,6 km/h (1 Bft) NW 313 1 min 0,000 mm 3,4 UV-I 543 W/m 20,4 C 6,4 km/h (2 Bft)
26.08.2016 10:06 23,9 C 23,9 C 77 % 1017,0 hPa 0,0 mm 1,4 km/h (1 Bft) NW 313 1 min 0,000 mm 3,5 UV-I 545 W/m 19,6 C 3,2 km/h (1 Bft)
26.08.2016 10:07 24,1 C 24,1 C 75 % 1017,0 hPa 0,0 mm 0,9 km/h (0 Bft) NW 313 1 min 0,000 mm 3,5 UV-I 548 W/m 19,4 C 1,6 km/h (1 Bft)
26.08.2016 10:08 24,2 C 24,2 C 79 % 1016,9 hPa 0,0 mm 1,9 km/h (1 Bft) NW 317 1 min 0,000 mm 3,5 UV-I 550 W/m 20,3 C 4,8 km/h (1 Bft)
26.08.2016 10:09 24,3 C 24,3 C 74 % 1016,9 hPa 0,0 mm 6,0 km/h (2 Bft) W 277 1 min 0,000 mm 3,5 UV-I 552 W/m 19,4 C 9,7 km/h (2 Bft)
26.08.2016 10:10 24,4 C 24,4 C 77 % 1016,9 hPa 0,0 mm 4,5 km/h (1 Bft) NW 308 1 min 0,000 mm 3,6 UV-I 554 W/m 20,1 C 6,4 km/h (2 Bft)
26.08.2016 10:11 24,6 C 24,6 C 76 % 1016,9 hPa 0,0 mm 6,5 km/h (2 Bft) NW 304 1 min 0,000 mm 3,6 UV-I 555 W/m 20,1 C 9,7 km/h (2 Bft)
26.08.2016 10:12 24,7 C 24,7 C 68 % 1016,9 hPa 0,0 mm 4,8 km/h (1 Bft) W 279 1 min 0,000 mm 3,6 UV-I 559 W/m 18,4 C 6,4 km/h (2 Bft)
26.08.2016 10:13 24,8 C 24,8 C 74 % 1016,9 hPa 0,0 mm 2,6 km/h (1 Bft) NW 313 1 min 0,000 mm 3,6 UV-I 563 W/m 19,8 C 3,2 km/h (1 Bft)
26.08.2016 10:14 24,9 C 24,9 C 70 % 1016,9 hPa 0,0 mm 7,7 km/h (2 Bft) W 281 1 min 0,000 mm 3,6 UV-I 564 W/m 19,0 C 9,7 km/h (2 Bft)
26.08.2016 10:15 25,1 C 25,1 C 67 % 1016,9 hPa 0,0 mm 6,6 km/h (2 Bft) W-NW 283 1 min 0,000 mm 3,7 UV-I 568 W/m 18,5 C 11,3 km/h (2 Bft)
26.08.2016 10:16 25,1 C 25,1 C 67 % 1017,0 hPa 0,0 mm 4,1 km/h (1 Bft) NW 313 1 min 0,000 mm 3,7 UV-I 570 W/m 18,5 C 6,4 km/h (2 Bft)
26.08.2016 10:17 25,2 C 25,2 C 70 % 1017,0 hPa 0,0 mm 3,9 km/h (1 Bft) NW 305 1 min 0,000 mm 3,7 UV-I 571 W/m 19,3 C 8,0 km/h (2 Bft)
26.08.2016 10:18 25,2 C 25,2 C 68 % 1016,9 hPa 0,0 mm 5,2 km/h (1 Bft) W-NW 290 1 min 0,000 mm 3,8 UV-I 573 W/m 18,9 C 6,4 km/h (2 Bft)
26.08.2016 10:19 25,3 C 25,3 C 70 % 1017,0 hPa 0,0 mm 4,0 km/h (1 Bft) W-NW 292 1 min 0,000 mm 3,8 UV-I 575 W/m 19,4 C 6,4 km/h (2 Bft)
26.08.2016 10:20 25,3 C 25,3 C 70 % 1017,0 hPa 0,0 mm 5,0 km/h (1 Bft) NW 316 1 min 0,000 mm 3,8 UV-I 578 W/m 19,4 C 6,4 km/h (2 Bft)
26.08.2016 10:21 25,3 C 25,3 C 68 % 1017,0 hPa 0,0 mm 4,5 km/h (1 Bft) W-NW 290 1 min 0,000 mm 3,8 UV-I 580 W/m 19,0 C 6,4 km/h (2 Bft)
26.08.2016 10:22 25,3 C 25,3 C 67 % 1017,0 hPa 0,0 mm 5,4 km/h (1 Bft) W-NW 302 1 min 0,000 mm 3,8 UV-I 582 W/m 18,7 C 6,4 km/h (2 Bft)
26.08.2016 10:23 25,3 C 25,3 C 69 % 1017,0 hPa 0,0 mm 5,5 km/h (1 Bft) NW 323 1 min 0,000 mm 3,9 UV-I 582 W/m 19,2 C 8,0 km/h (2 Bft)
26.08.2016 10:24 25,4 C 25,4 C 68 % 1017,0 hPa 0,0 mm 5,1 km/h (1 Bft) W 277 1 min 0,000 mm 3,9 UV-I 587 W/m 19,1 C 9,7 km/h (2 Bft)
26.08.2016 10:25 25,4 C 25,4 C 67 % 1017,0 hPa 0,0 mm 5,6 km/h (1 Bft) NW 314 1 min 0,000 mm 3,9 UV-I 589 W/m 18,8 C 11,3 km/h (2 Bft)
26.08.2016 10:26 25,5 C 25,5 C 69 % 1017,0 hPa 0,0 mm 7,1 km/h (2 Bft) NW 306 1 min 0,000 mm 3,9 UV-I 591 W/m 19,4 C 11,3 km/h (2 Bft)
26.08.2016 10:27 25,6 C 25,6 C 67 % 1017,0 hPa 0,0 mm 8,2 km/h (2 Bft) NW 311 1 min 0,000 mm 3,9 UV-I 592 W/m 19,0 C 12,9 km/h (3 Bft)
26.08.2016 10:28 25,6 C 25,6 C 66 % 1017,0 hPa 0,0 mm 5,1 km/h (1 Bft) W-NW 294 1 min 0,000 mm 4,0 UV-I 592 W/m 18,8 C 8,0 km/h (2 Bft)
26.08.2016 10:29 25,6 C 25,6 C 66 % 1017,0 hPa 0,0 mm 6,4 km/h (2 Bft) NW 315 1 min 0,000 mm 4,0 UV-I 596 W/m 18,8 C 9,7 km/h (2 Bft)
26.08.2016 10:30 25,6 C 25,7 C 68 % 1017,0 hPa 0,0 mm 5,5 km/h (1 Bft) W-SW 244 1 min 0,000 mm 4,0 UV-I 598 W/m 19,2 C 8,0 km/h (2 Bft)
26.08.2016 10:31 25,6 C 25,7 C 66 % 1017,0 hPa 0,0 mm 6,8 km/h (2 Bft) NW 313 1 min 0,000 mm 4,0 UV-I 601 W/m 18,8 C 11,3 km/h (2 Bft)
26.08.2016 10:32 25,6 C 25,6 C 67 % 1017,0 hPa 0,0 mm 7,6 km/h (2 Bft) W 281 1 min 0,000 mm 4,0 UV-I 603 W/m 19,0 C 12,9 km/h (3 Bft)
26.08.2016 10:33 25,6 C 25,6 C 67 % 1017,0 hPa 0,0 mm 5,7 km/h (1 Bft) W 275 1 min 0,000 mm 4,1 UV-I 605 W/m 19,0 C 11,3 km/h (2 Bft)
26.08.2016 10:34 25,6 C 25,6 C 65 % 1017,1 hPa 0,0 mm 5,2 km/h (1 Bft) NW 317 1 min 0,000 mm 4,1 UV-I 606 W/m 18,5 C 6,4 km/h (2 Bft)
26.08.2016 10:35 25,5 C 25,6 C 66 % 1017,1 hPa 0,0 mm 6,1 km/h (2 Bft) W-NW 298 1 min 0,000 mm 4,1 UV-I 608 W/m 18,7 C 8,0 km/h (2 Bft)
26.08.2016 10:36 25,6 C 25,6 C 66 % 1017,1 hPa 0,0 mm 5,3 km/h (1 Bft) W-NW 283 1 min 0,000 mm 4,1 UV-I 612 W/m 18,8 C 6,4 km/h (2 Bft)
26.08.2016 10:37 25,5 C 25,6 C 64 % 1017,1 hPa 0,0 mm 5,5 km/h (1 Bft) W-NW 297 1 min 0,000 mm 4,2 UV-I 613 W/m 18,2 C 9,7 km/h (2 Bft)
26.08.2016 10:38 25,6 C 25,6 C 68 % 1017,1 hPa 0,0 mm 4,8 km/h (1 Bft) W 277 1 min 0,000 mm 4,2 UV-I 615 W/m 19,2 C 9,7 km/h (2 Bft)
26.08.2016 10:39 25,6 C 25,6 C 67 % 1017,1 hPa 0,0 mm 7,9 km/h (2 Bft) W 264 1 min 0,000 mm 4,2 UV-I 617 W/m 19,0 C 11,3 km/h (2 Bft)
26.08.2016 10:40 25,6 C 25,6 C 64 % 1017,1 hPa 0,0 mm 5,6 km/h (1 Bft) NW 315 1 min 0,000 mm 4,2 UV-I 617 W/m 18,3 C 8,0 km/h (2 Bft)
26.08.2016 10:41 25,7 C 25,7 C 65 % 1017,1 hPa 0,0 mm 8,3 km/h (2 Bft) NW 310 1 min 0,000 mm 4,2 UV-I 619 W/m 18,6 C 11,3 km/h (2 Bft)
26.08.2016 10:42 25,7 C 25,7 C 66 % 1017,2 hPa 0,0 mm 5,2 km/h (1 Bft) W 274 1 min 0,000 mm 4,2 UV-I 622 W/m 18,9 C 6,4 km/h (2 Bft)
26.08.2016 10:43 25,7 C 25,7 C 67 % 1017,2 hPa 0,0 mm 4,0 km/h (1 Bft) W 273 1 min 0,000 mm 4,3 UV-I 624 W/m 19,1 C 4,8 km/h (1 Bft)
26.08.2016 10:44 25,6 C 25,7 C 65 % 1017,2 hPa 0,0 mm 5,1 km/h (1 Bft) NW 319 1 min 0,000 mm 4,3 UV-I 626 W/m 18,5 C 6,4 km/h (2 Bft)
26.08.2016 10:45 25,6 C 25,7 C 67 % 1017,2 hPa 0,0 mm 5,5 km/h (1 Bft) W-NW 291 1 min 0,000 mm 4,3 UV-I 628 W/m 19,0 C 9,7 km/h (2 Bft)
26.08.2016 10:46 25,7 C 25,7 C 66 % 1017,2 hPa 0,0 mm 7,2 km/h (2 Bft) NW 317 1 min 0,000 mm 4,3 UV-I 629 W/m 18,9 C 12,9 km/h (3 Bft)
26.08.2016 10:47 25,7 C 25,7 C 67 % 1017,2 hPa 0,0 mm 5,1 km/h (1 Bft) W 277 1 min 0,000 mm 4,4 UV-I 631 W/m 19,1 C 9,7 km/h (2 Bft)
26.08.2016 10:48 25,7 C 25,7 C 64 % 1017,2 hPa 0,0 mm 6,1 km/h (2 Bft) W 279 1 min 0,000 mm 4,4 UV-I 633 W/m 18,4 C 9,7 km/h (2 Bft)
26.08.2016 10:49 25,7 C 25,7 C 65 % 1017,2 hPa 0,0 mm 8,0 km/h (2 Bft) W-NW 298 1 min 0,000 mm 4,4 UV-I 636 W/m 18,6 C 11,3 km/h (2 Bft)
26.08.2016 10:50 25,8 C 25,8 C 66 % 1017,1 hPa 0,0 mm 7,6 km/h (2 Bft) W-NW 286 1 min 0,000 mm 4,4 UV-I 638 W/m 19,0 C 11,3 km/h (2 Bft)
26.08.2016 10:51 25,8 C 25,8 C 65 % 1017,1 hPa 0,0 mm 5,0 km/h (1 Bft) W 275 1 min 0,000 mm 4,4 UV-I 640 W/m 18,7 C 8,0 km/h (2 Bft)
26.08.2016 10:52 25,8 C 25,8 C 67 % 1017,2 hPa 0,0 mm 5,6 km/h (1 Bft) W 267 1 min 0,000 mm 4,5 UV-I 642 W/m 19,2 C 9,7 km/h (2 Bft)
26.08.2016 10:53 25,8 C 25,8 C 64 % 1017,2 hPa 0,0 mm 3,2 km/h (1 Bft) W-NW 300 1 min 0,000 mm 4,5 UV-I 642 W/m 18,5 C 4,8 km/h (1 Bft)
26.08.2016 10:54 25,8 C 25,8 C 67 % 1017,2 hPa 0,0 mm 6,2 km/h (2 Bft) NW 319 1 min 0,000 mm 4,5 UV-I 643 W/m 19,2 C 9,7 km/h (2 Bft)
26.08.2016 10:55 25,8 C 25,8 C 67 % 1017,2 hPa 0,0 mm 3,4 km/h (1 Bft) W-NW 298 1 min 0,000 mm 4,5 UV-I 645 W/m 19,2 C 6,4 km/h (2 Bft)
26.08.2016 10:56 25,8 C 25,9 C 67 % 1017,2 hPa 0,0 mm 5,5 km/h (1 Bft) NW 306 1 min 0,000 mm 4,6 UV-I 649 W/m 19,2 C 9,7 km/h (2 Bft)
26.08.2016 10:57 25,9 C 25,9 C 65 % 1017,2 hPa 0,0 mm 3,9 km/h (1 Bft) W 271 1 min 0,000 mm 4,6 UV-I 649 W/m 18,8 C 6,4 km/h (2 Bft)
26.08.2016 10:58 25,8 C 25,9 C 65 % 1017,2 hPa 0,0 mm 3,3 km/h (1 Bft) W-NW 298 1 min 0,000 mm 4,6 UV-I 652 W/m 18,7 C 4,8 km/h (1 Bft)
26.08.2016 10:59 25,8 C 25,8 C 67 % 1017,2 hPa 0,0 mm 6,4 km/h (2 Bft) W-NW 294 1 min 0,000 mm 4,6 UV-I 652 W/m 19,2 C 9,7 km/h (2 Bft)
26.08.2016 11:00 25,8 C 25,8 C 63 % 1017,2 hPa 0,0 mm 3,8 km/h (1 Bft) W-NW 284 1 min 0,407 mm 4,6 UV-I 656 W/m 18,2 C 12,9 km/h (3 Bft)
26.08.2016 11:01 25,8 C 25,8 C 68 % 1017,3 hPa 0,0 mm 6,8 km/h (2 Bft) NW 317 1 min 0,000 mm 4,7 UV-I 657 W/m 19,4 C 11,3 km/h (2 Bft)
26.08.2016 11:02 25,8 C 25,8 C 66 % 1017,3 hPa 0,0 mm 4,6 km/h (1 Bft) W-NW 293 1 min 0,000 mm 4,7 UV-I 659 W/m 19,0 C 8,0 km/h (2 Bft)
26.08.2016 11:03 25,9 C 25,9 C 66 % 1017,2 hPa 0,0 mm 8,0 km/h (2 Bft) W 271 1 min 0,000 mm 4,7 UV-I 661 W/m 19,0 C 16,1 km/h (3 Bft)
26.08.2016 11:04 25,9 C 25,9 C 66 % 1017,2 hPa 0,0 mm 7,1 km/h (2 Bft) W 275 1 min 0,000 mm 4,7 UV-I 663 W/m 19,0 C 14,5 km/h (3 Bft)
26.08.2016 11:05 25,9 C 25,9 C 64 % 1017,3 hPa 0,0 mm 7,0 km/h (2 Bft) W-NW 300 1 min 0,000 mm 4,7 UV-I 664 W/m 18,6 C 11,3 km/h (2 Bft)
26.08.2016 11:06 25,9 C 25,9 C 64 % 1017,3 hPa 0,0 mm 5,7 km/h (1 Bft) W-NW 292 1 min 0,000 mm 4,8 UV-I 666 W/m 18,6 C 11,3 km/h (2 Bft)
26.08.2016 11:07 25,9 C 25,9 C 63 % 1017,3 hPa 0,0 mm 6,5 km/h (2 Bft) W 263 1 min 0,000 mm 4,8 UV-I 666 W/m 18,3 C 11,3 km/h (2 Bft)
26.08.2016 11:08 25,9 C 25,9 C 65 % 1017,2 hPa 0,0 mm 6,1 km/h (2 Bft) W-SW 250 1 min 0,000 mm 4,8 UV-I 670 W/m 18,8 C 8,0 km/h (2 Bft)
26.08.2016 11:09 25,9 C 25,9 C 67 % 1017,3 hPa 0,0 mm 9,0 km/h (2 Bft) W-SW 248 1 min 0,000 mm 4,8 UV-I 671 W/m 19,3 C 12,9 km/h (3 Bft)
26.08.2016 11:10 25,9 C 26,1 C 64 % 1017,3 hPa 0,0 mm 5,6 km/h (1 Bft) W-NW 299 1 min 0,000 mm 4,9 UV-I 671 W/m 18,6 C 11,3 km/h (2 Bft)
26.08.2016 11:11 26,0 C 26,0 C 65 % 1017,2 hPa 0,0 mm 7,3 km/h (2 Bft) W 279 1 min 0,000 mm 4,9 UV-I 677 W/m 18,9 C 11,3 km/h (2 Bft)
26.08.2016 11:12 26,1 C 26,1 C 67 % 1017,2 hPa 0,0 mm 9,1 km/h (2 Bft) W-SW 257 1 min 0,000 mm 4,9 UV-I 679 W/m 19,5 C 14,5 km/h (3 Bft)
26.08.2016 11:13 26,1 C 26,1 C 63 % 1017,2 hPa 0,0 mm 9,2 km/h (2 Bft) W-SW 238 1 min 0,000 mm 4,9 UV-I 680 W/m 18,5 C 14,5 km/h (3 Bft)
26.08.2016 11:14 26,0 C 26,1 C 60 % 1017,2 hPa 0,0 mm 3,8 km/h (1 Bft) W-NW 302 1 min 0,000 mm 4,9 UV-I 680 W/m 17,6 C 8,0 km/h (2 Bft)
26.08.2016 11:15 25,9 C 26,0 C 65 % 1017,2 hPa 0,0 mm 3,6 km/h (1 Bft) W-NW 284 1 min 0,000 mm 4,9 UV-I 682 W/m 18,8 C 9,7 km/h (2 Bft)
26.08.2016 11:16 26,0 C 26,0 C 63 % 1017,2 hPa 0,0 mm 8,3 km/h (2 Bft) NW 313 1 min 0,000 mm 4,9 UV-I 682 W/m 18,4 C 12,9 km/h (3 Bft)
26.08.2016 11:17 26,1 C 26,1 C 64 % 1017,2 hPa 0,0 mm 9,8 km/h (2 Bft) W-NW 283 1 min 0,000 mm 5,0 UV-I 686 W/m 18,7 C 14,5 km/h (3 Bft)
26.08.2016 11:18 26,1 C 26,1 C 65 % 1017,2 hPa 0,0 mm 11,5 km/h (2 Bft) W-NW 288 1 min 0,000 mm 5,0 UV-I 687 W/m 19,0 C 14,5 km/h (3 Bft)
26.08.2016 11:19 26,1 C 26,2 C 64 % 1017,2 hPa 0,0 mm 9,3 km/h (2 Bft) W-NW 287 1 min 0,000 mm 5,0 UV-I 689 W/m 18,7 C 12,9 km/h (3 Bft)
26.08.2016 11:20 26,1 C 26,2 C 65 % 1017,1 hPa 0,0 mm 8,2 km/h (2 Bft) W 275 1 min 0,000 mm 5,0 UV-I 689 W/m 19,0 C 14,5 km/h (3 Bft)
26.08.2016 11:21 26,0 C 26,1 C 61 % 1017,1 hPa 0,0 mm 5,1 km/h (1 Bft) W 269 1 min 0,000 mm 5,1 UV-I 693 W/m 17,9 C 6,4 km/h (2 Bft)
26.08.2016 11:22 25,9 C 26,0 C 63 % 1017,2 hPa 0,0 mm 6,4 km/h (2 Bft) W 281 1 min 0,000 mm 5,1 UV-I 694 W/m 18,3 C 9,7 km/h (2 Bft)
26.08.2016 11:23 25,9 C 25,9 C 62 % 1017,2 hPa 0,0 mm 4,2 km/h (1 Bft) W 261 1 min 0,000 mm 5,1 UV-I 696 W/m 18,0 C 9,7 km/h (2 Bft)
26.08.2016 11:24 25,9 C 26,0 C 64 % 1017,2 hPa 0,0 mm 7,2 km/h (2 Bft) W 276 1 min 0,000 mm 5,1 UV-I 698 W/m 18,6 C 11,3 km/h (2 Bft)
26.08.2016 11:25 26,1 C 26,1 C 65 % 1017,1 hPa 0,0 mm 4,6 km/h (1 Bft) W-SW 237 1 min 0,000 mm 5,1 UV-I 700 W/m 19,0 C 9,7 km/h (2 Bft)
26.08.2016 11:26 26,1 C 26,1 C 64 % 1017,2 hPa 0,0 mm 6,9 km/h (2 Bft) NW 317 1 min 0,000 mm 5,2 UV-I 701 W/m 18,7 C 12,9 km/h (3 Bft)
26.08.2016 11:27 26,1 C 26,1 C 65 % 1017,1 hPa 0,0 mm 4,9 km/h (1 Bft) W 274 1 min 0,000 mm 5,2 UV-I 701 W/m 19,0 C 12,9 km/h (3 Bft)
26.08.2016 11:28 26,2 C 26,2 C 65 % 1017,1 hPa 0,0 mm 8,2 km/h (2 Bft) NW 317 1 min 0,000 mm 5,2 UV-I 703 W/m 19,1 C 12,9 km/h (3 Bft)
26.08.2016 11:29 26,2 C 26,2 C 65 % 1017,2 hPa 0,0 mm 9,3 km/h (2 Bft) NW 325 1 min 0,000 mm 5,2 UV-I 705 W/m 19,1 C 14,5 km/h (3 Bft)
26.08.2016 11:30 26,3 C 26,3 C 64 % 1017,2 hPa 0,0 mm 7,8 km/h (2 Bft) W-NW 283 1 min 0,000 mm 5,2 UV-I 707 W/m 18,9 C 12,9 km/h (3 Bft)
26.08.2016 11:31 26,3 C 26,3 C 63 % 1017,2 hPa 0,0 mm 6,8 km/h (2 Bft) W-NW 291 1 min 0,000 mm 5,2 UV-I 707 W/m 18,7 C 9,7 km/h (2 Bft)
26.08.2016 11:32 26,3 C 26,3 C 65 % 1017,2 hPa 0,0 mm 6,1 km/h (2 Bft) NW 309 1 min 0,000 mm 5,3 UV-I 708 W/m 19,2 C 11,3 km/h (2 Bft)
26.08.2016 11:33 26,4 C 26,4 C 64 % 1017,2 hPa 0,0 mm 7,4 km/h (2 Bft) N-NW 331 1 min 0,000 mm 5,3 UV-I 708 W/m 19,0 C 14,5 km/h (3 Bft)
26.08.2016 11:34 26,4 C 26,4 C 66 % 1017,2 hPa 0,0 mm 8,8 km/h (2 Bft) NO 42 1 min 0,000 mm 5,3 UV-I 710 W/m 19,5 C 12,9 km/h (3 Bft)
26.08.2016 11:35 26,4 C 26,4 C 63 % 1017,2 hPa 0,0 mm 5,0 km/h (1 Bft) W-NW 298 1 min 0,000 mm 5,3 UV-I 712 W/m 18,8 C 9,7 km/h (2 Bft)
26.08.2016 11:36 26,4 C 26,4 C 65 % 1017,1 hPa 0,0 mm 5,4 km/h (1 Bft) W 278 1 min 0,000 mm 5,3 UV-I 714 W/m 19,3 C 9,7 km/h (2 Bft)
26.08.2016 11:37 26,4 C 26,4 C 65 % 1017,1 hPa 0,0 mm 6,1 km/h (2 Bft) NW 315 1 min 0,000 mm 5,3 UV-I 714 W/m 19,3 C 9,7 km/h (2 Bft)
26.08.2016 11:38 26,4 C 26,4 C 67 % 1017,1 hPa 0,0 mm 4,7 km/h (1 Bft) W-NW 294 1 min 0,000 mm 5,4 UV-I 715 W/m 19,8 C 11,3 km/h (2 Bft)
26.08.2016 11:39 26,4 C 26,4 C 64 % 1017,2 hPa 0,0 mm 8,6 km/h (2 Bft) W-NW 296 1 min 0,000 mm 5,4 UV-I 717 W/m 19,0 C 12,9 km/h (3 Bft)
26.08.2016 11:40 26,4 C 26,4 C 66 % 1017,1 hPa 0,0 mm 7,1 km/h (2 Bft) NW 319 1 min 0,000 mm 5,4 UV-I 719 W/m 19,5 C 11,3 km/h (2 Bft)
26.08.2016 11:41 26,4 C 26,4 C 63 % 1017,1 hPa 0,0 mm 5,6 km/h (1 Bft) W-NW 290 1 min 0,000 mm 5,4 UV-I 719 W/m 18,8 C 8,0 km/h (2 Bft)
26.08.2016 11:42 26,4 C 26,4 C 63 % 1017,1 hPa 0,0 mm 7,3 km/h (2 Bft) W-NW 282 1 min 0,000 mm 5,4 UV-I 721 W/m 18,8 C 11,3 km/h (2 Bft)
26.08.2016 11:43 26,4 C 26,4 C 63 % 1017,1 hPa 0,0 mm 6,5 km/h (2 Bft) W-NW 298 1 min 0,000 mm 5,4 UV-I 722 W/m 18,8 C 11,3 km/h (2 Bft)
26.08.2016 11:44 26,4 C 26,4 C 63 % 1017,1 hPa 0,0 mm 8,6 km/h (2 Bft) W-NW 295 1 min 0,000 mm 5,5 UV-I 724 W/m 18,8 C 12,9 km/h (3 Bft)
26.08.2016 11:45 26,4 C 26,4 C 64 % 1017,1 hPa 0,0 mm 6,1 km/h (2 Bft) NW 317 1 min 0,000 mm 5,5 UV-I 726 W/m 19,0 C 9,7 km/h (2 Bft)
26.08.2016 11:46 26,6 C 26,6 C 67 % 1017,1 hPa 0,0 mm 6,6 km/h (2 Bft) W-NW 292 1 min 0,000 mm 5,5 UV-I 726 W/m 20,0 C 12,9 km/h (3 Bft)
26.08.2016 11:47 26,6 C 26,6 C 64 % 1017,1 hPa 0,0 mm 8,2 km/h (2 Bft) W 281 1 min 0,000 mm 5,5 UV-I 728 W/m 19,2 C 12,9 km/h (3 Bft)
26.08.2016 11:48 26,5 C 26,6 C 62 % 1017,1 hPa 0,0 mm 4,2 km/h (1 Bft) N 5 1 min 0,000 mm 5,6 UV-I 731 W/m 18,6 C 9,7 km/h (2 Bft)
26.08.2016 11:49 26,5 C 26,6 C 65 % 1017,1 hPa 0,0 mm 5,6 km/h (1 Bft) NW 307 1 min 0,000 mm 5,6 UV-I 731 W/m 19,4 C 8,0 km/h (2 Bft)
26.08.2016 11:50 26,6 C 26,6 C 64 % 1017,1 hPa 0,0 mm 6,9 km/h (2 Bft) W-NW 288 1 min 0,000 mm 5,6 UV-I 733 W/m 19,2 C 11,3 km/h (2 Bft)
26.08.2016 11:51 26,5 C 26,6 C 63 % 1017,1 hPa 0,0 mm 9,9 km/h (2 Bft) W-NW 289 1 min 0,000 mm 5,6 UV-I 735 W/m 18,9 C 14,5 km/h (3 Bft)
26.08.2016 11:52 26,5 C 26,6 C 63 % 1017,1 hPa 0,0 mm 5,2 km/h (1 Bft) W-SW 252 1 min 0,000 mm 5,6 UV-I 735 W/m 18,9 C 9,7 km/h (2 Bft)
26.08.2016 11:53 26,4 C 26,5 C 63 % 1017,1 hPa 0,0 mm 4,7 km/h (1 Bft) W-SW 250 1 min 0,000 mm 5,6 UV-I 737 W/m 18,8 C 11,3 km/h (2 Bft)
26.08.2016 11:54 26,4 C 26,4 C 63 % 1017,1 hPa 0,0 mm 8,2 km/h (2 Bft) W-SW 256 1 min 0,000 mm 5,6 UV-I 737 W/m 18,8 C 11,3 km/h (2 Bft)
26.08.2016 11:55 26,4 C 26,4 C 64 % 1017,1 hPa 0,0 mm 5,7 km/h (1 Bft) W 263 1 min 0,000 mm 5,6 UV-I 738 W/m 19,0 C 9,7 km/h (2 Bft)
26.08.2016 11:56 26,5 C 26,5 C 69 % 1017,1 hPa 0,0 mm 5,9 km/h (2 Bft) W-SW 257 1 min 0,000 mm 5,6 UV-I 738 W/m 20,3 C 9,7 km/h (2 Bft)
26.08.2016 11:57 26,6 C 26,6 C 65 % 1017,1 hPa 0,0 mm 8,4 km/h (2 Bft) W 271 1 min 0,000 mm 5,6 UV-I 738 W/m 19,5 C 16,1 km/h (3 Bft)
26.08.2016 11:58 26,6 C 26,7 C 64 % 1017,1 hPa 0,0 mm 7,8 km/h (2 Bft) W 276 1 min 0,000 mm 5,7 UV-I 742 W/m 19,2 C 12,9 km/h (3 Bft)
26.08.2016 11:59 26,7 C 26,7 C 64 % 1017,1 hPa 0,0 mm 7,0 km/h (2 Bft) W-NW 290 1 min 0,000 mm 5,7 UV-I 740 W/m 19,3 C 11,3 km/h (2 Bft)
26.08.2016 12:00 26,6 C 26,7 C 64 % 1017,0 hPa 0,0 mm 5,1 km/h (1 Bft) W-NW 284 1 min 0,000 mm 5,7 UV-I 742 W/m 19,2 C 6,4 km/h (2 Bft)
26.08.2016 12:01 26,7 C 26,7 C 65 % 1017,0 hPa 0,0 mm 5,0 km/h (1 Bft) W-SW 250 1 min 0,482 mm 5,7 UV-I 744 W/m 19,6 C 11,3 km/h (2 Bft)
26.08.2016 12:02 26,7 C 26,7 C 64 % 1017,1 hPa 0,0 mm 11,4 km/h (2 Bft) W 281 1 min 0,000 mm 5,7 UV-I 745 W/m 19,3 C 16,1 km/h (3 Bft)
26.08.2016 12:03 26,7 C 26,7 C 63 % 1017,1 hPa 0,0 mm 10,7 km/h (2 Bft) W 263 1 min 0,000 mm 5,8 UV-I 747 W/m 19,1 C 12,9 km/h (3 Bft)
26.08.2016 12:04 26,6 C 26,7 C 61 % 1017,1 hPa 0,0 mm 11,4 km/h (2 Bft) W-NW 289 1 min 0,000 mm 5,8 UV-I 747 W/m 18,4 C 14,5 km/h (3 Bft)
26.08.2016 12:05 26,6 C 26,7 C 64 % 1017,1 hPa 0,0 mm 5,7 km/h (1 Bft) W 277 1 min 0,000 mm 5,8 UV-I 749 W/m 19,2 C 9,7 km/h (2 Bft)
26.08.2016 12:06 26,6 C 26,6 C 63 % 1017,1 hPa 0,0 mm 9,3 km/h (2 Bft) W 267 1 min 0,000 mm 5,8 UV-I 749 W/m 19,0 C 14,5 km/h (3 Bft)
26.08.2016 12:07 26,6 C 26,6 C 64 % 1017,0 hPa 0,0 mm 8,8 km/h (2 Bft) W 265 1 min 0,000 mm 5,8 UV-I 751 W/m 19,2 C 12,9 km/h (3 Bft)
26.08.2016 12:09 26,5 C 26,6 C 62 % 1017,1 hPa 0,0 mm 7,0 km/h (2 Bft) W 279 2 min 0,000 mm 5,8 UV-I 754 W/m 18,6 C 14,5 km/h (3 Bft)
26.08.2016 12:10 26,6 C 26,6 C 66 % 1017,1 hPa 0,0 mm 7,1 km/h (2 Bft) W-NW 297 1 min 0,000 mm 5,8 UV-I 754 W/m 19,7 C 11,3 km/h (2 Bft)
26.08.2016 12:11 26,6 C 26,6 C 64 % 1017,0 hPa 0,0 mm 5,6 km/h (1 Bft) W 260 1 min 0,000 mm 5,8 UV-I 751 W/m 19,2 C 8,0 km/h (2 Bft)
26.08.2016 12:12 26,7 C 26,7 C 61 % 1017,1 hPa 0,0 mm 4,3 km/h (1 Bft) NW 310 1 min 0,000 mm 5,9 UV-I 758 W/m 18,5 C 6,4 km/h (2 Bft)
26.08.2016 12:13 26,8 C 26,8 C 63 % 1017,0 hPa 0,0 mm 7,1 km/h (2 Bft) W-NW 300 1 min 0,000 mm 5,9 UV-I 759 W/m 19,1 C 12,9 km/h (3 Bft)
26.08.2016 12:14 26,8 C 26,8 C 63 % 1017,0 hPa 0,0 mm 4,0 km/h (1 Bft) W-SW 238 1 min 0,000 mm 5,9 UV-I 758 W/m 19,1 C 6,4 km/h (2 Bft)
26.08.2016 12:15 26,8 C 26,8 C 66 % 1017,0 hPa 0,0 mm 5,4 km/h (1 Bft) W 267 1 min 0,000 mm 5,9 UV-I 758 W/m 19,9 C 6,4 km/h (2 Bft)
26.08.2016 12:16 26,9 C 26,9 C 66 % 1017,1 hPa 0,0 mm 3,1 km/h (1 Bft) W 278 1 min 0,000 mm 5,8 UV-I 759 W/m 20,0 C 6,4 km/h (2 Bft)
26.08.2016 12:17 26,9 C 26,9 C 66 % 1017,1 hPa 0,0 mm 11,8 km/h (2 Bft) W-SW 249 1 min 0,000 mm 6,0 UV-I 763 W/m 20,0 C 17,7 km/h (3 Bft)
26.08.2016 12:18 26,9 C 26,9 C 61 % 1017,0 hPa 0,0 mm 10,1 km/h (2 Bft) N-NW 335 1 min 0,000 mm 6,0 UV-I 765 W/m 18,7 C 14,5 km/h (3 Bft)
26.08.2016 12:19 26,8 C 26,9 C 59 % 1017,1 hPa 0,0 mm 7,7 km/h (2 Bft) SW 229 1 min 0,000 mm 6,0 UV-I 766 W/m 18,1 C 12,9 km/h (3 Bft)
26.08.2016 12:20 26,8 C 26,8 C 61 % 1017,0 hPa 0,0 mm 3,4 km/h (1 Bft) S-SW 205 1 min 0,000 mm 6,0 UV-I 765 W/m 18,6 C 6,4 km/h (2 Bft)
26.08.2016 12:21 26,8 C 26,8 C 62 % 1017,0 hPa 0,0 mm 8,4 km/h (2 Bft) W 261 1 min 0,000 mm 5,9 UV-I 763 W/m 18,9 C 14,5 km/h (3 Bft)
26.08.2016 12:22 26,8 C 26,8 C 63 % 1017,0 hPa 0,0 mm 7,5 km/h (2 Bft) W-SW 240 1 min 0,000 mm 6,0 UV-I 766 W/m 19,1 C 14,5 km/h (3 Bft)
26.08.2016 12:23 26,8 C 26,8 C 63 % 1017,0 hPa 0,0 mm 2,4 km/h (1 Bft) W-SW 256 1 min 0,000 mm 6,0 UV-I 765 W/m 19,1 C 4,8 km/h (1 Bft)
26.08.2016 12:24 26,9 C 26,9 C 65 % 1017,0 hPa 0,0 mm 6,0 km/h (2 Bft) W 265 1 min 0,000 mm 6,0 UV-I 763 W/m 19,7 C 11,3 km/h (2 Bft)
26.08.2016 12:25 26,9 C 26,9 C 64 % 1017,0 hPa 0,0 mm 9,4 km/h (2 Bft) W 274 1 min 0,000 mm 6,0 UV-I 763 W/m 19,5 C 12,9 km/h (3 Bft)
26.08.2016 12:26 26,9 C 26,9 C 64 % 1017,0 hPa 0,0 mm 4,6 km/h (1 Bft) NW 324 1 min 0,000 mm 6,0 UV-I 765 W/m 19,5 C 6,4 km/h (2 Bft)
26.08.2016 12:27 27,1 C 27,1 C 65 % 1017,0 hPa 0,0 mm 6,6 km/h (2 Bft) W-NW 291 1 min 0,000 mm 6,0 UV-I 765 W/m 19,9 C 11,3 km/h (2 Bft)
26.08.2016 12:28 27,1 C 27,1 C 61 % 1017,0 hPa 0,0 mm 4,2 km/h (1 Bft) N-NO 15 1 min 0,000 mm 6,0 UV-I 768 W/m 18,9 C 6,4 km/h (2 Bft)
26.08.2016 12:29 27,1 C 27,1 C 62 % 1017,0 hPa 0,0 mm 3,6 km/h (1 Bft) N-NW 331 1 min 0,000 mm 6,0 UV-I 766 W/m 19,2 C 4,8 km/h (1 Bft)
26.08.2016 12:30 27,2 C 27,2 C 69 % 1017,0 hPa 0,0 mm 6,4 km/h (2 Bft) W-NW 294 1 min 0,000 mm 6,0 UV-I 763 W/m 21,0 C 11,3 km/h (2 Bft)
26.08.2016 12:31 27,3 C 27,3 C 61 % 1017,0 hPa 0,0 mm 5,4 km/h (1 Bft) W-SW 246 1 min 0,000 mm 6,0 UV-I 765 W/m 19,1 C 9,7 km/h (2 Bft)
26.08.2016 12:32 27,2 C 27,3 C 61 % 1017,0 hPa 0,0 mm 6,0 km/h (2 Bft) W-NW 300 1 min 0,000 mm 6,0 UV-I 766 W/m 19,0 C 11,3 km/h (2 Bft)
26.08.2016 12:33 27,2 C 27,2 C 61 % 1017,0 hPa 0,0 mm 6,1 km/h (2 Bft) NW 311 1 min 0,000 mm 6,1 UV-I 773 W/m 19,0 C 9,7 km/h (2 Bft)
26.08.2016 12:34 27,1 C 27,2 C 60 % 1017,0 hPa 0,0 mm 6,6 km/h (2 Bft) N-NW 336 1 min 0,000 mm 6,1 UV-I 775 W/m 18,6 C 9,7 km/h (2 Bft)
26.08.2016 12:35 27,2 C 27,2 C 61 % 1017,0 hPa 0,0 mm 4,6 km/h (1 Bft) W-NW 283 1 min 0,000 mm 6,0 UV-I 768 W/m 19,0 C 6,4 km/h (2 Bft)
26.08.2016 12:36 27,2 C 27,2 C 64 % 1017,0 hPa 0,0 mm 4,6 km/h (1 Bft) W-NW 288 1 min 0,000 mm 6,0 UV-I 765 W/m 19,8 C 8,0 km/h (2 Bft)
26.08.2016 12:37 27,3 C 27,3 C 60 % 1017,1 hPa 0,0 mm 7,7 km/h (2 Bft) NW 306 1 min 0,000 mm 6,0 UV-I 766 W/m 18,8 C 12,9 km/h (3 Bft)
26.08.2016 12:38 27,3 C 27,3 C 60 % 1017,0 hPa 0,0 mm 5,4 km/h (1 Bft) NW 320 1 min 0,000 mm 6,0 UV-I 759 W/m 18,8 C 8,0 km/h (2 Bft)
26.08.2016 12:39 27,2 C 27,3 C 62 % 1017,1 hPa 0,0 mm 7,3 km/h (2 Bft) NW 304 1 min 0,000 mm 6,0 UV-I 772 W/m 19,3 C 9,7 km/h (2 Bft)
26.08.2016 12:40 27,3 C 27,3 C 61 % 1017,0 hPa 0,0 mm 4,2 km/h (1 Bft) W-SW 257 1 min 0,000 mm 6,1 UV-I 773 W/m 19,1 C 6,4 km/h (2 Bft)
26.08.2016 12:41 27,3 C 27,4 C 61 % 1017,0 hPa 0,0 mm 8,0 km/h (2 Bft) W-NW 288 1 min 0,000 mm 6,2 UV-I 775 W/m 19,1 C 11,3 km/h (2 Bft)
26.08.2016 12:42 27,3 C 27,4 C 64 % 1017,0 hPa 0,0 mm 7,3 km/h (2 Bft) NW 314 1 min 0,000 mm 6,2 UV-I 779 W/m 19,9 C 12,9 km/h (3 Bft)
26.08.2016 12:43 27,3 C 27,3 C 57 % 1017,0 hPa 0,0 mm 5,1 km/h (1 Bft) W-NW 285 1 min 0,000 mm 6,2 UV-I 779 W/m 18,0 C 9,7 km/h (2 Bft)
26.08.2016 12:44 27,2 C 27,3 C 60 % 1017,0 hPa 0,0 mm 7,5 km/h (2 Bft) W 269 1 min 0,000 mm 6,2 UV-I 779 W/m 18,7 C 12,9 km/h (3 Bft)
26.08.2016 12:45 27,2 C 27,2 C 59 % 1016,9 hPa 0,0 mm 10,3 km/h (2 Bft) W 276 1 min 0,000 mm 6,2 UV-I 779 W/m 18,5 C 17,7 km/h (3 Bft)
26.08.2016 12:46 27,2 C 27,2 C 57 % 1016,9 hPa 0,0 mm 12,5 km/h (3 Bft) W-NW 283 1 min 0,000 mm 6,2 UV-I 779 W/m 17,9 C 17,7 km/h (3 Bft)
26.08.2016 12:47 27,2 C 27,2 C 57 % 1017,0 hPa 0,0 mm 13,2 km/h (3 Bft) W-SW 248 1 min 0,000 mm 6,1 UV-I 775 W/m 17,9 C 17,7 km/h (3 Bft)
26.08.2016 12:48 27,2 C 27,2 C 59 % 1017,0 hPa 0,0 mm 7,3 km/h (2 Bft) W 278 1 min 0,000 mm 6,1 UV-I 772 W/m 18,5 C 12,9 km/h (3 Bft)
26.08.2016 12:49 27,2 C 27,2 C 55 % 1017,0 hPa 0,0 mm 9,3 km/h (2 Bft) W 278 1 min 0,000 mm 6,0 UV-I 770 W/m 17,4 C 14,5 km/h (3 Bft)
26.08.2016 12:50 27,1 C 27,2 C 57 % 1017,0 hPa 0,0 mm 9,2 km/h (2 Bft) NW 323 1 min 0,000 mm 6,0 UV-I 766 W/m 17,8 C 14,5 km/h (3 Bft)
26.08.2016 12:51 27,2 C 27,2 C 57 % 1017,0 hPa 0,0 mm 10,8 km/h (2 Bft) W-NW 290 1 min 0,000 mm 6,2 UV-I 780 W/m 17,9 C 16,1 km/h (3 Bft)
26.08.2016 12:52 27,2 C 27,2 C 57 % 1017,0 hPa 0,0 mm 8,7 km/h (2 Bft) W 261 1 min 0,000 mm 6,2 UV-I 779 W/m 17,9 C 12,9 km/h (3 Bft)
26.08.2016 12:53 27,2 C 27,2 C 60 % 1016,9 hPa 0,0 mm 5,4 km/h (1 Bft) W-NW 286 1 min 0,000 mm 6,1 UV-I 777 W/m 18,7 C 9,7 km/h (2 Bft)
26.08.2016 12:54 27,3 C 27,3 C 59 % 1016,9 hPa 0,0 mm 2,1 km/h (1 Bft) SW 223 1 min 0,000 mm 6,0 UV-I 768 W/m 18,6 C 3,2 km/h (1 Bft)
26.08.2016 12:55 27,4 C 27,4 C 60 % 1016,9 hPa 0,0 mm 3,0 km/h (1 Bft) W 278 1 min 0,000 mm 6,1 UV-I 772 W/m 18,9 C 6,4 km/h (2 Bft)
26.08.2016 12:56 27,4 C 27,4 C 63 % 1016,9 hPa 0,0 mm 3,1 km/h (1 Bft) NW 317 1 min 0,000 mm 6,3 UV-I 784 W/m 19,7 C 8,0 km/h (2 Bft)
26.08.2016 12:57 27,6 C 27,6 C 61 % 1016,9 hPa 0,0 mm 6,1 km/h (2 Bft) W-NW 293 1 min 0,000 mm 6,2 UV-I 779 W/m 19,4 C 11,3 km/h (2 Bft)
26.08.2016 12:58 27,7 C 27,7 C 60 % 1016,9 hPa 0,0 mm 6,7 km/h (2 Bft) NW 320 1 min 0,000 mm 6,3 UV-I 782 W/m 19,2 C 9,7 km/h (2 Bft)
26.08.2016 12:59 27,7 C 27,7 C 57 % 1017,0 hPa 0,0 mm 4,8 km/h (1 Bft) W-NW 288 1 min 0,000 mm 6,3 UV-I 784 W/m 18,4 C 8,0 km/h (2 Bft)
26.08.2016 13:00 27,7 C 27,7 C 58 % 1016,9 hPa 0,0 mm 8,5 km/h (2 Bft) W-NW 302 1 min 0,534 mm 6,3 UV-I 784 W/m 18,7 C 14,5 km/h (3 Bft)
26.08.2016 13:01 27,7 C 27,7 C 58 % 1016,9 hPa 0,0 mm 6,1 km/h (2 Bft) N 355 1 min 0,000 mm 6,3 UV-I 784 W/m 18,7 C 9,7 km/h (2 Bft)
26.08.2016 13:02 27,7 C 27,7 C 59 % 1016,9 hPa 0,0 mm 8,0 km/h (2 Bft) W-NW 288 1 min 0,000 mm 6,3 UV-I 786 W/m 18,9 C 16,1 km/h (3 Bft)
26.08.2016 13:03 27,7 C 27,7 C 58 % 1016,9 hPa 0,0 mm 4,4 km/h (1 Bft) W-NW 284 1 min 0,000 mm 6,2 UV-I 784 W/m 18,7 C 6,4 km/h (2 Bft)
26.08.2016 13:04 27,6 C 27,7 C 57 % 1016,9 hPa 0,0 mm 6,1 km/h (2 Bft) W 261 1 min 0,000 mm 6,2 UV-I 784 W/m 18,3 C 9,7 km/h (2 Bft)
26.08.2016 13:05 27,5 C 27,6 C 57 % 1016,9 hPa 0,0 mm 5,4 km/h (1 Bft) W-SW 250 1 min 0,000 mm 6,3 UV-I 784 W/m 18,2 C 9,7 km/h (2 Bft)
26.08.2016 13:06 27,5 C 27,5 C 57 % 1016,9 hPa 0,0 mm 5,8 km/h (2 Bft) W-NW 287 1 min 0,000 mm 6,3 UV-I 784 W/m 18,2 C 9,7 km/h (2 Bft)
26.08.2016 13:07 27,4 C 27,5 C 58 % 1016,9 hPa 0,0 mm 5,4 km/h (1 Bft) NW 310 1 min 0,000 mm 6,3 UV-I 788 W/m 18,4 C 8,0 km/h (2 Bft)
26.08.2016 13:08 27,4 C 27,4 C 60 % 1016,9 hPa 0,0 mm 8,8 km/h (2 Bft) W-NW 300 1 min 0,000 mm 6,3 UV-I 782 W/m 18,9 C 11,3 km/h (2 Bft)
26.08.2016 13:09 27,5 C 27,5 C 59 % 1016,9 hPa 0,0 mm 7,9 km/h (2 Bft) W-NW 295 1 min 0,000 mm 6,3 UV-I 782 W/m 18,8 C 11,3 km/h (2 Bft)
26.08.2016 13:10 27,6 C 27,6 C 58 % 1016,9 hPa 0,0 mm 8,5 km/h (2 Bft) NW 305 1 min 0,000 mm 6,3 UV-I 784 W/m 18,6 C 14,5 km/h (3 Bft)
26.08.2016 13:11 27,6 C 27,7 C 60 % 1016,9 hPa 0,0 mm 5,3 km/h (1 Bft) W 259 1 min 0,000 mm 6,2 UV-I 780 W/m 19,1 C 11,3 km/h (2 Bft)
26.08.2016 13:12 27,6 C 27,6 C 60 % 1016,9 hPa 0,0 mm 9,7 km/h (2 Bft) W-SW 244 1 min 0,000 mm 6,3 UV-I 784 W/m 19,1 C 14,5 km/h (3 Bft)
26.08.2016 13:13 27,5 C 27,6 C 57 % 1016,8 hPa 0,0 mm 7,8 km/h (2 Bft) W-NW 288 1 min 0,000 mm 6,2 UV-I 780 W/m 18,2 C 14,5 km/h (3 Bft)
26.08.2016 13:14 27,4 C 27,5 C 59 % 1016,9 hPa 0,0 mm 5,1 km/h (1 Bft) W 265 1 min 0,000 mm 6,2 UV-I 780 W/m 18,7 C 9,7 km/h (2 Bft)
26.08.2016 13:15 27,4 C 27,4 C 59 % 1016,9 hPa 0,0 mm 11,3 km/h (2 Bft) W 271 1 min 0,000 mm 6,2 UV-I 780 W/m 18,7 C 14,5 km/h (3 Bft)
26.08.2016 13:16 27,4 C 27,4 C 61 % 1016,8 hPa 0,0 mm 9,7 km/h (2 Bft) W-NW 286 1 min 0,000 mm 6,2 UV-I 780 W/m 19,2 C 12,9 km/h (3 Bft)
26.08.2016 13:17 27,6 C 27,6 C 63 % 1016,8 hPa 0,0 mm 9,7 km/h (2 Bft) W-NW 302 1 min 0,000 mm 6,2 UV-I 780 W/m 19,9 C 14,5 km/h (3 Bft)
26.08.2016 13:18 27,7 C 27,7 C 59 % 1016,9 hPa 0,0 mm 9,1 km/h (2 Bft) W-NW 290 1 min 0,000 mm 6,3 UV-I 784 W/m 18,9 C 14,5 km/h (3 Bft)
26.08.2016 13:19 27,8 C 27,8 C 58 % 1016,8 hPa 0,0 mm 8,9 km/h (2 Bft) NW 315 1 min 0,000 mm 6,2 UV-I 782 W/m 18,8 C 14,5 km/h (3 Bft)
26.08.2016 13:20 27,8 C 27,8 C 58 % 1016,8 hPa 0,0 mm 6,2 km/h (2 Bft) N-NW 327 1 min 0,000 mm 6,2 UV-I 782 W/m 18,8 C 11,3 km/h (2 Bft)
26.08.2016 13:21 27,8 C 27,8 C 60 % 1016,9 hPa 0,0 mm 10,8 km/h (2 Bft) W-NW 298 1 min 0,000 mm 6,3 UV-I 786 W/m 19,3 C 19,3 km/h (3 Bft)
26.08.2016 13:22 27,8 C 27,8 C 63 % 1016,9 hPa 0,0 mm 9,2 km/h (2 Bft) W-NW 300 1 min 0,000 mm 6,3 UV-I 784 W/m 20,1 C 16,1 km/h (3 Bft)
26.08.2016 13:23 27,8 C 27,8 C 55 % 1016,9 hPa 0,0 mm 9,1 km/h (2 Bft) W-NW 284 1 min 0,000 mm 6,2 UV-I 779 W/m 17,9 C 12,9 km/h (3 Bft)
26.08.2016 13:24 27,8 C 27,8 C 54 % 1016,9 hPa 0,0 mm 7,2 km/h (2 Bft) W-NW 292 1 min 0,000 mm 6,2 UV-I 780 W/m 17,6 C 11,3 km/h (2 Bft)
26.08.2016 13:25 27,7 C 27,8 C 56 % 1016,9 hPa 0,0 mm 6,2 km/h (2 Bft) W-NW 303 1 min 0,000 mm 6,2 UV-I 780 W/m 18,1 C 16,1 km/h (3 Bft)
26.08.2016 13:26 27,6 C 27,7 C 57 % 1016,9 hPa 0,0 mm 13,1 km/h (3 Bft) NW 313 1 min 0,000 mm 6,2 UV-I 779 W/m 18,3 C 16,1 km/h (3 Bft)
26.08.2016 13:27 27,7 C 27,7 C 57 % 1016,8 hPa 0,0 mm 11,0 km/h (2 Bft) NW 323 1 min 0,000 mm 6,2 UV-I 779 W/m 18,4 C 17,7 km/h (3 Bft)
26.08.2016 13:28 27,7 C 27,7 C 56 % 1016,9 hPa 0,0 mm 10,3 km/h (2 Bft) W 279 1 min 0,000 mm 6,2 UV-I 775 W/m 18,1 C 19,3 km/h (3 Bft)
26.08.2016 13:29 27,7 C 27,7 C 58 % 1016,9 hPa 0,0 mm 11,8 km/h (2 Bft) W 275 1 min 0,000 mm 6,2 UV-I 780 W/m 18,7 C 16,1 km/h (3 Bft)
26.08.2016 13:30 27,8 C 27,8 C 56 % 1016,9 hPa 0,0 mm 10,9 km/h (2 Bft) SW 236 1 min 0,000 mm 6,2 UV-I 779 W/m 18,2 C 19,3 km/h (3 Bft)
26.08.2016 13:31 27,7 C 27,8 C 54 % 1016,9 hPa 0,0 mm 10,1 km/h (2 Bft) W-SW 245 1 min 0,000 mm 6,2 UV-I 779 W/m 17,5 C 14,5 km/h (3 Bft)
26.08.2016 13:32 27,7 C 27,7 C 58 % 1016,9 hPa 0,0 mm 5,8 km/h (2 Bft) W-NW 295 1 min 0,000 mm 6,2 UV-I 779 W/m 18,7 C 9,7 km/h (2 Bft)
26.08.2016 13:33 27,6 C 27,7 C 56 % 1016,9 hPa 0,0 mm 5,7 km/h (1 Bft) NW 310 1 min 0,000 mm 6,2 UV-I 780 W/m 18,0 C 11,3 km/h (2 Bft)
26.08.2016 13:34 27,6 C 27,6 C 56 % 1016,9 hPa 0,0 mm 6,0 km/h (2 Bft) W-NW 295 1 min 0,000 mm 6,2 UV-I 782 W/m 18,0 C 8,0 km/h (2 Bft)
26.08.2016 13:35 27,7 C 27,7 C 58 % 1016,9 hPa 0,0 mm 5,1 km/h (1 Bft) N 355 1 min 0,000 mm 6,2 UV-I 784 W/m 18,7 C 8,0 km/h (2 Bft)
26.08.2016 13:36 27,9 C 27,9 C 57 % 1016,9 hPa 0,0 mm 5,5 km/h (1 Bft) N-NW 336 1 min 0,000 mm 6,2 UV-I 779 W/m 18,6 C 6,4 km/h (2 Bft)
26.08.2016 13:37 28,1 C 28,1 C 55 % 1016,9 hPa 0,0 mm 4,4 km/h (1 Bft) W-NW 296 1 min 0,000 mm 6,2 UV-I 780 W/m 18,2 C 4,8 km/h (1 Bft)
26.08.2016 13:38 28,1 C 28,1 C 57 % 1016,9 hPa 0,0 mm 5,1 km/h (1 Bft) W 271 1 min 0,000 mm 6,2 UV-I 780 W/m 18,8 C 9,7 km/h (2 Bft)
26.08.2016 13:39 28,1 C 28,1 C 55 % 1016,9 hPa 0,0 mm 8,0 km/h (2 Bft) NW 321 1 min 0,000 mm 6,3 UV-I 780 W/m 18,2 C 12,9 km/h (3 Bft)
26.08.2016 13:40 28,0 C 28,1 C 54 % 1017,0 hPa 0,0 mm 6,5 km/h (2 Bft) NW 306 1 min 0,000 mm 6,2 UV-I 779 W/m 17,8 C 11,3 km/h (2 Bft)
26.08.2016 13:41 27,9 C 28,0 C 52 % 1017,0 hPa 0,0 mm 6,9 km/h (2 Bft) NW 312 1 min 0,000 mm 6,2 UV-I 779 W/m 17,1 C 11,3 km/h (2 Bft)
26.08.2016 13:42 27,9 C 27,9 C 55 % 1016,9 hPa 0,0 mm 6,4 km/h (2 Bft) NW 325 1 min 0,000 mm 6,2 UV-I 779 W/m 18,0 C 12,9 km/h (3 Bft)
26.08.2016 13:43 27,9 C 27,9 C 55 % 1017,0 hPa 0,0 mm 7,3 km/h (2 Bft) N-NW 329 1 min 0,000 mm 6,2 UV-I 777 W/m 18,0 C 11,3 km/h (2 Bft)
26.08.2016 13:44 27,9 C 27,9 C 59 % 1017,0 hPa 0,0 mm 7,0 km/h (2 Bft) NW 308 1 min 0,000 mm 6,2 UV-I 773 W/m 19,1 C 11,3 km/h (2 Bft)
26.08.2016 13:45 28,1 C 28,1 C 56 % 1017,0 hPa 0,0 mm 9,3 km/h (2 Bft) N-NW 329 1 min 0,000 mm 6,2 UV-I 775 W/m 18,5 C 12,9 km/h (3 Bft)
26.08.2016 13:46 28,1 C 28,1 C 57 % 1016,9 hPa 0,0 mm 10,2 km/h (2 Bft) N-NW 342 1 min 0,000 mm 6,2 UV-I 779 W/m 18,8 C 14,5 km/h (3 Bft)
26.08.2016 13:47 28,2 C 28,2 C 53 % 1016,9 hPa 0,0 mm 10,3 km/h (2 Bft) NW 309 1 min 0,000 mm 6,2 UV-I 779 W/m 17,7 C 14,5 km/h (3 Bft)
26.08.2016 13:48 28,3 C 28,3 C 54 % 1016,9 hPa 0,0 mm 9,7 km/h (2 Bft) W-NW 299 1 min 0,000 mm 6,2 UV-I 780 W/m 18,1 C 16,1 km/h (3 Bft)
26.08.2016 13:49 28,2 C 28,3 C 55 % 1016,9 hPa 0,0 mm 7,9 km/h (2 Bft) NW 325 1 min 0,000 mm 6,2 UV-I 779 W/m 18,3 C 11,3 km/h (2 Bft)
26.08.2016 13:50 28,2 C 28,3 C 56 % 1016,9 hPa 0,0 mm 9,1 km/h (2 Bft) NW 321 1 min 0,000 mm 6,2 UV-I 777 W/m 18,6 C 14,5 km/h (3 Bft)
26.08.2016 13:51 28,2 C 28,2 C 53 % 1016,9 hPa 0,0 mm 7,4 km/h (2 Bft) NW 315 1 min 0,000 mm 6,2 UV-I 779 W/m 17,7 C 14,5 km/h (3 Bft)
26.08.2016 13:52 28,2 C 28,2 C 54 % 1017,0 hPa 0,0 mm 2,4 km/h (1 Bft) W 279 1 min 0,000 mm 6,2 UV-I 775 W/m 18,0 C 4,8 km/h (1 Bft)
26.08.2016 13:53 28,1 C 28,2 C 56 % 1016,9 hPa 0,0 mm 6,0 km/h (2 Bft) N-NW 336 1 min 0,000 mm 6,1 UV-I 773 W/m 18,5 C 12,9 km/h (3 Bft)
26.08.2016 13:54 28,1 C 28,1 C 55 % 1016,9 hPa 0,0 mm 5,7 km/h (1 Bft) N 5 1 min 0,000 mm 6,1 UV-I 773 W/m 18,2 C 8,0 km/h (2 Bft)
26.08.2016 13:55 28,1 C 28,1 C 55 % 1016,9 hPa 0,0 mm 5,1 km/h (1 Bft) NW 317 1 min 0,000 mm 6,1 UV-I 772 W/m 18,2 C 8,0 km/h (2 Bft)
26.08.2016 13:56 28,1 C 28,1 C 54 % 1016,9 hPa 0,0 mm 8,9 km/h (2 Bft) W-NW 302 1 min 0,000 mm 6,1 UV-I 773 W/m 17,9 C 14,5 km/h (3 Bft)
26.08.2016 13:57 28,0 C 28,1 C 53 % 1016,9 hPa 0,0 mm 8,6 km/h (2 Bft) W-NW 296 1 min 0,000 mm 6,1 UV-I 770 W/m 17,5 C 16,1 km/h (3 Bft)
26.08.2016 13:58 27,9 C 28,0 C 54 % 1016,9 hPa 0,0 mm 7,6 km/h (2 Bft) W-NW 296 1 min 0,000 mm 6,1 UV-I 772 W/m 17,7 C 12,9 km/h (3 Bft)
26.08.2016 13:59 27,9 C 27,9 C 56 % 1016,9 hPa 0,0 mm 7,4 km/h (2 Bft) W-SW 258 1 min 0,000 mm 6,1 UV-I 768 W/m 18,3 C 9,7 km/h (2 Bft)
26.08.2016 14:00 27,9 C 27,9 C 56 % 1016,9 hPa 0,0 mm 9,8 km/h (2 Bft) NW 324 1 min 0,000 mm 6,0 UV-I 766 W/m 18,3 C 12,9 km/h (3 Bft)
26.08.2016 14:01 27,9 C 27,9 C 55 % 1016,8 hPa 0,0 mm 7,8 km/h (2 Bft) W 275 1 min 0,558 mm 6,1 UV-I 768 W/m 18,0 C 12,9 km/h (3 Bft)
26.08.2016 14:02 28,0 C 28,0 C 55 % 1016,8 hPa 0,0 mm 5,4 km/h (1 Bft) W-NW 287 1 min 0,000 mm 6,0 UV-I 765 W/m 18,1 C 6,4 km/h (2 Bft)
26.08.2016 14:03 27,9 C 28,0 C 53 % 1016,9 hPa 0,0 mm 10,0 km/h (2 Bft) W-NW 301 1 min 0,000 mm 6,0 UV-I 765 W/m 17,4 C 14,5 km/h (3 Bft)
26.08.2016 14:04 27,9 C 27,9 C 55 % 1016,8 hPa 0,0 mm 9,2 km/h (2 Bft) W-SW 255 1 min 0,000 mm 6,1 UV-I 766 W/m 18,0 C 14,5 km/h (3 Bft)
26.08.2016 14:05 27,9 C 27,9 C 58 % 1016,8 hPa 0,0 mm 6,2 km/h (2 Bft) W 263 1 min 0,000 mm 6,0 UV-I 766 W/m 18,9 C 12,9 km/h (3 Bft)
26.08.2016 14:06 27,8 C 27,9 C 53 % 1016,9 hPa 0,0 mm 6,4 km/h (2 Bft) W-SW 252 1 min 0,000 mm 6,0 UV-I 766 W/m 17,3 C 12,9 km/h (3 Bft)
26.08.2016 14:07 27,8 C 27,8 C 55 % 1016,8 hPa 0,0 mm 7,9 km/h (2 Bft) W-SW 250 1 min 0,000 mm 6,0 UV-I 766 W/m 17,9 C 11,3 km/h (2 Bft)
26.08.2016 14:08 27,8 C 27,8 C 53 % 1016,8 hPa 0,0 mm 7,1 km/h (2 Bft) W-NW 297 1 min 0,000 mm 6,0 UV-I 765 W/m 17,3 C 12,9 km/h (3 Bft)
26.08.2016 14:09 27,8 C 27,8 C 55 % 1016,8 hPa 0,0 mm 5,1 km/h (1 Bft) NW 317 1 min 0,000 mm 6,0 UV-I 763 W/m 17,9 C 8,0 km/h (2 Bft)
26.08.2016 14:10 27,9 C 27,9 C 56 % 1016,8 hPa 0,0 mm 6,0 km/h (2 Bft) W-NW 289 1 min 0,000 mm 6,0 UV-I 763 W/m 18,3 C 11,3 km/h (2 Bft)
26.08.2016 14:11 27,9 C 27,9 C 55 % 1016,8 hPa 0,0 mm 5,4 km/h (1 Bft) NW 322 1 min 0,000 mm 6,0 UV-I 763 W/m 18,0 C 8,0 km/h (2 Bft)
26.08.2016 14:12 28,1 C 28,1 C 55 % 1016,8 hPa 0,0 mm 3,4 km/h (1 Bft) NW 323 1 min 0,000 mm 6,0 UV-I 759 W/m 18,2 C 4,8 km/h (1 Bft)
26.08.2016 14:13 28,2 C 28,2 C 54 % 1016,8 hPa 0,0 mm 4,8 km/h (1 Bft) W-NW 284 1 min 0,000 mm 6,0 UV-I 761 W/m 18,0 C 11,3 km/h (2 Bft)
26.08.2016 14:14 28,2 C 28,2 C 53 % 1016,8 hPa 0,0 mm 5,0 km/h (1 Bft) SW 234 1 min 0,000 mm 6,0 UV-I 759 W/m 17,7 C 11,3 km/h (2 Bft)
26.08.2016 14:15 28,1 C 28,2 C 51 % 1016,8 hPa 0,0 mm 6,7 km/h (2 Bft) NW 306 1 min 0,000 mm 6,0 UV-I 759 W/m 17,0 C 11,3 km/h (2 Bft)
26.08.2016 14:16 28,1 C 28,1 C 54 % 1016,8 hPa 0,0 mm 2,7 km/h (1 Bft) NW 316 1 min 0,000 mm 6,0 UV-I 758 W/m 17,9 C 4,8 km/h (1 Bft)
26.08.2016 14:17 28,1 C 28,1 C 58 % 1016,8 hPa 0,0 mm 3,6 km/h (1 Bft) W-NW 294 1 min 0,000 mm 5,9 UV-I 758 W/m 19,0 C 6,4 km/h (2 Bft)
26.08.2016 14:18 28,1 C 28,1 C 53 % 1016,8 hPa 0,0 mm 3,0 km/h (1 Bft) NW 320 1 min 0,000 mm 5,9 UV-I 756 W/m 17,6 C 4,8 km/h (1 Bft)
26.08.2016 14:19 28,1 C 28,2 C 54 % 1016,7 hPa 0,0 mm 3,0 km/h (1 Bft) NW 321 1 min 0,000 mm 5,9 UV-I 754 W/m 17,9 C 4,8 km/h (1 Bft)
26.08.2016 14:20 28,1 C 28,1 C 54 % 1016,7 hPa 0,0 mm 7,8 km/h (2 Bft) W-NW 301 1 min 0,000 mm 5,9 UV-I 752 W/m 17,9 C 12,9 km/h (3 Bft)
26.08.2016 14:21 28,2 C 28,2 C 53 % 1016,8 hPa 0,0 mm 7,4 km/h (2 Bft) W-NW 296 1 min 0,000 mm 5,9 UV-I 752 W/m 17,7 C 11,3 km/h (2 Bft)
26.08.2016 14:22 28,2 C 28,2 C 52 % 1016,7 hPa 0,0 mm 6,3 km/h (2 Bft) W-NW 293 1 min 0,000 mm 5,9 UV-I 752 W/m 17,4 C 11,3 km/h (2 Bft)
26.08.2016 14:23 28,2 C 28,2 C 56 % 1016,7 hPa 0,0 mm 4,5 km/h (1 Bft) NW 319 1 min 0,000 mm 5,9 UV-I 754 W/m 18,6 C 8,0 km/h (2 Bft)
26.08.2016 14:24 28,2 C 28,2 C 53 % 1016,7 hPa 0,0 mm 4,1 km/h (1 Bft) W 261 1 min 0,000 mm 5,9 UV-I 756 W/m 17,7 C 6,4 km/h (2 Bft)
26.08.2016 14:25 28,2 C 28,2 C 53 % 1016,6 hPa 0,0 mm 6,2 km/h (2 Bft) W-NW 297 1 min 0,000 mm 5,9 UV-I 752 W/m 17,7 C 11,3 km/h (2 Bft)
26.08.2016 14:26 28,1 C 28,2 C 54 % 1016,6 hPa 0,0 mm 7,0 km/h (2 Bft) SW 227 1 min 0,000 mm 5,9 UV-I 751 W/m 17,9 C 12,9 km/h (3 Bft)
26.08.2016 14:27 28,1 C 28,1 C 59 % 1016,7 hPa 0,0 mm 13,3 km/h (3 Bft) W 270 1 min 0,000 mm 5,9 UV-I 752 W/m 19,3 C 17,7 km/h (3 Bft)
26.08.2016 14:28 28,0 C 28,1 C 52 % 1016,8 hPa 0,0 mm 9,6 km/h (2 Bft) W-SW 240 1 min 0,000 mm 5,9 UV-I 752 W/m 17,2 C 14,5 km/h (3 Bft)
26.08.2016 14:29 27,9 C 28,0 C 53 % 1016,7 hPa 0,0 mm 5,8 km/h (2 Bft) W 276 1 min 0,000 mm 5,9 UV-I 751 W/m 17,4 C 11,3 km/h (2 Bft)
26.08.2016 14:30 27,9 C 27,9 C 53 % 1016,7 hPa 0,0 mm 5,8 km/h (2 Bft) W-NW 302 1 min 0,000 mm 5,9 UV-I 752 W/m 17,4 C 12,9 km/h (3 Bft)
26.08.2016 14:31 27,9 C 27,9 C 54 % 1016,7 hPa 0,0 mm 7,8 km/h (2 Bft) W 279 1 min 0,000 mm 5,9 UV-I 749 W/m 17,7 C 12,9 km/h (3 Bft)
26.08.2016 14:32 27,9 C 27,9 C 53 % 1016,7 hPa 0,0 mm 11,0 km/h (2 Bft) W-NW 295 1 min 0,000 mm 5,8 UV-I 749 W/m 17,4 C 16,1 km/h (3 Bft)
26.08.2016 14:33 28,0 C 28,0 C 56 % 1016,7 hPa 0,0 mm 7,1 km/h (2 Bft) W-NW 290 1 min 0,000 mm 5,8 UV-I 744 W/m 18,4 C 12,9 km/h (3 Bft)
26.08.2016 14:34 28,1 C 28,1 C 54 % 1016,7 hPa 0,0 mm 5,3 km/h (1 Bft) W 263 1 min 0,000 mm 5,8 UV-I 742 W/m 17,9 C 9,7 km/h (2 Bft)
26.08.2016 14:35 28,0 C 28,1 C 51 % 1016,6 hPa 0,0 mm 4,6 km/h (1 Bft) W-SW 248 1 min 0,000 mm 5,7 UV-I 740 W/m 16,9 C 8,0 km/h (2 Bft)
26.08.2016 14:36 27,9 C 28,0 C 54 % 1016,6 hPa 0,0 mm 5,0 km/h (1 Bft) W 271 1 min 0,000 mm 5,7 UV-I 737 W/m 17,7 C 8,0 km/h (2 Bft)
26.08.2016 14:37 27,9 C 27,9 C 54 % 1016,6 hPa 0,0 mm 4,8 km/h (1 Bft) W-SW 244 1 min 0,000 mm 5,7 UV-I 735 W/m 17,7 C 9,7 km/h (2 Bft)
26.08.2016 14:38 27,9 C 28,0 C 54 % 1016,6 hPa 0,0 mm 5,4 km/h (1 Bft) W-NW 283 1 min 0,000 mm 5,6 UV-I 733 W/m 17,7 C 9,7 km/h (2 Bft)
26.08.2016 14:39 27,9 C 28,0 C 53 % 1016,6 hPa 0,0 mm 8,7 km/h (2 Bft) W-NW 292 1 min 0,000 mm 5,7 UV-I 735 W/m 17,4 C 12,9 km/h (3 Bft)
26.08.2016 14:40 28,1 C 28,1 C 53 % 1016,6 hPa 0,0 mm 5,6 km/h (1 Bft) NW 315 1 min 0,000 mm 5,6 UV-I 729 W/m 17,6 C 9,7 km/h (2 Bft)
26.08.2016 14:41 28,1 C 28,1 C 51 % 1016,6 hPa 0,0 mm 6,7 km/h (2 Bft) W-NW 296 1 min 0,000 mm 5,5 UV-I 726 W/m 17,0 C 9,7 km/h (2 Bft)
26.08.2016 14:42 28,1 C 28,1 C 53 % 1016,6 hPa 0,0 mm 5,7 km/h (1 Bft) NW 307 1 min 0,000 mm 5,6 UV-I 728 W/m 17,6 C 9,7 km/h (2 Bft)
26.08.2016 14:43 28,1 C 28,1 C 53 % 1016,7 hPa 0,0 mm 4,8 km/h (1 Bft) W 273 1 min 0,000 mm 5,6 UV-I 726 W/m 17,6 C 6,4 km/h (2 Bft)
26.08.2016 14:44 28,1 C 28,1 C 53 % 1016,6 hPa 0,0 mm 4,8 km/h (1 Bft) N 360 1 min 0,000 mm 5,5 UV-I 724 W/m 17,6 C 6,4 km/h (2 Bft)
26.08.2016 14:45 28,0 C 28,1 C 55 % 1016,7 hPa 0,0 mm 6,7 km/h (2 Bft) NW 318 1 min 0,000 mm 5,5 UV-I 722 W/m 18,1 C 9,7 km/h (2 Bft)
26.08.2016 14:46 28,1 C 28,1 C 53 % 1016,7 hPa 0,0 mm 8,3 km/h (2 Bft) NW 313 1 min 0,000 mm 5,5 UV-I 722 W/m 17,6 C 14,5 km/h (3 Bft)
26.08.2016 14:47 28,2 C 28,2 C 53 % 1016,8 hPa 0,0 mm 8,4 km/h (2 Bft) N-NW 334 1 min 0,000 mm 5,5 UV-I 721 W/m 17,7 C 14,5 km/h (3 Bft)
26.08.2016 14:48 28,2 C 28,2 C 55 % 1016,7 hPa 0,0 mm 5,8 km/h (2 Bft) W-SW 238 1 min 0,000 mm 5,5 UV-I 719 W/m 18,3 C 12,9 km/h (3 Bft)
26.08.2016 14:49 28,2 C 28,2 C 52 % 1016,7 hPa 0,0 mm 4,5 km/h (1 Bft) W-SW 248 1 min 0,000 mm 5,4 UV-I 715 W/m 17,4 C 6,4 km/h (2 Bft)
26.08.2016 14:50 28,1 C 28,2 C 53 % 1016,8 hPa 0,0 mm 5,6 km/h (1 Bft) N-NW 329 1 min 0,000 mm 5,4 UV-I 714 W/m 17,6 C 6,4 km/h (2 Bft)
26.08.2016 14:51 28,1 C 28,1 C 53 % 1016,7 hPa 0,0 mm 5,0 km/h (1 Bft) NW 314 1 min 0,000 mm 5,4 UV-I 712 W/m 17,6 C 8,0 km/h (2 Bft)
26.08.2016 14:52 28,1 C 28,2 C 50 % 1016,6 hPa 0,0 mm 6,8 km/h (2 Bft) W-NW 303 1 min 0,000 mm 5,4 UV-I 710 W/m 16,7 C 9,7 km/h (2 Bft)
26.08.2016 14:53 28,1 C 28,2 C 49 % 1016,7 hPa 0,0 mm 9,3 km/h (2 Bft) NW 306 1 min 0,000 mm 5,3 UV-I 710 W/m 16,4 C 16,1 km/h (3 Bft)
26.08.2016 14:54 28,2 C 28,2 C 50 % 1016,8 hPa 0,0 mm 5,3 km/h (1 Bft) NW 320 1 min 0,000 mm 5,3 UV-I 710 W/m 16,8 C 11,3 km/h (2 Bft)
26.08.2016 14:55 28,2 C 28,2 C 51 % 1016,8 hPa 0,0 mm 5,4 km/h (1 Bft) W 275 1 min 0,000 mm 5,2 UV-I 710 W/m 17,1 C 6,4 km/h (2 Bft)
26.08.2016 14:56 28,1 C 28,2 C 49 % 1016,7 hPa 0,0 mm 3,8 km/h (1 Bft) NW 306 1 min 0,000 mm 5,1 UV-I 705 W/m 16,4 C 6,4 km/h (2 Bft)
26.08.2016 14:57 28,2 C 28,2 C 52 % 1016,7 hPa 0,0 mm 4,6 km/h (1 Bft) N-NW 336 1 min 0,000 mm 5,0 UV-I 703 W/m 17,4 C 6,4 km/h (2 Bft)
26.08.2016 14:58 28,2 C 28,2 C 49 % 1016,7 hPa 0,0 mm 4,8 km/h (1 Bft) N-NO 32 1 min 0,000 mm 4,9 UV-I 703 W/m 16,5 C 11,3 km/h (2 Bft)
26.08.2016 14:59 28,3 C 28,3 C 52 % 1016,7 hPa 0,0 mm 5,6 km/h (1 Bft) W-NW 288 1 min 0,000 mm 4,9 UV-I 703 W/m 17,5 C 11,3 km/h (2 Bft)
26.08.2016 15:00 28,3 C 28,3 C 53 % 1016,8 hPa 0,0 mm 5,6 km/h (1 Bft) N-NW 327 1 min 0,000 mm 4,8 UV-I 700 W/m 17,8 C 6,4 km/h (2 Bft)
26.08.2016 15:01 28,4 C 28,4 C 54 % 1016,8 hPa 0,0 mm 9,3 km/h (2 Bft) NW 311 1 min 0,533 mm 4,7 UV-I 698 W/m 18,2 C 14,5 km/h (3 Bft)
26.08.2016 15:02 28,4 C 28,4 C 51 % 1016,8 hPa 0,0 mm 6,3 km/h (2 Bft) W-NW 303 1 min 0,001 mm 4,7 UV-I 696 W/m 17,3 C 8,0 km/h (2 Bft)
26.08.2016 15:03 28,4 C 28,4 C 50 % 1016,8 hPa 0,0 mm 5,8 km/h (2 Bft) W-NW 288 1 min 0,000 mm 4,7 UV-I 694 W/m 17,0 C 11,3 km/h (2 Bft)
26.08.2016 15:04 28,4 C 28,4 C 49 % 1016,7 hPa 0,0 mm 8,0 km/h (2 Bft) W-NW 282 1 min 0,000 mm 4,6 UV-I 693 W/m 16,6 C 12,9 km/h (3 Bft)
26.08.2016 15:05 28,3 C 28,4 C 49 % 1016,8 hPa 0,0 mm 7,2 km/h (2 Bft) W 275 1 min 0,000 mm 4,6 UV-I 687 W/m 16,5 C 12,9 km/h (3 Bft)
26.08.2016 15:06 28,3 C 28,3 C 53 % 1016,8 hPa 0,0 mm 7,6 km/h (2 Bft) W 281 1 min 0,000 mm 4,6 UV-I 686 W/m 17,8 C 11,3 km/h (2 Bft)
26.08.2016 15:07 28,2 C 28,3 C 50 % 1016,8 hPa 0,0 mm 6,4 km/h (2 Bft) W 274 1 min 0,000 mm 4,6 UV-I 686 W/m 16,8 C 11,3 km/h (2 Bft)
26.08.2016 15:08 28,2 C 28,2 C 52 % 1016,8 hPa 0,0 mm 8,7 km/h (2 Bft) NW 304 1 min 0,000 mm 4,5 UV-I 686 W/m 17,4 C 12,9 km/h (3 Bft)
26.08.2016 15:09 28,2 C 28,2 C 50 % 1016,8 hPa 0,0 mm 8,5 km/h (2 Bft) NW 308 1 min 0,000 mm 4,6 UV-I 684 W/m 16,8 C 12,9 km/h (3 Bft)
26.08.2016 15:10 28,2 C 28,3 C 50 % 1016,8 hPa 0,0 mm 6,0 km/h (2 Bft) NW 309 1 min 0,000 mm 4,5 UV-I 684 W/m 16,8 C 11,3 km/h (2 Bft)
26.08.2016 15:11 28,3 C 28,3 C 51 % 1016,8 hPa 0,0 mm 7,6 km/h (2 Bft) N-NW 345 1 min 0,000 mm 4,5 UV-I 686 W/m 17,2 C 11,3 km/h (2 Bft)
26.08.2016 15:12 28,3 C 28,3 C 51 % 1016,8 hPa 0,0 mm 5,4 km/h (1 Bft) NW 306 1 min 0,000 mm 4,6 UV-I 684 W/m 17,2 C 8,0 km/h (2 Bft)
26.08.2016 15:13 28,3 C 28,3 C 52 % 1016,8 hPa 0,0 mm 7,0 km/h (2 Bft) N-NW 339 1 min 0,000 mm 4,5 UV-I 680 W/m 17,5 C 9,7 km/h (2 Bft)
26.08.2016 15:14 28,3 C 28,3 C 52 % 1016,8 hPa 0,0 mm 3,5 km/h (1 Bft) NW 326 1 min 0,000 mm 4,5 UV-I 680 W/m 17,5 C 4,8 km/h (1 Bft)
26.08.2016 15:15 28,3 C 28,3 C 50 % 1016,7 hPa 0,0 mm 2,8 km/h (1 Bft) W 267 1 min 0,000 mm 4,5 UV-I 675 W/m 16,9 C 4,8 km/h (1 Bft)
26.08.2016 15:16 28,3 C 28,3 C 50 % 1016,8 hPa 0,0 mm 4,5 km/h (1 Bft) W-NW 298 1 min 0,000 mm 4,5 UV-I 675 W/m 16,9 C 6,4 km/h (2 Bft)
26.08.2016 15:17 28,2 C 28,3 C 49 % 1016,7 hPa 0,0 mm 3,7 km/h (1 Bft) W-SW 244 1 min 0,000 mm 4,5 UV-I 673 W/m 16,5 C 6,4 km/h (2 Bft)
26.08.2016 15:18 28,1 C 28,2 C 52 % 1016,7 hPa 0,0 mm 3,8 km/h (1 Bft) NW 313 1 min 0,000 mm 4,5 UV-I 673 W/m 17,3 C 6,4 km/h (2 Bft)
26.08.2016 15:19 28,1 C 28,1 C 52 % 1016,7 hPa 0,0 mm 2,1 km/h (1 Bft) NW 311 1 min 0,000 mm 4,4 UV-I 668 W/m 17,3 C 3,2 km/h (1 Bft)
26.08.2016 15:20 28,2 C 28,2 C 49 % 1016,7 hPa 0,0 mm 2,7 km/h (1 Bft) W 275 1 min 0,000 mm 4,4 UV-I 666 W/m 16,5 C 4,8 km/h (1 Bft)
26.08.2016 15:21 28,2 C 28,2 C 55 % 1016,7 hPa 0,0 mm 5,5 km/h (1 Bft) N 355 1 min 0,000 mm 4,4 UV-I 664 W/m 18,3 C 8,0 km/h (2 Bft)
26.08.2016 15:22 28,3 C 28,3 C 52 % 1016,7 hPa 0,0 mm 7,4 km/h (2 Bft) N-NW 336 1 min 0,000 mm 4,5 UV-I 666 W/m 17,5 C 12,9 km/h (3 Bft)
26.08.2016 15:23 28,3 C 28,3 C 52 % 1016,7 hPa 0,0 mm 5,9 km/h (2 Bft) NW 315 1 min 0,000 mm 4,6 UV-I 663 W/m 17,5 C 8,0 km/h (2 Bft)
26.08.2016 15:24 28,3 C 28,3 C 51 % 1016,7 hPa 0,0 mm 5,4 km/h (1 Bft) NW 304 1 min 0,000 mm 4,6 UV-I 661 W/m 17,2 C 11,3 km/h (2 Bft)
26.08.2016 15:25 28,3 C 28,3 C 49 % 1016,8 hPa 0,0 mm 6,5 km/h (2 Bft) N-NW 328 1 min 0,000 mm 4,6 UV-I 657 W/m 16,5 C 11,3 km/h (2 Bft)
26.08.2016 15:26 28,2 C 28,3 C 50 % 1016,7 hPa 0,0 mm 3,9 km/h (1 Bft) N-NW 327 1 min 0,000 mm 4,6 UV-I 657 W/m 16,8 C 6,4 km/h (2 Bft)
26.08.2016 15:27 28,2 C 28,2 C 51 % 1016,7 hPa 0,0 mm 2,9 km/h (1 Bft) N-NW 331 1 min 0,000 mm 4,6 UV-I 654 W/m 17,1 C 4,8 km/h (1 Bft)
26.08.2016 15:28 28,3 C 28,3 C 53 % 1016,8 hPa 0,0 mm 8,6 km/h (2 Bft) NW 314 1 min 0,000 mm 4,7 UV-I 654 W/m 17,8 C 14,5 km/h (3 Bft)
26.08.2016 15:29 28,3 C 28,3 C 52 % 1016,7 hPa 0,0 mm 4,3 km/h (1 Bft) NW 315 1 min 0,000 mm 4,6 UV-I 647 W/m 17,5 C 6,4 km/h (2 Bft)
26.08.2016 15:30 28,2 C 28,3 C 50 % 1016,7 hPa 0,0 mm 4,3 km/h (1 Bft) NW 306 1 min 0,000 mm 4,6 UV-I 643 W/m 16,8 C 6,4 km/h (2 Bft)
26.08.2016 15:31 28,2 C 28,2 C 50 % 1016,8 hPa 0,0 mm 5,2 km/h (1 Bft) W 262 1 min 0,000 mm 4,6 UV-I 645 W/m 16,8 C 9,7 km/h (2 Bft)
26.08.2016 15:32 28,2 C 28,2 C 52 % 1016,7 hPa 0,0 mm 8,5 km/h (2 Bft) W 277 1 min 0,000 mm 4,6 UV-I 643 W/m 17,4 C 12,9 km/h (3 Bft)
26.08.2016 15:33 28,2 C 28,2 C 51 % 1016,7 hPa 0,0 mm 6,0 km/h (2 Bft) W 261 1 min 0,000 mm 4,6 UV-I 642 W/m 17,1 C 9,7 km/h (2 Bft)
26.08.2016 15:34 28,2 C 28,2 C 49 % 1016,7 hPa 0,0 mm 5,6 km/h (1 Bft) W 275 1 min 0,000 mm 4,6 UV-I 640 W/m 16,5 C 11,3 km/h (2 Bft)
26.08.2016 15:35 28,2 C 28,2 C 52 % 1016,7 hPa 0,0 mm 2,2 km/h (1 Bft) N-NO 22 1 min 0,000 mm 4,6 UV-I 636 W/m 17,4 C 3,2 km/h (1 Bft)
26.08.2016 15:36 28,2 C 28,2 C 53 % 1016,7 hPa 0,0 mm 5,9 km/h (2 Bft) W-NW 297 1 min 0,000 mm 4,5 UV-I 633 W/m 17,7 C 11,3 km/h (2 Bft)
26.08.2016 15:37 28,3 C 28,3 C 52 % 1016,7 hPa 0,0 mm 4,6 km/h (1 Bft) N-NW 338 1 min 0,000 mm 4,4 UV-I 629 W/m 17,5 C 9,7 km/h (2 Bft)
26.08.2016 15:38 28,3 C 28,3 C 51 % 1016,7 hPa 0,0 mm 5,8 km/h (2 Bft) NW 306 1 min 0,000 mm 4,4 UV-I 629 W/m 17,2 C 11,3 km/h (2 Bft)
26.08.2016 15:39 28,3 C 28,4 C 51 % 1016,7 hPa 0,0 mm 4,7 km/h (1 Bft) N-NW 348 1 min 0,000 mm 4,4 UV-I 629 W/m 17,2 C 8,0 km/h (2 Bft)
26.08.2016 15:40 28,3 C 28,3 C 56 % 1016,7 hPa 0,0 mm 3,3 km/h (1 Bft) NW 325 1 min 0,000 mm 4,4 UV-I 626 W/m 18,7 C 6,4 km/h (2 Bft)
26.08.2016 15:41 28,3 C 28,3 C 52 % 1016,7 hPa 0,0 mm 5,3 km/h (1 Bft) W-NW 294 1 min 0,000 mm 4,4 UV-I 624 W/m 17,5 C 6,4 km/h (2 Bft)
26.08.2016 15:42 28,3 C 28,3 C 52 % 1016,7 hPa 0,0 mm 4,6 km/h (1 Bft) NW 307 1 min 0,000 mm 4,3 UV-I 621 W/m 17,5 C 8,0 km/h (2 Bft)
26.08.2016 15:43 28,3 C 28,3 C 51 % 1016,7 hPa 0,0 mm 4,8 km/h (1 Bft) NW 315 1 min 0,000 mm 4,3 UV-I 619 W/m 17,2 C 8,0 km/h (2 Bft)
26.08.2016 15:44 28,4 C 28,4 C 51 % 1016,7 hPa 0,0 mm 4,2 km/h (1 Bft) NW 325 1 min 0,000 mm 4,4 UV-I 621 W/m 17,3 C 8,0 km/h (2 Bft)
26.08.2016 15:45 28,4 C 28,4 C 49 % 1016,7 hPa 0,0 mm 9,0 km/h (2 Bft) N-NW 330 1 min 0,000 mm 4,4 UV-I 622 W/m 16,6 C 12,9 km/h (3 Bft)
26.08.2016 15:46 28,4 C 28,4 C 50 % 1016,7 hPa 0,0 mm 5,2 km/h (1 Bft) N 5 1 min 0,000 mm 4,3 UV-I 621 W/m 17,0 C 8,0 km/h (2 Bft)
26.08.2016 15:47 28,4 C 28,4 C 52 % 1016,7 hPa 0,0 mm 6,2 km/h (2 Bft) N-NO 19 1 min 0,000 mm 4,3 UV-I 615 W/m 17,6 C 8,0 km/h (2 Bft)
26.08.2016 15:48 28,4 C 28,4 C 53 % 1016,7 hPa 0,0 mm 6,8 km/h (2 Bft) N-NW 344 1 min 0,000 mm 4,3 UV-I 613 W/m 17,9 C 9,7 km/h (2 Bft)
26.08.2016 15:49 28,4 C 28,4 C 50 % 1016,7 hPa 0,0 mm 4,8 km/h (1 Bft) N-NW 330 1 min 0,000 mm 4,2 UV-I 610 W/m 17,0 C 6,4 km/h (2 Bft)
26.08.2016 15:50 28,4 C 28,4 C 50 % 1016,7 hPa 0,0 mm 4,4 km/h (1 Bft) N-NW 334 1 min 0,000 mm 4,2 UV-I 606 W/m 17,0 C 8,0 km/h (2 Bft)
26.08.2016 15:51 28,4 C 28,5 C 48 % 1016,7 hPa 0,0 mm 5,4 km/h (1 Bft) N-NW 342 1 min 0,000 mm 4,1 UV-I 603 W/m 16,3 C 8,0 km/h (2 Bft)
26.08.2016 15:52 28,4 C 28,4 C 48 % 1016,7 hPa 0,0 mm 4,3 km/h (1 Bft) N-NW 331 1 min 0,000 mm 4,1 UV-I 601 W/m 16,3 C 4,8 km/h (1 Bft)
26.08.2016 15:53 28,3 C 28,4 C 48 % 1016,6 hPa 0,0 mm 3,5 km/h (1 Bft) NW 322 1 min 0,000 mm 4,1 UV-I 601 W/m 16,2 C 4,8 km/h (1 Bft)
26.08.2016 15:54 28,3 C 28,3 C 49 % 1016,6 hPa 0,0 mm 2,0 km/h (1 Bft) N 355 1 min 0,000 mm 4,1 UV-I 599 W/m 16,5 C 3,2 km/h (1 Bft)
26.08.2016 15:55 28,2 C 28,3 C 51 % 1016,6 hPa 0,0 mm 4,5 km/h (1 Bft) N-NO 19 1 min 0,000 mm 4,1 UV-I 601 W/m 17,1 C 4,8 km/h (1 Bft)
26.08.2016 15:56 28,3 C 28,3 C 48 % 1016,6 hPa 0,0 mm 5,0 km/h (1 Bft) N 355 1 min 0,000 mm 4,1 UV-I 599 W/m 16,2 C 6,4 km/h (2 Bft)
26.08.2016 15:57 28,4 C 28,4 C 48 % 1016,6 hPa 0,0 mm 5,1 km/h (1 Bft) NO 38 1 min 0,000 mm 4,0 UV-I 594 W/m 16,3 C 6,4 km/h (2 Bft)
26.08.2016 15:58 28,4 C 28,4 C 52 % 1016,6 hPa 0,0 mm 4,2 km/h (1 Bft) N-NO 15 1 min 0,000 mm 4,0 UV-I 587 W/m 17,6 C 6,4 km/h (2 Bft)
26.08.2016 15:59 28,5 C 28,5 C 49 % 1016,6 hPa 0,0 mm 6,0 km/h (2 Bft) N 355 1 min 0,000 mm 4,0 UV-I 587 W/m 16,7 C 8,0 km/h (2 Bft)
26.08.2016 16:00 28,5 C 28,5 C 48 % 1016,6 hPa 0,0 mm 4,1 km/h (1 Bft) N 360 1 min 0,000 mm 4,0 UV-I 585 W/m 16,4 C 6,4 km/h (2 Bft)
26.08.2016 16:01 28,6 C 28,6 C 48 % 1016,6 hPa 0,0 mm 7,3 km/h (2 Bft) N 351 1 min 0,457 mm 3,9 UV-I 584 W/m 16,5 C 9,7 km/h (2 Bft)
26.08.2016 16:02 28,6 C 28,6 C 52 % 1016,6 hPa 0,0 mm 4,9 km/h (1 Bft) NW 306 1 min 0,000 mm 3,9 UV-I 582 W/m 17,8 C 6,4 km/h (2 Bft)
26.08.2016 16:03 28,6 C 28,6 C 50 % 1016,6 hPa 0,0 mm 4,7 km/h (1 Bft) W-NW 298 1 min 0,000 mm 3,9 UV-I 582 W/m 17,1 C 8,0 km/h (2 Bft)
26.08.2016 16:04 28,6 C 28,6 C 50 % 1016,6 hPa 0,0 mm 6,8 km/h (2 Bft) NW 321 1 min 0,000 mm 3,9 UV-I 578 W/m 17,1 C 12,9 km/h (3 Bft)
26.08.2016 16:05 28,6 C 28,6 C 52 % 1016,6 hPa 0,0 mm 6,1 km/h (2 Bft) W 274 1 min 0,000 mm 3,8 UV-I 575 W/m 17,8 C 9,7 km/h (2 Bft)
26.08.2016 16:06 28,4 C 28,6 C 50 % 1016,7 hPa 0,0 mm 5,8 km/h (2 Bft) NW 316 1 min 0,000 mm 3,8 UV-I 575 W/m 17,0 C 6,4 km/h (2 Bft)
26.08.2016 16:07 28,4 C 28,4 C 49 % 1016,7 hPa 0,0 mm 3,8 km/h (1 Bft) W-NW 299 1 min 0,000 mm 3,8 UV-I 573 W/m 16,6 C 6,4 km/h (2 Bft)
26.08.2016 16:08 28,2 C 28,4 C 49 % 1016,6 hPa 0,0 mm 5,2 km/h (1 Bft) W-SW 258 1 min 0,000 mm 3,8 UV-I 571 W/m 16,5 C 8,0 km/h (2 Bft)
26.08.2016 16:09 28,1 C 28,2 C 50 % 1016,6 hPa 0,0 mm 4,8 km/h (1 Bft) N 360 1 min 0,000 mm 3,8 UV-I 570 W/m 16,7 C 6,4 km/h (2 Bft)
26.08.2016 16:10 28,1 C 28,1 C 51 % 1016,7 hPa 0,0 mm 4,5 km/h (1 Bft) W-NW 302 1 min 0,000 mm 3,8 UV-I 564 W/m 17,0 C 6,4 km/h (2 Bft)
26.08.2016 16:11 28,1 C 28,1 C 53 % 1016,7 hPa 0,0 mm 2,1 km/h (1 Bft) W-NW 303 1 min 0,000 mm 3,7 UV-I 563 W/m 17,6 C 4,8 km/h (1 Bft)
26.08.2016 16:12 28,2 C 28,2 C 52 % 1016,6 hPa 0,0 mm 0,8 km/h (0 Bft) W-NW 303 1 min 0,000 mm 3,7 UV-I 561 W/m 17,4 C 1,6 km/h (1 Bft)
26.08.2016 16:13 28,2 C 28,2 C 50 % 1016,6 hPa 0,0 mm 4,4 km/h (1 Bft) NW 306 1 min 0,000 mm 3,7 UV-I 557 W/m 16,8 C 8,0 km/h (2 Bft)
26.08.2016 16:14 28,2 C 28,2 C 50 % 1016,6 hPa 0,0 mm 4,1 km/h (1 Bft) N-NW 327 1 min 0,000 mm 3,7 UV-I 555 W/m 16,8 C 6,4 km/h (2 Bft)
26.08.2016 16:15 28,2 C 28,2 C 51 % 1016,6 hPa 0,0 mm 3,6 km/h (1 Bft) N-NW 334 1 min 0,000 mm 3,6 UV-I 550 W/m 17,1 C 6,4 km/h (2 Bft)
26.08.2016 16:16 28,2 C 28,2 C 48 % 1016,6 hPa 0,0 mm 3,2 km/h (1 Bft) NW 312 1 min 0,000 mm 3,6 UV-I 459 W/m 16,1 C 4,8 km/h (1 Bft)
26.08.2016 16:17 28,2 C 28,2 C 49 % 1016,6 hPa 0,0 mm 4,4 km/h (1 Bft) NW 319 1 min 0,000 mm 2,3 UV-I 459 W/m 16,5 C 6,4 km/h (2 Bft)
26.08.2016 16:18 28,1 C 28,2 C 48 % 1016,6 hPa 0,0 mm 3,3 km/h (1 Bft) N-NW 345 1 min 0,000 mm 2,2 UV-I 459 W/m 16,0 C 6,4 km/h (2 Bft)
26.08.2016 16:19 28,2 C 28,2 C 51 % 1016,6 hPa 0,0 mm 8,0 km/h (2 Bft) N-NW 331 0 min 0,000 mm 0,0 UV-I 51 W/m 17,1 C 12,9 km/h (3 Bft)
26.08.2016 16:20 28,2 C 28,2 C 52 % 1016,6 hPa 0,0 mm 5,7 km/h (1 Bft) NW 311 0 min 0,000 mm 2,1 UV-I 60 W/m 17,4 C 9,7 km/h (2 Bft)
26.08.2016 16:21 28,2 C 28,2 C 51 % 1016,6 hPa 0,0 mm 5,5 km/h (1 Bft) W-NW 290 0 min 0,000 mm 2,0 UV-I 114 W/m 17,1 C 8,0 km/h (2 Bft)
26.08.2016 16:22 28,1 C 28,2 C 50 % 1016,6 hPa 0,0 mm 3,8 km/h (1 Bft) W-NW 282 0 min 0,000 mm 2,0 UV-I 267 W/m 16,7 C 4,8 km/h (1 Bft)
26.08.2016 16:23 28,1 C 28,1 C 49 % 1016,6 hPa 0,0 mm 3,5 km/h (1 Bft) W 262 0 min 0,000 mm 1,8 UV-I 267 W/m 16,4 C 4,8 km/h (1 Bft)
26.08.2016 16:24 27,9 C 28,1 C 51 % 1016,6 hPa 0,0 mm 3,9 km/h (1 Bft) W 259 0 min 0,000 mm 0,0 UV-I 42 W/m 16,8 C 4,8 km/h (1 Bft)
26.08.2016 16:25 27,9 C 28,0 C 48 % 1016,6 hPa 0,0 mm 3,6 km/h (1 Bft) W-NW 289 0 min 0,000 mm 0,0 UV-I 26 W/m 15,9 C 6,4 km/h (2 Bft)
26.08.2016 16:26 27,8 C 27,9 C 49 % 1016,6 hPa 0,0 mm 1,5 km/h (1 Bft) W-NW 288 0 min 0,000 mm 0,0 UV-I 40 W/m 16,1 C 3,2 km/h (1 Bft)
26.08.2016 16:27 27,8 C 27,8 C 49 % 1016,6 hPa 0,0 mm 2,9 km/h (1 Bft) W-NW 288 0 min 0,000 mm 0,0 UV-I 40 W/m 16,1 C 3,2 km/h (1 Bft)
26.08.2016 16:28 27,8 C 27,8 C 54 % 1016,6 hPa 0,0 mm 2,6 km/h (1 Bft) W-NW 288 0 min 0,000 mm 0,0 UV-I 40 W/m 17,6 C 3,2 km/h (1 Bft)
26.08.2016 16:29 27,8 C 27,8 C 53 % 1016,6 hPa 0,0 mm 1,3 km/h (1 Bft) W-NW 288 0 min 0,000 mm 0,0 UV-I 40 W/m 17,3 C 1,6 km/h (1 Bft)
26.08.2016 16:30 27,8 C 27,8 C 51 % 1016,6 hPa 0,0 mm 3,7 km/h (1 Bft) NW 314 0 min 0,000 mm 0,0 UV-I 40 W/m 16,7 C 6,4 km/h (2 Bft)
26.08.2016 16:31 27,9 C 27,9 C 52 % 1016,6 hPa 0,0 mm 4,1 km/h (1 Bft) N-NW 327 0 min 0,000 mm 0,0 UV-I 40 W/m 17,1 C 4,8 km/h (1 Bft)
26.08.2016 16:32 27,9 C 27,9 C 50 % 1016,6 hPa 0,0 mm 3,6 km/h (1 Bft) N-NW 344 0 min 0,000 mm 0,0 UV-I 40 W/m 16,5 C 4,8 km/h (1 Bft)
26.08.2016 16:33 28,1 C 28,1 C 51 % 1016,6 hPa 0,0 mm 3,5 km/h (1 Bft) NW 311 0 min 0,000 mm 0,0 UV-I 40 W/m 17,0 C 4,8 km/h (1 Bft)
26.08.2016 16:34 28,2 C 28,2 C 50 % 1016,6 hPa 0,0 mm 4,8 km/h (1 Bft) N-NO 23 0 min 0,000 mm 0,0 UV-I 40 W/m 16,8 C 6,4 km/h (2 Bft)
26.08.2016 16:35 28,2 C 28,2 C 50 % 1016,6 hPa 0,0 mm 6,8 km/h (2 Bft) NW 325 0 min 0,000 mm 0,0 UV-I 40 W/m 16,8 C 12,9 km/h (3 Bft)
26.08.2016 16:36 28,3 C 28,3 C 51 % 1016,6 hPa 0,0 mm 5,3 km/h (1 Bft) N 5 0 min 0,000 mm 0,0 UV-I 40 W/m 17,2 C 8,0 km/h (2 Bft)
26.08.2016 16:37 28,4 C 28,4 C 49 % 1016,6 hPa 0,0 mm 5,9 km/h (2 Bft) N-NO 12 0 min 0,000 mm 0,0 UV-I 40 W/m 16,6 C 9,7 km/h (2 Bft)
26.08.2016 16:38 28,3 C 28,4 C 48 % 1016,6 hPa 0,0 mm 5,6 km/h (1 Bft) N 360 0 min 0,000 mm 0,0 UV-I 40 W/m 16,2 C 8,0 km/h (2 Bft)
26.08.2016 16:39 28,3 C 28,3 C 47 % 1016,6 hPa 0,0 mm 2,5 km/h (1 Bft) N 360 0 min 0,000 mm 0,0 UV-I 40 W/m 15,9 C 4,8 km/h (1 Bft)
26.08.2016 16:40 28,2 C 28,3 C 48 % 1016,5 hPa 0,0 mm 1,1 km/h (1 Bft) NO 49 0 min 0,000 mm 0,0 UV-I 40 W/m 16,1 C 3,2 km/h (1 Bft)
26.08.2016 16:41 28,1 C 28,2 C 49 % 1016,5 hPa 0,0 mm 1,0 km/h (0 Bft) NO 49 0 min 0,000 mm 0,0 UV-I 40 W/m 16,4 C 1,6 km/h (1 Bft)
26.08.2016 16:42 28,1 C 28,1 C 49 % 1016,6 hPa 0,0 mm 1,9 km/h (1 Bft) N 9 0 min 0,000 mm 0,0 UV-I 42 W/m 16,4 C 4,8 km/h (1 Bft)
26.08.2016 16:43 28,1 C 28,1 C 52 % 1016,5 hPa 0,0 mm 3,3 km/h (1 Bft) W-NW 294 0 min 0,000 mm 0,0 UV-I 51 W/m 17,3 C 4,8 km/h (1 Bft)
26.08.2016 16:44 28,1 C 28,1 C 54 % 1016,6 hPa 0,0 mm 5,6 km/h (1 Bft) W 263 0 min 0,000 mm 0,0 UV-I 49 W/m 17,9 C 6,4 km/h (2 Bft)
26.08.2016 16:45 28,0 C 28,1 C 51 % 1016,5 hPa 0,0 mm 4,9 km/h (1 Bft) N-NW 327 0 min 0,000 mm 0,0 UV-I 42 W/m 16,9 C 6,4 km/h (2 Bft)
26.08.2016 16:46 27,9 C 28,0 C 54 % 1016,6 hPa 0,0 mm 6,2 km/h (2 Bft) NW 317 0 min 0,000 mm 0,0 UV-I 42 W/m 17,7 C 8,0 km/h (2 Bft)
26.08.2016 16:47 27,9 C 28,0 C 52 % 1016,6 hPa 0,0 mm 4,5 km/h (1 Bft) W-NW 292 0 min 0,000 mm 0,0 UV-I 40 W/m 17,1 C 6,4 km/h (2 Bft)
26.08.2016 16:48 27,9 C 27,9 C 54 % 1016,6 hPa 0,0 mm 4,5 km/h (1 Bft) W-NW 290 0 min 0,000 mm 0,0 UV-I 39 W/m 17,7 C 8,0 km/h (2 Bft)
26.08.2016 16:49 27,9 C 27,9 C 52 % 1016,6 hPa 0,0 mm 3,0 km/h (1 Bft) NW 304 0 min 0,000 mm 0,0 UV-I 40 W/m 17,1 C 4,8 km/h (1 Bft)
26.08.2016 16:50 27,9 C 27,9 C 54 % 1016,6 hPa 0,0 mm 2,6 km/h (1 Bft) W-NW 295 0 min 0,000 mm 0,0 UV-I 40 W/m 17,7 C 4,8 km/h (1 Bft)
26.08.2016 16:51 27,8 C 27,9 C 51 % 1016,6 hPa 0,0 mm 2,3 km/h (1 Bft) NW 308 0 min 0,000 mm 0,0 UV-I 39 W/m 16,7 C 3,2 km/h (1 Bft)
26.08.2016 16:52 27,8 C 27,8 C 52 % 1016,6 hPa 0,0 mm 1,9 km/h (1 Bft) NW 308 0 min 0,000 mm 0,0 UV-I 39 W/m 17,0 C 3,2 km/h (1 Bft)
26.08.2016 16:53 27,8 C 27,8 C 54 % 1016,6 hPa 0,0 mm 3,4 km/h (1 Bft) W-NW 299 0 min 0,000 mm 0,0 UV-I 40 W/m 17,6 C 4,8 km/h (1 Bft)
26.08.2016 16:54 27,9 C 27,9 C 53 % 1016,6 hPa 0,0 mm 3,7 km/h (1 Bft) N 349 0 min 0,000 mm 0,0 UV-I 40 W/m 17,4 C 6,4 km/h (2 Bft)
26.08.2016 16:55 27,9 C 27,9 C 52 % 1016,5 hPa 0,0 mm 7,6 km/h (2 Bft) N 5 0 min 0,000 mm 0,0 UV-I 51 W/m 17,1 C 12,9 km/h (3 Bft)
26.08.2016 16:56 27,9 C 27,9 C 53 % 1016,6 hPa 0,0 mm 5,0 km/h (1 Bft) W-NW 298 0 min 0,000 mm 0,0 UV-I 54 W/m 17,4 C 9,7 km/h (2 Bft)
26.08.2016 16:57 27,9 C 27,9 C 53 % 1016,5 hPa 0,0 mm 3,6 km/h (1 Bft) N-NW 346 0 min 0,000 mm 0,0 UV-I 39 W/m 17,4 C 6,4 km/h (2 Bft)
26.08.2016 16:58 27,9 C 27,9 C 53 % 1016,6 hPa 0,0 mm 4,8 km/h (1 Bft) N-NW 348 0 min 0,000 mm 0,0 UV-I 39 W/m 17,4 C 6,4 km/h (2 Bft)
26.08.2016 16:59 27,9 C 27,9 C 53 % 1016,6 hPa 0,0 mm 5,1 km/h (1 Bft) N 351 0 min 0,000 mm 0,0 UV-I 39 W/m 17,4 C 6,4 km/h (2 Bft)
26.08.2016 17:00 27,9 C 27,9 C 53 % 1016,6 hPa 0,0 mm 2,1 km/h (1 Bft) N 355 0 min 0,000 mm 0,0 UV-I 39 W/m 17,4 C 3,2 km/h (1 Bft)
26.08.2016 17:01 27,9 C 27,9 C 53 % 1016,6 hPa 0,0 mm 3,6 km/h (1 Bft) W-NW 300 0 min 0,178 mm 0,0 UV-I 40 W/m 17,4 C 4,8 km/h (1 Bft)
26.08.2016 17:02 27,8 C 27,9 C 51 % 1016,5 hPa 0,0 mm 4,3 km/h (1 Bft) N 10 0 min 0,000 mm 0,0 UV-I 40 W/m 16,7 C 6,4 km/h (2 Bft)
26.08.2016 17:03 27,8 C 27,8 C 51 % 1016,5 hPa 0,0 mm 4,5 km/h (1 Bft) N 5 0 min 0,000 mm 0,0 UV-I 42 W/m 16,7 C 6,4 km/h (2 Bft)
26.08.2016 17:04 27,9 C 27,9 C 52 % 1016,6 hPa 0,0 mm 5,1 km/h (1 Bft) N-NO 13 0 min 0,000 mm 0,0 UV-I 40 W/m 17,1 C 8,0 km/h (2 Bft)
26.08.2016 17:05 27,9 C 27,9 C 50 % 1016,6 hPa 0,0 mm 5,9 km/h (2 Bft) N 5 0 min 0,000 mm 0,0 UV-I 40 W/m 16,5 C 8,0 km/h (2 Bft)
26.08.2016 17:06 28,0 C 28,0 C 49 % 1016,6 hPa 0,0 mm 5,2 km/h (1 Bft) NO 42 0 min 0,000 mm 0,0 UV-I 39 W/m 16,3 C 6,4 km/h (2 Bft)
26.08.2016 17:07 28,1 C 28,1 C 53 % 1016,6 hPa 0,0 mm 4,5 km/h (1 Bft) N 360 0 min 0,000 mm 0,0 UV-I 39 W/m 17,6 C 6,4 km/h (2 Bft)
26.08.2016 17:08 28,0 C 28,1 C 50 % 1016,6 hPa 0,0 mm 6,5 km/h (2 Bft) N 351 0 min 0,000 mm 0,0 UV-I 39 W/m 16,6 C 8,0 km/h (2 Bft)
26.08.2016 17:09 28,1 C 28,1 C 50 % 1016,6 hPa 0,0 mm 5,5 km/h (1 Bft) N 355 0 min 0,000 mm 1,5 UV-I 44 W/m 16,7 C 11,3 km/h (2 Bft)
26.08.2016 17:10 28,1 C 28,1 C 52 % 1016,5 hPa 0,0 mm 2,5 km/h (1 Bft) NW 323 0 min 0,000 mm 0,0 UV-I 44 W/m 17,3 C 4,8 km/h (1 Bft)
26.08.2016 17:11 28,1 C 28,1 C 53 % 1016,6 hPa 0,0 mm 1,4 km/h (1 Bft) NW 310 0 min 0,000 mm 0,0 UV-I 42 W/m 17,6 C 3,2 km/h (1 Bft)
26.08.2016 17:12 28,1 C 28,1 C 53 % 1016,5 hPa 0,0 mm 3,4 km/h (1 Bft) W-NW 297 0 min 0,000 mm 0,0 UV-I 40 W/m 17,6 C 4,8 km/h (1 Bft)
26.08.2016 17:13 28,1 C 28,1 C 52 % 1016,5 hPa 0,0 mm 5,8 km/h (2 Bft) W-NW 297 0 min 0,000 mm 0,0 UV-I 39 W/m 17,3 C 11,3 km/h (2 Bft)
26.08.2016 17:14 28,0 C 28,1 C 54 % 1016,5 hPa 0,0 mm 5,4 km/h (1 Bft) N-NW 342 0 min 0,000 mm 0,0 UV-I 44 W/m 17,8 C 8,0 km/h (2 Bft)
26.08.2016 17:15 27,9 C 28,0 C 52 % 1016,5 hPa 0,0 mm 5,9 km/h (2 Bft) N 351 0 min 0,000 mm 0,0 UV-I 60 W/m 17,1 C 9,7 km/h (2 Bft)
26.08.2016 17:16 27,9 C 27,9 C 51 % 1016,5 hPa 0,0 mm 4,2 km/h (1 Bft) W-NW 286 0 min 0,000 mm 0,0 UV-I 47 W/m 16,8 C 8,0 km/h (2 Bft)
26.08.2016 17:17 27,9 C 27,9 C 52 % 1016,5 hPa 0,0 mm 6,3 km/h (2 Bft) NW 308 0 min 0,000 mm 0,0 UV-I 37 W/m 17,1 C 9,7 km/h (2 Bft)
26.08.2016 17:18 27,8 C 27,9 C 52 % 1016,5 hPa 0,0 mm 3,7 km/h (1 Bft) W-NW 284 0 min 0,000 mm 0,0 UV-I 37 W/m 17,0 C 4,8 km/h (1 Bft)
26.08.2016 17:19 27,8 C 27,8 C 50 % 1016,5 hPa 0,0 mm 3,5 km/h (1 Bft) W-NW 283 0 min 0,000 mm 0,0 UV-I 37 W/m 16,4 C 4,8 km/h (1 Bft)
26.08.2016 17:20 27,7 C 27,8 C 50 % 1016,5 hPa 0,0 mm 3,4 km/h (1 Bft) N-NW 342 0 min 0,000 mm 0,0 UV-I 40 W/m 16,3 C 4,8 km/h (1 Bft)
26.08.2016 17:21 27,7 C 27,7 C 51 % 1016,5 hPa 0,0 mm 3,5 km/h (1 Bft) N 355 0 min 0,000 mm 0,0 UV-I 40 W/m 16,6 C 4,8 km/h (1 Bft)
26.08.2016 17:22 27,7 C 27,7 C 53 % 1016,5 hPa 0,0 mm 3,7 km/h (1 Bft) N-NW 346 0 min 0,000 mm 0,0 UV-I 42 W/m 17,2 C 6,4 km/h (2 Bft)
26.08.2016 17:23 27,7 C 27,7 C 51 % 1016,5 hPa 0,0 mm 3,6 km/h (1 Bft) N 5 0 min 0,000 mm 0,0 UV-I 39 W/m 16,6 C 4,8 km/h (1 Bft)
26.08.2016 17:24 27,8 C 27,8 C 49 % 1016,5 hPa 0,0 mm 4,5 km/h (1 Bft) NW 315 0 min 0,000 mm 0,0 UV-I 39 W/m 16,1 C 6,4 km/h (2 Bft)
26.08.2016 17:25 27,8 C 27,8 C 50 % 1016,5 hPa 0,0 mm 4,2 km/h (1 Bft) NW 311 0 min 0,000 mm 0,0 UV-I 39 W/m 16,4 C 4,8 km/h (1 Bft)
26.08.2016 17:26 27,8 C 27,8 C 50 % 1016,5 hPa 0,0 mm 3,2 km/h (1 Bft) N-NW 338 0 min 0,000 mm 0,0 UV-I 37 W/m 16,4 C 4,8 km/h (1 Bft)
26.08.2016 17:27 27,8 C 27,8 C 49 % 1016,5 hPa 0,0 mm 2,9 km/h (1 Bft) N-NW 335 0 min 0,000 mm 0,0 UV-I 37 W/m 16,1 C 4,8 km/h (1 Bft)
26.08.2016 17:28 27,8 C 27,8 C 51 % 1016,4 hPa 0,0 mm 2,4 km/h (1 Bft) N-NW 329 0 min 0,000 mm 0,0 UV-I 37 W/m 16,7 C 4,8 km/h (1 Bft)
26.08.2016 17:29 27,8 C 27,8 C 51 % 1016,5 hPa 0,0 mm 1,1 km/h (1 Bft) N-NW 331 0 min 0,000 mm 0,0 UV-I 37 W/m 16,7 C 3,2 km/h (1 Bft)
26.08.2016 17:30 27,7 C 27,8 C 52 % 1016,5 hPa 0,0 mm 0,7 km/h (0 Bft) N-NW 331 0 min 0,000 mm 0,0 UV-I 37 W/m 16,9 C 3,2 km/h (1 Bft)
26.08.2016 17:31 27,7 C 27,7 C 52 % 1016,5 hPa 0,0 mm 3,4 km/h (1 Bft) N 360 0 min 0,000 mm 0,0 UV-I 37 W/m 16,9 C 4,8 km/h (1 Bft)
26.08.2016 17:32 27,6 C 27,7 C 52 % 1016,5 hPa 0,0 mm 3,9 km/h (1 Bft) NW 309 0 min 0,000 mm 0,0 UV-I 37 W/m 16,8 C 4,8 km/h (1 Bft)
26.08.2016 17:33 27,6 C 27,6 C 55 % 1016,5 hPa 0,0 mm 5,2 km/h (1 Bft) W-NW 299 0 min 0,000 mm 0,0 UV-I 37 W/m 17,7 C 11,3 km/h (2 Bft)
26.08.2016 17:34 27,6 C 27,6 C 51 % 1016,5 hPa 0,0 mm 5,2 km/h (1 Bft) NW 305 0 min 0,000 mm 0,0 UV-I 35 W/m 16,5 C 8,0 km/h (2 Bft)
26.08.2016 17:35 27,6 C 27,6 C 51 % 1016,5 hPa 0,0 mm 3,9 km/h (1 Bft) W 269 0 min 0,000 mm 0,0 UV-I 35 W/m 16,5 C 6,4 km/h (2 Bft)
26.08.2016 17:36 27,6 C 27,6 C 51 % 1016,5 hPa 0,0 mm 4,9 km/h (1 Bft) W-NW 296 0 min 0,000 mm 0,0 UV-I 35 W/m 16,5 C 6,4 km/h (2 Bft)
26.08.2016 17:37 27,6 C 27,6 C 51 % 1016,5 hPa 0,0 mm 4,6 km/h (1 Bft) NW 321 0 min 0,000 mm 0,0 UV-I 35 W/m 16,5 C 6,4 km/h (2 Bft)
26.08.2016 17:38 27,6 C 27,6 C 52 % 1016,5 hPa 0,0 mm 4,8 km/h (1 Bft) NW 315 0 min 0,000 mm 0,0 UV-I 35 W/m 16,8 C 6,4 km/h (2 Bft)
26.08.2016 17:39 27,5 C 27,6 C 52 % 1016,5 hPa 0,0 mm 5,3 km/h (1 Bft) NW 305 0 min 0,000 mm 0,0 UV-I 35 W/m 16,7 C 8,0 km/h (2 Bft)
26.08.2016 17:40 27,6 C 27,6 C 53 % 1016,5 hPa 0,0 mm 3,6 km/h (1 Bft) W 269 0 min 0,000 mm 0,0 UV-I 35 W/m 17,1 C 6,4 km/h (2 Bft)
26.08.2016 17:41 27,6 C 27,6 C 51 % 1016,5 hPa 0,0 mm 3,2 km/h (1 Bft) W 273 0 min 0,000 mm 0,0 UV-I 35 W/m 16,5 C 4,8 km/h (1 Bft)
26.08.2016 17:42 27,6 C 27,6 C 50 % 1016,5 hPa 0,0 mm 1,8 km/h (1 Bft) W 273 0 min 0,000 mm 0,0 UV-I 35 W/m 16,2 C 3,2 km/h (1 Bft)
26.08.2016 17:43 27,6 C 27,6 C 52 % 1016,5 hPa 0,0 mm 3,1 km/h (1 Bft) W 275 0 min 0,000 mm 0,0 UV-I 35 W/m 16,8 C 4,8 km/h (1 Bft)
26.08.2016 17:44 27,6 C 27,6 C 54 % 1016,5 hPa 0,0 mm 4,8 km/h (1 Bft) NW 305 0 min 0,000 mm 0,0 UV-I 35 W/m 17,4 C 6,4 km/h (2 Bft)
26.08.2016 17:45 27,5 C 27,6 C 51 % 1016,5 hPa 0,0 mm 3,6 km/h (1 Bft) W-NW 299 0 min 0,000 mm 0,0 UV-I 35 W/m 16,4 C 6,4 km/h (2 Bft)
26.08.2016 17:46 27,5 C 27,5 C 52 % 1016,5 hPa 0,0 mm 1,9 km/h (1 Bft) W-NW 299 0 min 0,000 mm 0,0 UV-I 35 W/m 16,7 C 3,2 km/h (1 Bft)
26.08.2016 17:47 27,5 C 27,5 C 52 % 1016,4 hPa 0,0 mm 1,9 km/h (1 Bft) W-NW 299 0 min 0,000 mm 0,0 UV-I 35 W/m 16,7 C 3,2 km/h (1 Bft)
26.08.2016 17:48 27,4 C 27,5 C 54 % 1016,5 hPa 0,0 mm 1,9 km/h (1 Bft) W-NW 299 0 min 0,000 mm 0,0 UV-I 35 W/m 17,3 C 3,2 km/h (1 Bft)
26.08.2016 17:49 27,4 C 27,5 C 53 % 1016,5 hPa 0,0 mm 2,5 km/h (1 Bft) W-NW 299 0 min 0,000 mm 0,0 UV-I 35 W/m 17,0 C 3,2 km/h (1 Bft)
26.08.2016 17:50 27,5 C 27,5 C 51 % 1016,5 hPa 0,0 mm 3,1 km/h (1 Bft) NW 310 0 min 0,000 mm 0,0 UV-I 35 W/m 16,4 C 4,8 km/h (1 Bft)
26.08.2016 17:51 27,5 C 27,6 C 50 % 1016,5 hPa 0,0 mm 3,7 km/h (1 Bft) N-NO 15 0 min 0,000 mm 0,0 UV-I 35 W/m 16,1 C 4,8 km/h (1 Bft)
26.08.2016 17:52 27,6 C 27,6 C 51 % 1016,4 hPa 0,0 mm 4,3 km/h (1 Bft) N 5 0 min 0,000 mm 0,0 UV-I 33 W/m 16,5 C 4,8 km/h (1 Bft)
26.08.2016 17:53 27,6 C 27,6 C 53 % 1016,5 hPa 0,0 mm 4,7 km/h (1 Bft) N 5 0 min 0,000 mm 0,0 UV-I 33 W/m 17,1 C 6,4 km/h (2 Bft)
26.08.2016 17:54 27,6 C 27,6 C 50 % 1016,4 hPa 0,0 mm 2,6 km/h (1 Bft) N 5 0 min 0,000 mm 0,0 UV-I 35 W/m 16,2 C 4,8 km/h (1 Bft)
26.08.2016 17:55 27,6 C 27,6 C 50 % 1016,5 hPa 0,0 mm 2,0 km/h (1 Bft) N-NW 327 0 min 0,000 mm 0,0 UV-I 33 W/m 16,2 C 4,8 km/h (1 Bft)
26.08.2016 17:56 27,6 C 27,6 C 48 % 1016,4 hPa 0,0 mm 3,1 km/h (1 Bft) N-NW 327 0 min 0,000 mm 0,0 UV-I 35 W/m 15,6 C 4,8 km/h (1 Bft)
26.08.2016 17:57 27,5 C 27,6 C 50 % 1016,5 hPa 0,0 mm 1,9 km/h (1 Bft) N-NW 327 0 min 0,000 mm 0,0 UV-I 37 W/m 16,1 C 3,2 km/h (1 Bft)
26.08.2016 17:58 27,4 C 27,5 C 50 % 1016,5 hPa 0,0 mm 1,2 km/h (1 Bft) N-NW 327 0 min 0,000 mm 0,0 UV-I 35 W/m 16,0 C 1,6 km/h (1 Bft)
26.08.2016 17:59 27,3 C 27,4 C 51 % 1016,4 hPa 0,0 mm 1,9 km/h (1 Bft) N-NW 327 0 min 0,000 mm 0,0 UV-I 33 W/m 16,3 C 3,2 km/h (1 Bft)
26.08.2016 18:00 27,3 C 27,3 C 50 % 1016,4 hPa 0,0 mm 2,8 km/h (1 Bft) NW 313 0 min 0,000 mm 0,0 UV-I 33 W/m 15,9 C 3,2 km/h (1 Bft)
26.08.2016 18:01 27,3 C 27,3 C 49 % 1016,4 hPa 0,0 mm 2,1 km/h (1 Bft) N-NO 17 0 min 0,076 mm 0,0 UV-I 33 W/m 15,6 C 4,8 km/h (1 Bft)
26.08.2016 18:02 27,3 C 27,3 C 50 % 1016,5 hPa 0,0 mm 4,9 km/h (1 Bft) N 5 0 min 0,000 mm 0,0 UV-I 33 W/m 15,9 C 6,4 km/h (2 Bft)
26.08.2016 18:03 27,3 C 27,3 C 51 % 1016,5 hPa 0,0 mm 5,5 km/h (1 Bft) N-NO 20 0 min 0,000 mm 0,0 UV-I 33 W/m 16,3 C 6,4 km/h (2 Bft)
26.08.2016 18:04 27,4 C 27,4 C 49 % 1016,5 hPa 0,0 mm 5,0 km/h (1 Bft) N-NO 12 0 min 0,000 mm 0,0 UV-I 33 W/m 15,7 C 8,0 km/h (2 Bft)
26.08.2016 18:05 27,4 C 27,4 C 53 % 1016,4 hPa 0,0 mm 2,5 km/h (1 Bft) N 11 0 min 0,000 mm 0,0 UV-I 37 W/m 17,0 C 3,2 km/h (1 Bft)
26.08.2016 18:06 27,4 C 27,4 C 52 % 1016,4 hPa 0,0 mm 3,2 km/h (1 Bft) N 5 0 min 0,000 mm 0,0 UV-I 37 W/m 16,7 C 4,8 km/h (1 Bft)
26.08.2016 18:07 27,4 C 27,4 C 54 % 1016,5 hPa 0,0 mm 1,9 km/h (1 Bft) N 360 0 min 0,000 mm 0,0 UV-I 33 W/m 17,3 C 3,2 km/h (1 Bft)
26.08.2016 18:08 27,3 C 27,4 C 51 % 1016,5 hPa 0,0 mm 1,0 km/h (0 Bft) N 360 0 min 0,000 mm 0,0 UV-I 33 W/m 16,3 C 3,2 km/h (1 Bft)
26.08.2016 18:09 27,3 C 27,3 C 53 % 1016,5 hPa 0,0 mm 1,9 km/h (1 Bft) N 360 0 min 0,000 mm 0,0 UV-I 32 W/m 16,9 C 3,2 km/h (1 Bft)
26.08.2016 18:10 27,2 C 27,3 C 53 % 1016,5 hPa 0,0 mm 0,3 km/h (0 Bft) N 360 0 min 0,000 mm 0,0 UV-I 32 W/m 16,8 C 1,6 km/h (1 Bft)
26.08.2016 18:11 27,2 C 27,2 C 54 % 1016,5 hPa 0,0 mm 0,7 km/h (0 Bft) N 360 0 min 0,000 mm 0,0 UV-I 33 W/m 17,1 C 1,6 km/h (1 Bft)
26.08.2016 18:12 27,1 C 27,2 C 54 % 1016,5 hPa 0,0 mm 0,0 km/h (0 Bft) N 360 0 min 0,000 mm 0,0 UV-I 37 W/m 17,0 C 0,0 km/h (0 Bft)
26.08.2016 18:13 27,0 C 27,1 C 55 % 1016,5 hPa 0,0 mm 0,1 km/h (0 Bft) N 360 0 min 0,000 mm 0,0 UV-I 32 W/m 17,2 C 1,6 km/h (1 Bft)
26.08.2016 18:14 26,9 C 27,0 C 54 % 1016,5 hPa 0,0 mm 0,0 km/h (0 Bft) N 360 0 min 0,000 mm 0,0 UV-I 32 W/m 16,8 C 0,0 km/h (0 Bft)
26.08.2016 18:15 26,8 C 26,9 C 55 % 1016,5 hPa 0,0 mm 0,0 km/h (0 Bft) N 360 0 min 0,000 mm 0,0 UV-I 32 W/m 17,0 C 0,0 km/h (0 Bft)
26.08.2016 18:16 26,6 C 26,8 C 58 % 1016,5 hPa 0,0 mm 0,0 km/h (0 Bft) N 360 0 min 0,000 mm 0,0 UV-I 32 W/m 17,6 C 0,0 km/h (0 Bft)
26.08.2016 18:17 26,4 C 26,6 C 57 % 1016,5 hPa 0,0 mm 0,1 km/h (0 Bft) N 360 0 min 0,000 mm 0,0 UV-I 32 W/m 17,2 C 1,6 km/h (1 Bft)
26.08.2016 18:18 26,3 C 26,4 C 62 % 1016,5 hPa 0,0 mm 0,0 km/h (0 Bft) N 360 0 min 0,000 mm 0,0 UV-I 32 W/m 18,4 C 0,0 km/h (0 Bft)
26.08.2016 18:19 26,2 C 26,3 C 60 % 1016,5 hPa 0,0 mm 1,0 km/h (0 Bft) O-NO 59 0 min 0,000 mm 0,0 UV-I 32 W/m 17,8 C 4,8 km/h (1 Bft)
26.08.2016 18:20 25,9 C 26,2 C 63 % 1016,5 hPa 0,0 mm 1,6 km/h (1 Bft) O-NO 59 0 min 0,000 mm 0,0 UV-I 30 W/m 18,3 C 1,6 km/h (1 Bft)
26.08.2016 18:21 25,9 C 26,0 C 59 % 1016,5 hPa 0,0 mm 0,6 km/h (0 Bft) O-NO 59 0 min 0,000 mm 0,0 UV-I 30 W/m 17,3 C 1,6 km/h (1 Bft)
26.08.2016 18:22 25,9 C 26,0 C 60 % 1016,5 hPa 0,0 mm 0,0 km/h (0 Bft) O-NO 59 0 min 0,000 mm 0,0 UV-I 30 W/m 17,5 C 0,0 km/h (0 Bft)
26.08.2016 18:23 25,9 C 25,9 C 59 % 1016,5 hPa 0,0 mm 0,0 km/h (0 Bft) O-NO 59 0 min 0,000 mm 0,0 UV-I 30 W/m 17,3 C 0,0 km/h (0 Bft)
26.08.2016 18:24 26,0 C 26,0 C 59 % 1016,5 hPa 0,0 mm 0,1 km/h (0 Bft) O-NO 59 0 min 0,000 mm 0,0 UV-I 30 W/m 17,4 C 1,6 km/h (1 Bft)
26.08.2016 18:25 26,1 C 26,1 C 60 % 1016,5 hPa 0,0 mm 1,3 km/h (1 Bft) N-NW 331 0 min 0,000 mm 0,0 UV-I 30 W/m 17,7 C 3,2 km/h (1 Bft)
26.08.2016 18:26 26,1 C 26,1 C 59 % 1016,5 hPa 0,0 mm 2,1 km/h (1 Bft) N-NW 331 0 min 0,000 mm 0,0 UV-I 30 W/m 17,4 C 3,2 km/h (1 Bft)
26.08.2016 18:27 26,2 C 26,2 C 57 % 1016,5 hPa 0,0 mm 1,3 km/h (1 Bft) N-NW 340 0 min 0,000 mm 0,0 UV-I 30 W/m 17,0 C 3,2 km/h (1 Bft)
26.08.2016 18:28 26,1 C 26,2 C 63 % 1016,5 hPa 0,0 mm 0,3 km/h (0 Bft) N-NW 340 0 min 0,000 mm 0,0 UV-I 30 W/m 18,5 C 1,6 km/h (1 Bft)
26.08.2016 18:29 25,9 C 26,1 C 62 % 1016,5 hPa 0,0 mm 2,4 km/h (1 Bft) NW 306 0 min 0,000 mm 0,0 UV-I 30 W/m 18,0 C 4,8 km/h (1 Bft)
26.08.2016 18:30 25,9 C 25,9 C 60 % 1016,5 hPa 0,0 mm 2,7 km/h (1 Bft) N-NW 334 0 min 0,000 mm 0,0 UV-I 30 W/m 17,5 C 4,8 km/h (1 Bft)
26.08.2016 18:31 26,1 C 26,1 C 61 % 1016,5 hPa 0,0 mm 1,7 km/h (1 Bft) N-NW 334 0 min 0,000 mm 0,0 UV-I 30 W/m 18,0 C 3,2 km/h (1 Bft)
26.08.2016 18:32 26,2 C 26,2 C 59 % 1016,5 hPa 0,0 mm 1,6 km/h (1 Bft) NW 314 0 min 0,000 mm 0,0 UV-I 30 W/m 17,5 C 3,2 km/h (1 Bft)
26.08.2016 18:33 26,3 C 26,3 C 60 % 1016,5 hPa 0,0 mm 2,7 km/h (1 Bft) NW 322 0 min 0,000 mm 0,0 UV-I 30 W/m 17,9 C 4,8 km/h (1 Bft)
26.08.2016 18:34 26,4 C 26,4 C 59 % 1016,5 hPa 0,0 mm 2,7 km/h (1 Bft) N-NW 329 0 min 0,000 mm 0,0 UV-I 30 W/m 17,7 C 4,8 km/h (1 Bft)
26.08.2016 18:35 26,6 C 26,6 C 59 % 1016,5 hPa 0,0 mm 2,4 km/h (1 Bft) N-NW 329 0 min 0,000 mm 0,0 UV-I 30 W/m 17,9 C 4,8 km/h (1 Bft)
26.08.2016 18:36 26,6 C 26,6 C 58 % 1016,5 hPa 0,0 mm 2,5 km/h (1 Bft) N-NW 327 0 min 0,000 mm 0,0 UV-I 30 W/m 17,6 C 4,8 km/h (1 Bft)
26.08.2016 18:37 26,7 C 26,7 C 57 % 1016,6 hPa 0,0 mm 4,2 km/h (1 Bft) N-NW 338 0 min 0,000 mm 0,0 UV-I 30 W/m 17,5 C 6,4 km/h (2 Bft)
26.08.2016 18:38 26,8 C 26,8 C 56 % 1016,5 hPa 0,0 mm 0,9 km/h (0 Bft) N-NW 338 0 min 0,000 mm 0,0 UV-I 30 W/m 17,3 C 1,6 km/h (1 Bft)
26.08.2016 18:39 26,8 C 26,8 C 57 % 1016,5 hPa 0,0 mm 0,9 km/h (0 Bft) N-NW 338 0 min 0,000 mm 0,0 UV-I 28 W/m 17,6 C 1,6 km/h (1 Bft)
26.08.2016 18:40 26,8 C 26,8 C 58 % 1016,5 hPa 0,0 mm 1,0 km/h (0 Bft) N-NW 338 0 min 0,000 mm 0,0 UV-I 28 W/m 17,8 C 3,2 km/h (1 Bft)
26.08.2016 18:41 26,7 C 26,8 C 59 % 1016,5 hPa 0,0 mm 0,3 km/h (0 Bft) N-NW 338 0 min 0,000 mm 0,0 UV-I 30 W/m 18,0 C 1,6 km/h (1 Bft)
26.08.2016 18:42 26,6 C 26,7 C 60 % 1016,5 hPa 0,0 mm 0,1 km/h (0 Bft) N-NW 338 0 min 0,000 mm 0,0 UV-I 30 W/m 18,2 C 1,6 km/h (1 Bft)
26.08.2016 18:43 26,4 C 26,6 C 60 % 1016,5 hPa 0,0 mm 1,1 km/h (1 Bft) N-NW 340 0 min 0,000 mm 0,0 UV-I 30 W/m 18,0 C 3,2 km/h (1 Bft)
26.08.2016 18:44 26,3 C 26,4 C 61 % 1016,5 hPa 0,0 mm 0,8 km/h (0 Bft) N-NW 340 0 min 0,000 mm 0,0 UV-I 30 W/m 18,2 C 1,6 km/h (1 Bft)
26.08.2016 18:45 26,1 C 26,3 C 61 % 1016,5 hPa 0,0 mm 0,3 km/h (0 Bft) N-NW 340 0 min 0,000 mm 0,0 UV-I 30 W/m 18,0 C 1,6 km/h (1 Bft)
26.08.2016 18:46 25,9 C 26,1 C 63 % 1016,5 hPa 0,0 mm 0,2 km/h (0 Bft) N-NW 340 0 min 0,000 mm 0,0 UV-I 30 W/m 18,3 C 1,6 km/h (1 Bft)
26.08.2016 18:47 25,8 C 25,9 C 63 % 1016,5 hPa 0,0 mm 0,2 km/h (0 Bft) N-NW 340 0 min 0,000 mm 0,0 UV-I 32 W/m 18,2 C 1,6 km/h (1 Bft)
26.08.2016 18:48 25,7 C 25,8 C 63 % 1016,5 hPa 0,0 mm 0,5 km/h (0 Bft) N-NW 340 0 min 0,000 mm 0,0 UV-I 33 W/m 18,1 C 1,6 km/h (1 Bft)
26.08.2016 18:49 25,7 C 25,7 C 65 % 1016,5 hPa 0,0 mm 1,4 km/h (1 Bft) N-NW 346 0 min 0,000 mm 0,0 UV-I 33 W/m 18,6 C 3,2 km/h (1 Bft)
26.08.2016 18:50 25,7 C 25,7 C 63 % 1016,5 hPa 0,0 mm 1,7 km/h (1 Bft) N-NW 346 0 min 0,000 mm 0,0 UV-I 32 W/m 18,1 C 3,2 km/h (1 Bft)
26.08.2016 18:51 25,7 C 25,7 C 65 % 1016,4 hPa 0,0 mm 0,6 km/h (0 Bft) N-NW 346 0 min 0,000 mm 0,0 UV-I 35 W/m 18,6 C 1,6 km/h (1 Bft)
26.08.2016 18:52 25,7 C 25,7 C 65 % 1016,5 hPa 0,0 mm 1,1 km/h (1 Bft) N 360 0 min 0,000 mm 0,0 UV-I 32 W/m 18,6 C 3,2 km/h (1 Bft)
26.08.2016 18:53 25,6 C 25,7 C 64 % 1016,4 hPa 0,0 mm 2,7 km/h (1 Bft) O 96 0 min 0,000 mm 0,0 UV-I 28 W/m 18,3 C 4,8 km/h (1 Bft)
26.08.2016 18:54 25,6 C 25,6 C 64 % 1016,4 hPa 0,0 mm 0,9 km/h (0 Bft) O 96 0 min 0,000 mm 0,0 UV-I 37 W/m 18,3 C 1,6 km/h (1 Bft)
26.08.2016 18:55 25,6 C 25,6 C 63 % 1016,4 hPa 0,0 mm 1,7 km/h (1 Bft) O 96 0 min 0,000 mm 0,0 UV-I 46 W/m 18,0 C 3,2 km/h (1 Bft)
26.08.2016 18:56 25,5 C 25,6 C 65 % 1016,5 hPa 0,0 mm 1,8 km/h (1 Bft) O 96 0 min 0,000 mm 0,0 UV-I 53 W/m 18,4 C 3,2 km/h (1 Bft)
26.08.2016 18:57 25,4 C 25,5 C 66 % 1016,4 hPa 0,0 mm 1,3 km/h (1 Bft) O 96 0 min 0,000 mm 0,5 UV-I 56 W/m 18,6 C 1,6 km/h (1 Bft)
26.08.2016 18:58 25,3 C 25,4 C 68 % 1016,4 hPa 0,0 mm 0,5 km/h (0 Bft) O 96 0 min 0,000 mm 0,0 UV-I 51 W/m 19,0 C 1,6 km/h (1 Bft)
26.08.2016 18:59 25,3 C 25,3 C 65 % 1016,4 hPa 0,0 mm 2,1 km/h (1 Bft) O 96 0 min 0,000 mm 0,0 UV-I 37 W/m 18,2 C 3,2 km/h (1 Bft)
26.08.2016 19:00 25,2 C 25,3 C 66 % 1016,5 hPa 0,0 mm 0,7 km/h (0 Bft) O 97 0 min 0,051 mm 0,0 UV-I 28 W/m 18,4 C 3,2 km/h (1 Bft)
26.08.2016 19:01 25,3 C 25,3 C 65 % 1016,4 hPa 0,0 mm 0,7 km/h (0 Bft) O 96 0 min 0,000 mm 0,0 UV-I 30 W/m 18,2 C 1,6 km/h (1 Bft)
26.08.2016 19:02 25,3 C 25,3 C 65 % 1016,4 hPa 0,0 mm 1,3 km/h (1 Bft) O 96 0 min 0,000 mm 0,0 UV-I 30 W/m 18,2 C 3,2 km/h (1 Bft)
26.08.2016 19:03 25,3 C 25,3 C 67 % 1016,4 hPa 0,0 mm 1,8 km/h (1 Bft) O 96 0 min 0,000 mm 0,0 UV-I 39 W/m 18,7 C 3,2 km/h (1 Bft)
26.08.2016 19:04 25,4 C 25,4 C 66 % 1016,4 hPa 0,0 mm 1,3 km/h (1 Bft) O 97 0 min 0,000 mm 0,0 UV-I 37 W/m 18,6 C 3,2 km/h (1 Bft)
26.08.2016 19:05 25,4 C 25,4 C 65 % 1016,4 hPa 0,0 mm 0,5 km/h (0 Bft) O 96 0 min 0,000 mm 0,0 UV-I 33 W/m 18,3 C 1,6 km/h (1 Bft)
26.08.2016 19:06 25,5 C 25,6 C 66 % 1016,3 hPa 0,0 mm 1,3 km/h (1 Bft) O 96 0 min 0,000 mm 0,0 UV-I 30 W/m 18,7 C 3,2 km/h (1 Bft)
26.08.2016 19:07 25,4 C 25,5 C 67 % 1016,4 hPa 0,0 mm 1,7 km/h (1 Bft) O 96 0 min 0,000 mm 0,0 UV-I 28 W/m 18,8 C 3,2 km/h (1 Bft)
26.08.2016 19:08 25,4 C 25,4 C 66 % 1016,4 hPa 0,0 mm 1,5 km/h (1 Bft) O 96 0 min 0,000 mm 0,0 UV-I 33 W/m 18,6 C 3,2 km/h (1 Bft)
26.08.2016 19:09 25,5 C 25,5 C 65 % 1016,4 hPa 0,0 mm 0,3 km/h (0 Bft) O 96 0 min 0,000 mm 0,0 UV-I 42 W/m 18,4 C 1,6 km/h (1 Bft)
26.08.2016 19:10 25,4 C 25,5 C 68 % 1016,4 hPa 0,0 mm 1,1 km/h (1 Bft) O 96 0 min 0,000 mm 0,0 UV-I 47 W/m 19,1 C 3,2 km/h (1 Bft)
26.08.2016 19:11 25,3 C 25,4 C 68 % 1016,4 hPa 0,0 mm 1,5 km/h (1 Bft) O 96 0 min 0,000 mm 0,0 UV-I 60 W/m 19,0 C 1,6 km/h (1 Bft)
26.08.2016 19:12 25,1 C 25,3 C 68 % 1016,4 hPa 0,0 mm 0,4 km/h (0 Bft) O 96 0 min 0,000 mm 0,0 UV-I 65 W/m 18,8 C 1,6 km/h (1 Bft)
26.08.2016 19:13 25,1 C 25,1 C 68 % 1016,4 hPa 0,0 mm 1,1 km/h (1 Bft) O 97 0 min 0,000 mm 0,0 UV-I 63 W/m 18,8 C 3,2 km/h (1 Bft)
26.08.2016 19:14 25,0 C 25,1 C 68 % 1016,4 hPa 0,0 mm 1,1 km/h (1 Bft) O 96 0 min 0,000 mm 0,0 UV-I 62 W/m 18,7 C 1,6 km/h (1 Bft)
26.08.2016 19:15 25,1 C 25,1 C 68 % 1016,5 hPa 0,0 mm 2,4 km/h (1 Bft) O 96 0 min 0,000 mm 0,0 UV-I 58 W/m 18,8 C 3,2 km/h (1 Bft)
26.08.2016 19:16 25,1 C 25,1 C 67 % 1016,5 hPa 0,0 mm 1,6 km/h (1 Bft) O 97 0 min 0,000 mm 0,0 UV-I 54 W/m 18,5 C 3,2 km/h (1 Bft)
26.08.2016 19:17 25,2 C 25,2 C 67 % 1016,5 hPa 0,0 mm 1,6 km/h (1 Bft) O 96 0 min 0,000 mm 0,0 UV-I 42 W/m 18,6 C 1,6 km/h (1 Bft)
26.08.2016 19:18 25,2 C 25,2 C 67 % 1016,5 hPa 0,0 mm 1,0 km/h (0 Bft) O 96 0 min 0,000 mm 0,0 UV-I 32 W/m 18,6 C 1,6 km/h (1 Bft)
26.08.2016 19:19 25,2 C 25,2 C 67 % 1016,5 hPa 0,0 mm 1,6 km/h (1 Bft) O 96 0 min 0,000 mm 0,0 UV-I 25 W/m 18,6 C 3,2 km/h (1 Bft)
26.08.2016 19:20 25,2 C 25,2 C 68 % 1016,5 hPa 0,0 mm 1,4 km/h (1 Bft) O 96 0 min 0,000 mm 0,0 UV-I 30 W/m 18,9 C 3,2 km/h (1 Bft)
26.08.2016 19:21 25,2 C 25,2 C 67 % 1016,5 hPa 0,0 mm 1,6 km/h (1 Bft) O 96 0 min 0,000 mm 0,0 UV-I 32 W/m 18,6 C 1,6 km/h (1 Bft)
26.08.2016 19:22 25,2 C 25,2 C 68 % 1016,5 hPa 0,0 mm 0,2 km/h (0 Bft) O 97 0 min 0,000 mm 0,0 UV-I 30 W/m 18,9 C 1,6 km/h (1 Bft)
26.08.2016 19:23 25,1 C 25,2 C 69 % 1016,5 hPa 0,0 mm 1,1 km/h (1 Bft) O 96 0 min 0,000 mm 0,0 UV-I 30 W/m 19,0 C 1,6 km/h (1 Bft)
26.08.2016 19:24 24,9 C 25,1 C 69 % 1016,6 hPa 0,0 mm 1,1 km/h (1 Bft) O 96 0 min 0,000 mm 0,0 UV-I 26 W/m 18,8 C 1,6 km/h (1 Bft)
26.08.2016 19:25 24,9 C 25,0 C 68 % 1016,6 hPa 0,0 mm 0,7 km/h (0 Bft) O 96 0 min 0,000 mm 0,0 UV-I 25 W/m 18,6 C 1,6 km/h (1 Bft)
26.08.2016 19:26 25,0 C 25,0 C 68 % 1016,5 hPa 0,0 mm 1,3 km/h (1 Bft) O 96 0 min 0,000 mm 0,0 UV-I 23 W/m 18,7 C 1,6 km/h (1 Bft)
26.08.2016 19:27 25,0 C 25,1 C 68 % 1016,6 hPa 0,0 mm 2,3 km/h (1 Bft) O 97 0 min 0,000 mm 0,0 UV-I 30 W/m 18,7 C 3,2 km/h (1 Bft)
26.08.2016 19:28 24,9 C 25,0 C 69 % 1016,6 hPa 0,0 mm 1,7 km/h (1 Bft) O 97 0 min 0,000 mm 0,0 UV-I 33 W/m 18,8 C 3,2 km/h (1 Bft)
26.08.2016 19:29 24,9 C 25,0 C 68 % 1016,6 hPa 0,0 mm 1,7 km/h (1 Bft) O 97 0 min 0,000 mm 0,0 UV-I 33 W/m 18,6 C 3,2 km/h (1 Bft)
26.08.2016 19:30 24,9 C 24,9 C 68 % 1016,6 hPa 0,0 mm 1,8 km/h (1 Bft) O 97 0 min 0,000 mm 0,0 UV-I 32 W/m 18,6 C 3,2 km/h (1 Bft)
26.08.2016 19:31 24,9 C 25,0 C 69 % 1016,6 hPa 0,0 mm 1,7 km/h (1 Bft) O 97 0 min 0,000 mm 0,0 UV-I 30 W/m 18,8 C 3,2 km/h (1 Bft)
26.08.2016 19:32 24,9 C 24,9 C 68 % 1016,6 hPa 0,0 mm 1,8 km/h (1 Bft) O 97 0 min 0,000 mm 0,0 UV-I 28 W/m 18,6 C 3,2 km/h (1 Bft)
26.08.2016 19:33 24,9 C 24,9 C 68 % 1016,7 hPa 0,0 mm 2,1 km/h (1 Bft) O 97 0 min 0,000 mm 0,0 UV-I 26 W/m 18,6 C 3,2 km/h (1 Bft)
26.08.2016 19:34 24,9 C 24,9 C 69 % 1016,6 hPa 0,0 mm 1,9 km/h (1 Bft) O 97 0 min 0,000 mm 0,0 UV-I 26 W/m 18,8 C 3,2 km/h (1 Bft)
26.08.2016 19:35 24,8 C 24,9 C 69 % 1016,6 hPa 0,0 mm 2,4 km/h (1 Bft) O 97 0 min 0,000 mm 0,0 UV-I 23 W/m 18,7 C 3,2 km/h (1 Bft)
26.08.2016 19:36 24,8 C 24,8 C 69 % 1016,6 hPa 0,0 mm 2,6 km/h (1 Bft) O 97 0 min 0,000 mm 0,0 UV-I 21 W/m 18,7 C 3,2 km/h (1 Bft)
26.08.2016 19:37 24,7 C 24,8 C 69 % 1016,6 hPa 0,0 mm 2,0 km/h (1 Bft) O 97 0 min 0,000 mm 0,0 UV-I 19 W/m 18,6 C 3,2 km/h (1 Bft)
26.08.2016 19:38 24,6 C 24,7 C 70 % 1016,6 hPa 0,0 mm 3,1 km/h (1 Bft) O 97 0 min 0,000 mm 0,0 UV-I 19 W/m 18,8 C 3,2 km/h (1 Bft)
26.08.2016 19:39 24,6 C 24,6 C 70 % 1016,7 hPa 0,0 mm 2,2 km/h (1 Bft) O 97 0 min 0,000 mm 0,0 UV-I 18 W/m 18,8 C 3,2 km/h (1 Bft)
26.08.2016 19:40 24,4 C 24,6 C 70 % 1016,7 hPa 0,0 mm 1,7 km/h (1 Bft) O 97 0 min 0,000 mm 0,0 UV-I 18 W/m 18,6 C 3,2 km/h (1 Bft)
26.08.2016 19:41 24,4 C 24,4 C 70 % 1016,7 hPa 0,0 mm 2,8 km/h (1 Bft) O 97 0 min 0,000 mm 0,0 UV-I 16 W/m 18,6 C 3,2 km/h (1 Bft)
26.08.2016 19:42 24,4 C 24,4 C 70 % 1016,6 hPa 0,0 mm 2,3 km/h (1 Bft) O 97 0 min 0,000 mm 0,0 UV-I 16 W/m 18,6 C 3,2 km/h (1 Bft)
26.08.2016 19:43 24,4 C 24,4 C 70 % 1016,7 hPa 0,0 mm 1,8 km/h (1 Bft) O 97 0 min 0,000 mm 0,0 UV-I 14 W/m 18,6 C 3,2 km/h (1 Bft)
26.08.2016 19:44 24,3 C 24,4 C 71 % 1016,7 hPa 0,0 mm 2,2 km/h (1 Bft) O 97 0 min 0,000 mm 0,0 UV-I 14 W/m 18,7 C 3,2 km/h (1 Bft)
26.08.2016 19:45 24,3 C 24,3 C 71 % 1016,7 hPa 0,0 mm 2,7 km/h (1 Bft) O-SO 104 0 min 0,000 mm 0,0 UV-I 14 W/m 18,7 C 3,2 km/h (1 Bft)
26.08.2016 19:46 24,2 C 24,3 C 71 % 1016,7 hPa 0,0 mm 1,6 km/h (1 Bft) O-SO 105 0 min 0,000 mm 0,0 UV-I 14 W/m 18,6 C 3,2 km/h (1 Bft)
26.08.2016 19:47 24,1 C 24,2 C 72 % 1016,7 hPa 0,0 mm 1,5 km/h (1 Bft) O-SO 105 0 min 0,000 mm 0,0 UV-I 12 W/m 18,7 C 3,2 km/h (1 Bft)
26.08.2016 19:48 24,0 C 24,1 C 72 % 1016,7 hPa 0,0 mm 1,1 km/h (1 Bft) O-SO 107 0 min 0,000 mm 0,0 UV-I 12 W/m 18,6 C 1,6 km/h (1 Bft)
26.08.2016 19:49 23,9 C 24,0 C 72 % 1016,7 hPa 0,0 mm 0,7 km/h (0 Bft) O-SO 107 0 min 0,000 mm 0,0 UV-I 12 W/m 18,5 C 1,6 km/h (1 Bft)
26.08.2016 19:50 23,9 C 23,9 C 72 % 1016,7 hPa 0,0 mm 2,0 km/h (1 Bft) O-SO 107 0 min 0,000 mm 0,0 UV-I 12 W/m 18,5 C 3,2 km/h (1 Bft)
26.08.2016 19:51 23,8 C 23,9 C 72 % 1016,7 hPa 0,0 mm 2,3 km/h (1 Bft) O-SO 107 0 min 0,000 mm 0,0 UV-I 12 W/m 18,4 C 3,2 km/h (1 Bft)
26.08.2016 19:52 23,7 C 23,8 C 73 % 1016,7 hPa 0,0 mm 1,4 km/h (1 Bft) O-SO 107 0 min 0,000 mm 0,0 UV-I 11 W/m 18,6 C 3,2 km/h (1 Bft)
26.08.2016 19:53 23,7 C 23,7 C 73 % 1016,7 hPa 0,0 mm 1,2 km/h (1 Bft) O-SO 107 0 min 0,000 mm 0,0 UV-I 11 W/m 18,6 C 3,2 km/h (1 Bft)
26.08.2016 19:54 23,7 C 23,7 C 73 % 1016,7 hPa 0,0 mm 1,3 km/h (1 Bft) O-SO 107 0 min 0,000 mm 0,0 UV-I 11 W/m 18,6 C 1,6 km/h (1 Bft)
26.08.2016 19:55 23,6 C 23,7 C 73 % 1016,7 hPa 0,0 mm 0,7 km/h (0 Bft) O-SO 107 0 min 0,000 mm 0,0 UV-I 9 W/m 18,5 C 1,6 km/h (1 Bft)
26.08.2016 19:56 23,4 C 23,6 C 74 % 1016,7 hPa 0,0 mm 1,9 km/h (1 Bft) O-SO 107 0 min 0,000 mm 0,0 UV-I 9 W/m 18,5 C 3,2 km/h (1 Bft)
26.08.2016 19:57 23,4 C 23,4 C 74 % 1016,7 hPa 0,0 mm 0,3 km/h (0 Bft) O-SO 107 1 min 0,000 mm 0,0 UV-I 9 W/m 18,5 C 1,6 km/h (1 Bft)
26.08.2016 19:58 23,3 C 23,4 C 74 % 1016,7 hPa 0,0 mm 0,7 km/h (0 Bft) O-SO 107 0 min 0,000 mm 0,0 UV-I 7 W/m 18,4 C 1,6 km/h (1 Bft)
26.08.2016 19:59 23,3 C 23,3 C 74 % 1016,7 hPa 0,0 mm 0,9 km/h (0 Bft) O-SO 107 0 min 0,000 mm 0,0 UV-I 7 W/m 18,4 C 1,6 km/h (1 Bft)
26.08.2016 20:00 23,1 C 23,3 C 74 % 1016,7 hPa 0,0 mm 0,9 km/h (0 Bft) O-SO 107 0 min 0,000 mm 0,0 UV-I 7 W/m 18,2 C 3,2 km/h (1 Bft)
26.08.2016 20:01 23,0 C 23,1 C 75 % 1016,7 hPa 0,0 mm 0,4 km/h (0 Bft) O-SO 107 0 min 0,025 mm 0,0 UV-I 7 W/m 18,3 C 1,6 km/h (1 Bft)
26.08.2016 20:02 22,8 C 23,0 C 76 % 1016,8 hPa 0,0 mm 0,6 km/h (0 Bft) O-SO 107 0 min 0,000 mm 0,0 UV-I 5 W/m 18,3 C 1,6 km/h (1 Bft)
26.08.2016 20:03 22,6 C 22,8 C 77 % 1016,7 hPa 0,0 mm 0,6 km/h (0 Bft) O-SO 107 0 min 0,000 mm 0,0 UV-I 5 W/m 18,4 C 1,6 km/h (1 Bft)
26.08.2016 20:04 22,4 C 22,6 C 77 % 1016,7 hPa 0,0 mm 0,8 km/h (0 Bft) O-SO 107 0 min 0,000 mm 0,0 UV-I 5 W/m 18,2 C 1,6 km/h (1 Bft)
26.08.2016 20:05 22,2 C 22,4 C 77 % 1016,7 hPa 0,0 mm 0,3 km/h (0 Bft) O-SO 107 0 min 0,000 mm 0,0 UV-I 5 W/m 18,0 C 1,6 km/h (1 Bft)
26.08.2016 20:06 21,9 C 22,2 C 78 % 1016,8 hPa 0,0 mm 0,0 km/h (0 Bft) O-SO 107 0 min 0,000 mm 0,0 UV-I 5 W/m 17,9 C 0,0 km/h (0 Bft)
26.08.2016 20:07 21,7 C 21,9 C 79 % 1016,8 hPa 0,0 mm 0,0 km/h (0 Bft) O-SO 107 0 min 0,000 mm 0,0 UV-I 0 W/m 17,9 C 0,0 km/h (0 Bft)
26.08.2016 20:08 21,6 C 21,7 C 80 % 1016,8 hPa 0,0 mm 0,3 km/h (0 Bft) O-SO 107 0 min 0,000 mm 0,0 UV-I 0 W/m 18,0 C 1,6 km/h (1 Bft)
26.08.2016 20:09 21,5 C 21,6 C 80 % 1016,9 hPa 0,0 mm 0,0 km/h (0 Bft) O-SO 107 0 min 0,000 mm 0,0 UV-I 0 W/m 17,9 C 0,0 km/h (0 Bft)
26.08.2016 20:10 21,4 C 21,5 C 80 % 1016,8 hPa 0,0 mm 0,4 km/h (0 Bft) O-SO 107 0 min 0,000 mm 0,0 UV-I 0 W/m 17,8 C 1,6 km/h (1 Bft)
26.08.2016 20:11 21,4 C 21,4 C 80 % 1016,9 hPa 0,0 mm 0,9 km/h (0 Bft) O-SO 107 0 min 0,000 mm 0,0 UV-I 0 W/m 17,8 C 1,6 km/h (1 Bft)
26.08.2016 20:12 21,4 C 21,4 C 81 % 1016,9 hPa 0,0 mm 1,1 km/h (1 Bft) O-SO 107 0 min 0,000 mm 0,0 UV-I 0 W/m 18,0 C 1,6 km/h (1 Bft)
26.08.2016 20:13 21,3 C 21,4 C 81 % 1016,9 hPa 0,0 mm 0,6 km/h (0 Bft) O-SO 107 0 min 0,000 mm 0,0 UV-I 0 W/m 17,9 C 1,6 km/h (1 Bft)
26.08.2016 20:14 21,1 C 21,3 C 81 % 1016,9 hPa 0,0 mm 0,3 km/h (0 Bft) O-SO 107 0 min 0,000 mm 0,0 UV-I 0 W/m 17,7 C 1,6 km/h (1 Bft)
26.08.2016 20:15 21,0 C 21,1 C 82 % 1016,9 hPa 0,0 mm 0,8 km/h (0 Bft) O-SO 107 0 min 0,000 mm 0,0 UV-I 0 W/m 17,8 C 1,6 km/h (1 Bft)
26.08.2016 20:16 20,9 C 21,0 C 82 % 1016,9 hPa 0,0 mm 0,6 km/h (0 Bft) O-SO 107 0 min 0,000 mm 0,0 UV-I 0 W/m 17,7 C 1,6 km/h (1 Bft)
26.08.2016 20:17 20,9 C 20,9 C 82 % 1016,9 hPa 0,0 mm 0,5 km/h (0 Bft) O-SO 107 0 min 0,000 mm 0,0 UV-I 0 W/m 17,7 C 1,6 km/h (1 Bft)
26.08.2016 20:18 20,8 C 20,9 C 82 % 1016,9 hPa 0,0 mm 0,1 km/h (0 Bft) O-SO 107 0 min 0,000 mm 0,0 UV-I 0 W/m 17,6 C 1,6 km/h (1 Bft)
26.08.2016 20:19 20,8 C 20,8 C 82 % 1017,0 hPa 0,0 mm 0,0 km/h (0 Bft) O-SO 107 0 min 0,000 mm 0,0 UV-I 0 W/m 17,6 C 0,0 km/h (0 Bft)
26.08.2016 20:20 20,8 C 20,8 C 82 % 1017,0 hPa 0,0 mm 0,0 km/h (0 Bft) O-SO 107 0 min 0,000 mm 0,0 UV-I 0 W/m 17,6 C 0,0 km/h (0 Bft)
26.08.2016 20:21 20,7 C 20,8 C 83 % 1017,0 hPa 0,0 mm 0,0 km/h (0 Bft) O-SO 107 0 min 0,000 mm 0,0 UV-I 0 W/m 17,7 C 0,0 km/h (0 Bft)
26.08.2016 20:22 20,6 C 20,7 C 83 % 1017,0 hPa 0,0 mm 0,0 km/h (0 Bft) O-SO 107 0 min 0,000 mm 0,0 UV-I 0 W/m 17,6 C 0,0 km/h (0 Bft)
26.08.2016 20:23 20,6 C 20,6 C 84 % 1016,9 hPa 0,0 mm 0,1 km/h (0 Bft) O-SO 107 0 min 0,000 mm 0,0 UV-I 0 W/m 17,8 C 1,6 km/h (1 Bft)
26.08.2016 20:24 20,6 C 20,6 C 83 % 1016,9 hPa 0,0 mm 0,0 km/h (0 Bft) O-SO 107 0 min 0,000 mm 0,0 UV-I 0 W/m 17,6 C 0,0 km/h (0 Bft)
26.08.2016 20:25 20,5 C 20,6 C 83 % 1016,9 hPa 0,0 mm 0,0 km/h (0 Bft) O-SO 107 0 min 0,000 mm 0,0 UV-I 0 W/m 17,5 C 0,0 km/h (0 Bft)
26.08.2016 20:26 20,4 C 20,5 C 84 % 1016,9 hPa 0,0 mm 0,3 km/h (0 Bft) O-SO 107 0 min 0,000 mm 0,0 UV-I 0 W/m 17,6 C 1,6 km/h (1 Bft)
26.08.2016 20:27 20,4 C 20,4 C 84 % 1017,0 hPa 0,0 mm 0,7 km/h (0 Bft) O-SO 107 0 min 0,000 mm 0,0 UV-I 0 W/m 17,6 C 1,6 km/h (1 Bft)
26.08.2016 20:28 20,4 C 20,4 C 84 % 1017,0 hPa 0,0 mm 0,7 km/h (0 Bft) O-SO 107 0 min 0,000 mm 0,0 UV-I 0 W/m 17,6 C 1,6 km/h (1 Bft)
26.08.2016 20:29 20,4 C 20,4 C 84 % 1017,0 hPa 0,0 mm 0,1 km/h (0 Bft) O-SO 107 0 min 0,000 mm 0,0 UV-I 0 W/m 17,6 C 1,6 km/h (1 Bft)
26.08.2016 20:30 20,4 C 20,4 C 84 % 1017,0 hPa 0,0 mm 0,9 km/h (0 Bft) O-SO 107 0 min 0,000 mm 0,0 UV-I 0 W/m 17,6 C 1,6 km/h (1 Bft)
26.08.2016 20:31 20,4 C 20,4 C 84 % 1017,0 hPa 0,0 mm 1,7 km/h (1 Bft) O-SO 107 0 min 0,000 mm 0,0 UV-I 0 W/m 17,6 C 3,2 km/h (1 Bft)
26.08.2016 20:32 20,4 C 20,4 C 84 % 1017,0 hPa 0,0 mm 2,4 km/h (1 Bft) O-SO 107 0 min 0,000 mm 0,0 UV-I 0 W/m 17,6 C 3,2 km/h (1 Bft)
26.08.2016 20:33 20,6 C 20,6 C 84 % 1017,0 hPa 0,0 mm 2,1 km/h (1 Bft) O-SO 107 0 min 0,000 mm 0,0 UV-I 0 W/m 17,8 C 3,2 km/h (1 Bft)
26.08.2016 20:34 20,8 C 20,8 C 84 % 1017,0 hPa 0,0 mm 1,0 km/h (0 Bft) O-SO 107 0 min 0,000 mm 0,0 UV-I 0 W/m 18,0 C 1,6 km/h (1 Bft)
26.08.2016 20:35 20,8 C 20,8 C 83 % 1017,0 hPa 0,0 mm 1,4 km/h (1 Bft) O-SO 107 0 min 0,000 mm 0,0 UV-I 0 W/m 17,8 C 3,2 km/h (1 Bft)
26.08.2016 20:36 20,8 C 20,9 C 83 % 1017,1 hPa 0,0 mm 0,7 km/h (0 Bft) O-SO 107 0 min 0,000 mm 0,0 UV-I 0 W/m 17,8 C 1,6 km/h (1 Bft)
26.08.2016 20:37 20,8 C 20,8 C 83 % 1017,0 hPa 0,0 mm 1,5 km/h (1 Bft) O-SO 107 0 min 0,000 mm 0,0 UV-I 0 W/m 17,8 C 3,2 km/h (1 Bft)
26.08.2016 20:38 20,7 C 20,8 C 83 % 1017,1 hPa 0,0 mm 0,6 km/h (0 Bft) O-SO 107 0 min 0,000 mm 0,0 UV-I 0 W/m 17,7 C 1,6 km/h (1 Bft)
26.08.2016 20:39 20,5 C 20,7 C 84 % 1017,1 hPa 0,0 mm 0,0 km/h (0 Bft) O-SO 107 0 min 0,000 mm 0,0 UV-I 0 W/m 17,7 C 0,0 km/h (0 Bft)
26.08.2016 20:40 20,4 C 20,5 C 84 % 1017,1 hPa 0,0 mm 1,0 km/h (0 Bft) O-SO 107 0 min 0,000 mm 0,0 UV-I 0 W/m 17,6 C 3,2 km/h (1 Bft)
26.08.2016 20:41 20,4 C 20,4 C 84 % 1017,1 hPa 0,0 mm 1,2 km/h (1 Bft) O-SO 107 0 min 0,000 mm 0,0 UV-I 0 W/m 17,6 C 3,2 km/h (1 Bft)
26.08.2016 20:42 20,4 C 20,4 C 84 % 1017,1 hPa 0,0 mm 0,8 km/h (0 Bft) O-SO 107 0 min 0,000 mm 0,0 UV-I 0 W/m 17,6 C 1,6 km/h (1 Bft)
26.08.2016 20:43 20,5 C 20,5 C 84 % 1017,1 hPa 0,0 mm 1,9 km/h (1 Bft) SO 128 0 min 0,000 mm 0,0 UV-I 0 W/m 17,7 C 3,2 km/h (1 Bft)
26.08.2016 20:44 20,6 C 20,6 C 84 % 1017,1 hPa 0,0 mm 1,9 km/h (1 Bft) SO 128 0 min 0,000 mm 0,0 UV-I 0 W/m 17,8 C 3,2 km/h (1 Bft)
26.08.2016 20:45 20,7 C 20,7 C 84 % 1017,1 hPa 0,0 mm 1,7 km/h (1 Bft) SO 128 0 min 0,000 mm 0,0 UV-I 0 W/m 17,9 C 3,2 km/h (1 Bft)
26.08.2016 20:46 20,8 C 20,8 C 83 % 1017,1 hPa 0,0 mm 0,9 km/h (0 Bft) SO 129 0 min 0,000 mm 0,0 UV-I 0 W/m 17,8 C 1,6 km/h (1 Bft)
26.08.2016 20:47 20,8 C 20,8 C 83 % 1017,1 hPa 0,0 mm 0,9 km/h (0 Bft) SO 129 0 min 0,000 mm 0,0 UV-I 0 W/m 17,8 C 1,6 km/h (1 Bft)
26.08.2016 20:48 20,8 C 20,8 C 83 % 1017,1 hPa 0,0 mm 1,0 km/h (0 Bft) SO 136 0 min 0,000 mm 0,0 UV-I 0 W/m 17,8 C 1,6 km/h (1 Bft)
26.08.2016 20:49 20,9 C 20,9 C 83 % 1017,1 hPa 0,0 mm 0,9 km/h (0 Bft) SO 136 0 min 0,000 mm 0,0 UV-I 0 W/m 17,9 C 1,6 km/h (1 Bft)
26.08.2016 20:50 20,9 C 20,9 C 83 % 1017,1 hPa 0,0 mm 0,9 km/h (0 Bft) SO 136 0 min 0,000 mm 0,0 UV-I 0 W/m 17,9 C 1,6 km/h (1 Bft)
26.08.2016 20:51 20,8 C 20,9 C 83 % 1017,1 hPa 0,0 mm 0,9 km/h (0 Bft) SO 141 0 min 0,000 mm 0,0 UV-I 0 W/m 17,8 C 1,6 km/h (1 Bft)
26.08.2016 20:52 20,8 C 20,8 C 83 % 1017,1 hPa 0,0 mm 0,9 km/h (0 Bft) SO 141 0 min 0,000 mm 0,0 UV-I 0 W/m 17,8 C 1,6 km/h (1 Bft)
26.08.2016 20:53 20,8 C 20,8 C 83 % 1017,2 hPa 0,0 mm 1,5 km/h (1 Bft) SO 142 0 min 0,000 mm 0,0 UV-I 0 W/m 17,8 C 3,2 km/h (1 Bft)
26.08.2016 20:54 20,8 C 20,8 C 83 % 1017,1 hPa 0,0 mm 1,9 km/h (1 Bft) SO 142 0 min 0,000 mm 0,0 UV-I 0 W/m 17,8 C 3,2 km/h (1 Bft)
26.08.2016 20:55 20,7 C 20,8 C 83 % 1017,1 hPa 0,0 mm 2,3 km/h (1 Bft) S-SO 150 0 min 0,000 mm 0,0 UV-I 0 W/m 17,7 C 3,2 km/h (1 Bft)
26.08.2016 20:56 20,6 C 20,7 C 83 % 1017,1 hPa 0,0 mm 1,9 km/h (1 Bft) S-SO 150 0 min 0,000 mm 0,0 UV-I 0 W/m 17,6 C 3,2 km/h (1 Bft)
26.08.2016 20:57 20,6 C 20,6 C 83 % 1017,1 hPa 0,0 mm 2,1 km/h (1 Bft) S-SO 150 0 min 0,000 mm 0,0 UV-I 0 W/m 17,6 C 3,2 km/h (1 Bft)
26.08.2016 20:58 20,5 C 20,6 C 83 % 1017,1 hPa 0,0 mm 1,9 km/h (1 Bft) S-SO 150 0 min 0,000 mm 0,0 UV-I 0 W/m 17,5 C 3,2 km/h (1 Bft)
26.08.2016 20:59 20,4 C 20,5 C 84 % 1017,1 hPa 0,0 mm 1,9 km/h (1 Bft) S-SO 150 0 min 0,000 mm 0,0 UV-I 0 W/m 17,6 C 3,2 km/h (1 Bft)
26.08.2016 21:00 20,4 C 20,4 C 84 % 1017,1 hPa 0,0 mm 2,3 km/h (1 Bft) S-SO 150 0 min 0,000 mm 0,0 UV-I 0 W/m 17,6 C 3,2 km/h (1 Bft)
26.08.2016 21:01 20,4 C 20,4 C 84 % 1017,1 hPa 0,0 mm 2,3 km/h (1 Bft) S-SO 150 0 min 0,000 mm 0,0 UV-I 0 W/m 17,6 C 3,2 km/h (1 Bft)
26.08.2016 21:02 20,3 C 20,4 C 84 % 1017,1 hPa 0,0 mm 2,2 km/h (1 Bft) S-SO 150 0 min 0,000 mm 0,0 UV-I 0 W/m 17,5 C 3,2 km/h (1 Bft)
26.08.2016 21:03 20,3 C 20,3 C 84 % 1017,1 hPa 0,0 mm 2,1 km/h (1 Bft) S-SO 150 0 min 0,000 mm 0,0 UV-I 0 W/m 17,5 C 3,2 km/h (1 Bft)
26.08.2016 21:04 20,3 C 20,3 C 84 % 1017,1 hPa 0,0 mm 2,3 km/h (1 Bft) S-SO 150 0 min 0,000 mm 0,0 UV-I 0 W/m 17,5 C 3,2 km/h (1 Bft)
26.08.2016 21:05 20,2 C 20,3 C 84 % 1017,1 hPa 0,0 mm 2,5 km/h (1 Bft) S-SO 150 0 min 0,000 mm 0,0 UV-I 0 W/m 17,4 C 4,8 km/h (1 Bft)
26.08.2016 21:06 20,2 C 20,3 C 84 % 1017,1 hPa 0,0 mm 2,8 km/h (1 Bft) S-SO 150 0 min 0,000 mm 0,0 UV-I 0 W/m 17,4 C 4,8 km/h (1 Bft)
26.08.2016 21:07 20,2 C 20,2 C 84 % 1017,1 hPa 0,0 mm 2,7 km/h (1 Bft) S-SO 150 0 min 0,000 mm 0,0 UV-I 0 W/m 17,4 C 3,2 km/h (1 Bft)
26.08.2016 21:08 20,2 C 20,2 C 84 % 1017,1 hPa 0,0 mm 1,9 km/h (1 Bft) S-SO 150 0 min 0,000 mm 0,0 UV-I 0 W/m 17,4 C 3,2 km/h (1 Bft)
26.08.2016 21:09 20,1 C 20,2 C 84 % 1017,1 hPa 0,0 mm 1,8 km/h (1 Bft) S-SO 150 0 min 0,000 mm 0,0 UV-I 0 W/m 17,3 C 3,2 km/h (1 Bft)
26.08.2016 21:10 20,0 C 20,1 C 84 % 1017,1 hPa 0,0 mm 2,7 km/h (1 Bft) S-SO 150 0 min 0,000 mm 0,0 UV-I 0 W/m 17,2 C 3,2 km/h (1 Bft)
26.08.2016 21:11 19,9 C 20,0 C 85 % 1017,1 hPa 0,0 mm 2,3 km/h (1 Bft) S-SO 150 0 min 0,000 mm 0,0 UV-I 0 W/m 17,3 C 3,2 km/h (1 Bft)
26.08.2016 21:12 19,8 C 19,9 C 85 % 1017,1 hPa 0,0 mm 3,2 km/h (1 Bft) S-SO 150 0 min 0,000 mm 0,0 UV-I 0 W/m 17,2 C 3,2 km/h (1 Bft)
26.08.2016 21:13 19,7 C 19,8 C 85 % 1017,1 hPa 0,0 mm 2,8 km/h (1 Bft) S-SO 150 0 min 0,000 mm 0,0 UV-I 0 W/m 17,1 C 3,2 km/h (1 Bft)
26.08.2016 21:14 19,6 C 19,7 C 85 % 1017,2 hPa 0,0 mm 2,3 km/h (1 Bft) S-SO 150 0 min 0,000 mm 0,0 UV-I 0 W/m 17,0 C 3,2 km/h (1 Bft)
26.08.2016 21:15 19,4 C 19,6 C 86 % 1017,2 hPa 0,0 mm 3,2 km/h (1 Bft) S-SO 150 0 min 0,000 mm 0,0 UV-I 0 W/m 17,0 C 3,2 km/h (1 Bft)
26.08.2016 21:16 19,4 C 19,4 C 86 % 1017,2 hPa 0,0 mm 3,5 km/h (1 Bft) S-SO 150 0 min 0,000 mm 0,0 UV-I 0 W/m 17,0 C 4,8 km/h (1 Bft)
26.08.2016 21:17 19,4 C 19,4 C 86 % 1017,1 hPa 0,0 mm 2,3 km/h (1 Bft) S-SO 150 0 min 0,000 mm 0,0 UV-I 0 W/m 17,0 C 3,2 km/h (1 Bft)
26.08.2016 21:18 19,3 C 19,4 C 86 % 1017,2 hPa 0,0 mm 2,4 km/h (1 Bft) S-SO 150 0 min 0,000 mm 0,0 UV-I 0 W/m 16,9 C 3,2 km/h (1 Bft)
26.08.2016 21:19 19,3 C 19,3 C 86 % 1017,2 hPa 0,0 mm 2,6 km/h (1 Bft) S-SO 150 0 min 0,000 mm 0,0 UV-I 0 W/m 16,9 C 3,2 km/h (1 Bft)
26.08.2016 21:20 19,2 C 19,3 C 86 % 1017,1 hPa 0,0 mm 1,8 km/h (1 Bft) S-SO 150 0 min 0,000 mm 0,0 UV-I 0 W/m 16,8 C 3,2 km/h (1 Bft)
26.08.2016 21:21 19,1 C 19,2 C 87 % 1017,2 hPa 0,0 mm 1,5 km/h (1 Bft) S-SO 150 0 min 0,000 mm 0,0 UV-I 0 W/m 16,9 C 4,8 km/h (1 Bft)
26.08.2016 21:22 19,1 C 19,1 C 87 % 1017,2 hPa 0,0 mm 1,3 km/h (1 Bft) S-SO 150 0 min 0,000 mm 0,0 UV-I 0 W/m 16,9 C 3,2 km/h (1 Bft)
26.08.2016 21:23 19,1 C 19,1 C 87 % 1017,2 hPa 0,0 mm 0,9 km/h (0 Bft) S-SO 150 0 min 0,000 mm 0,0 UV-I 0 W/m 16,9 C 1,6 km/h (1 Bft)
26.08.2016 21:24 19,1 C 19,1 C 87 % 1017,2 hPa 0,0 mm 0,7 km/h (0 Bft) S-SO 150 0 min 0,000 mm 0,0 UV-I 0 W/m 16,9 C 3,2 km/h (1 Bft)
26.08.2016 21:25 19,0 C 19,1 C 87 % 1017,2 hPa 0,0 mm 1,5 km/h (1 Bft) S-SO 150 0 min 0,000 mm 0,0 UV-I 0 W/m 16,8 C 3,2 km/h (1 Bft)
26.08.2016 21:26 19,0 C 19,1 C 87 % 1017,2 hPa 0,0 mm 1,2 km/h (1 Bft) S-SO 150 0 min 0,000 mm 0,0 UV-I 0 W/m 16,8 C 3,2 km/h (1 Bft)
26.08.2016 21:27 19,0 C 19,1 C 87 % 1017,2 hPa 0,0 mm 1,3 km/h (1 Bft) S-SO 150 0 min 0,000 mm 0,0 UV-I 0 W/m 16,8 C 1,6 km/h (1 Bft)
26.08.2016 21:28 19,0 C 19,1 C 87 % 1017,2 hPa 0,0 mm 0,8 km/h (0 Bft) S-SO 150 0 min 0,000 mm 0,0 UV-I 0 W/m 16,8 C 1,6 km/h (1 Bft)
26.08.2016 21:29 19,1 C 19,1 C 87 % 1017,2 hPa 0,0 mm 0,4 km/h (0 Bft) S-SO 150 0 min 0,000 mm 0,0 UV-I 0 W/m 16,9 C 1,6 km/h (1 Bft)
26.08.2016 21:30 19,1 C 19,1 C 87 % 1017,2 hPa 0,0 mm 0,9 km/h (0 Bft) S-SO 150 0 min 0,000 mm 0,0 UV-I 0 W/m 16,9 C 1,6 km/h (1 Bft)
26.08.2016 21:31 19,2 C 19,2 C 87 % 1017,2 hPa 0,0 mm 1,0 km/h (0 Bft) S-SO 150 0 min 0,000 mm 0,0 UV-I 0 W/m 17,0 C 1,6 km/h (1 Bft)
26.08.2016 21:32 19,2 C 19,2 C 86 % 1017,2 hPa 0,0 mm 0,0 km/h (0 Bft) S-SO 150 0 min 0,000 mm 0,0 UV-I 0 W/m 16,8 C 0,0 km/h (0 Bft)
26.08.2016 21:33 19,2 C 19,2 C 87 % 1017,2 hPa 0,0 mm 0,1 km/h (0 Bft) S-SO 150 0 min 0,000 mm 0,0 UV-I 0 W/m 17,0 C 1,6 km/h (1 Bft)
26.08.2016 21:34 19,2 C 19,2 C 87 % 1017,2 hPa 0,0 mm 0,0 km/h (0 Bft) S-SO 150 0 min 0,000 mm 0,0 UV-I 0 W/m 17,0 C 0,0 km/h (0 Bft)
26.08.2016 21:35 19,2 C 19,2 C 86 % 1017,2 hPa 0,0 mm 0,3 km/h (0 Bft) S-SO 150 0 min 0,000 mm 0,0 UV-I 0 W/m 16,8 C 1,6 km/h (1 Bft)
26.08.2016 21:36 19,2 C 19,2 C 87 % 1017,2 hPa 0,0 mm 0,0 km/h (0 Bft) S-SO 150 0 min 0,000 mm 0,0 UV-I 0 W/m 17,0 C 0,0 km/h (0 Bft)
26.08.2016 21:37 19,2 C 19,2 C 87 % 1017,2 hPa 0,0 mm 0,0 km/h (0 Bft) S-SO 150 0 min 0,000 mm 0,0 UV-I 0 W/m 17,0 C 0,0 km/h (0 Bft)
26.08.2016 21:38 19,2 C 19,2 C 87 % 1017,2 hPa 0,0 mm 0,2 km/h (0 Bft) S-SO 150 0 min 0,000 mm 0,0 UV-I 0 W/m 17,0 C 1,6 km/h (1 Bft)
26.08.2016 21:39 19,2 C 19,2 C 87 % 1017,2 hPa 0,0 mm 0,4 km/h (0 Bft) S-SO 150 0 min 0,000 mm 0,0 UV-I 0 W/m 17,0 C 1,6 km/h (1 Bft)
26.08.2016 21:40 19,3 C 19,3 C 86 % 1017,2 hPa 0,0 mm 1,1 km/h (1 Bft) NO 51 0 min 0,000 mm 0,0 UV-I 0 W/m 16,9 C 1,6 km/h (1 Bft)
26.08.2016 21:41 19,3 C 19,3 C 86 % 1017,2 hPa 0,0 mm 1,1 km/h (1 Bft) NO 51 0 min 0,000 mm 0,0 UV-I 0 W/m 16,9 C 1,6 km/h (1 Bft)
26.08.2016 21:42 19,3 C 19,3 C 86 % 1017,2 hPa 0,0 mm 0,6 km/h (0 Bft) NO 51 0 min 0,000 mm 0,0 UV-I 0 W/m 16,9 C 1,6 km/h (1 Bft)
26.08.2016 21:43 19,3 C 19,3 C 86 % 1017,2 hPa 0,0 mm 0,7 km/h (0 Bft) NO 51 0 min 0,000 mm 0,0 UV-I 0 W/m 16,9 C 1,6 km/h (1 Bft)
26.08.2016 21:44 19,3 C 19,3 C 86 % 1017,2 hPa 0,0 mm 0,0 km/h (0 Bft) NO 51 0 min 0,000 mm 0,0 UV-I 0 W/m 16,9 C 0,0 km/h (0 Bft)
26.08.2016 21:45 19,3 C 19,3 C 86 % 1017,2 hPa 0,0 mm 0,0 km/h (0 Bft) NO 51 0 min 0,000 mm 0,0 UV-I 0 W/m 16,9 C 0,0 km/h (0 Bft)
26.08.2016 21:46 19,3 C 19,3 C 86 % 1017,2 hPa 0,0 mm 0,0 km/h (0 Bft) NO 51 0 min 0,000 mm 0,0 UV-I 0 W/m 16,9 C 0,0 km/h (0 Bft)
26.08.2016 21:47 19,3 C 19,3 C 86 % 1017,2 hPa 0,0 mm 0,0 km/h (0 Bft) NO 51 0 min 0,000 mm 0,0 UV-I 0 W/m 16,9 C 0,0 km/h (0 Bft)
26.08.2016 21:48 19,3 C 19,3 C 86 % 1017,2 hPa 0,0 mm 0,0 km/h (0 Bft) NO 51 0 min 0,000 mm 0,0 UV-I 0 W/m 16,9 C 0,0 km/h (0 Bft)
26.08.2016 21:49 19,3 C 19,3 C 86 % 1017,2 hPa 0,0 mm 0,0 km/h (0 Bft) NO 51 0 min 0,000 mm 0,0 UV-I 0 W/m 16,9 C 0,0 km/h (0 Bft)
26.08.2016 21:50 19,3 C 19,3 C 86 % 1017,2 hPa 0,0 mm 0,0 km/h (0 Bft) NO 51 0 min 0,000 mm 0,0 UV-I 0 W/m 16,9 C 0,0 km/h (0 Bft)
26.08.2016 21:51 19,3 C 19,3 C 86 % 1017,3 hPa 0,0 mm 0,0 km/h (0 Bft) NO 51 0 min 0,000 mm 0,0 UV-I 0 W/m 16,9 C 0,0 km/h (0 Bft)
26.08.2016 21:52 19,3 C 19,3 C 87 % 1017,2 hPa 0,0 mm 0,0 km/h (0 Bft) NO 51 0 min 0,000 mm 0,0 UV-I 0 W/m 17,1 C 0,0 km/h (0 Bft)
26.08.2016 21:53 19,2 C 19,3 C 87 % 1017,2 hPa 0,0 mm 0,0 km/h (0 Bft) NO 51 0 min 0,000 mm 0,0 UV-I 0 W/m 17,0 C 0,0 km/h (0 Bft)
26.08.2016 21:54 19,2 C 19,2 C 87 % 1017,3 hPa 0,0 mm 0,0 km/h (0 Bft) NO 51 0 min 0,000 mm 0,0 UV-I 0 W/m 17,0 C 0,0 km/h (0 Bft)
26.08.2016 21:55 19,2 C 19,2 C 87 % 1017,2 hPa 0,0 mm 0,1 km/h (0 Bft) NO 51 0 min 0,000 mm 0,0 UV-I 0 W/m 17,0 C 1,6 km/h (1 Bft)
26.08.2016 21:56 19,2 C 19,2 C 87 % 1017,3 hPa 0,0 mm 0,0 km/h (0 Bft) NO 51 0 min 0,000 mm 0,0 UV-I 0 W/m 17,0 C 0,0 km/h (0 Bft)
26.08.2016 21:57 19,2 C 19,2 C 87 % 1017,3 hPa 0,0 mm 0,0 km/h (0 Bft) NO 51 0 min 0,000 mm 0,0 UV-I 0 W/m 17,0 C 0,0 km/h (0 Bft)
26.08.2016 21:58 19,1 C 19,2 C 87 % 1017,3 hPa 0,0 mm 0,0 km/h (0 Bft) NO 51 0 min 0,000 mm 0,0 UV-I 0 W/m 16,9 C 0,0 km/h (0 Bft)
26.08.2016 21:59 19,0 C 19,1 C 87 % 1017,3 hPa 0,0 mm 0,0 km/h (0 Bft) NO 51 0 min 0,000 mm 0,0 UV-I 0 W/m 16,8 C 0,0 km/h (0 Bft)
26.08.2016 22:00 19,0 C 19,1 C 88 % 1017,3 hPa 0,0 mm 0,0 km/h (0 Bft) NO 51 0 min 0,000 mm 0,0 UV-I 0 W/m 17,0 C 0,0 km/h (0 Bft)
26.08.2016 22:01 18,9 C 19,0 C 88 % 1017,3 hPa 0,0 mm 0,0 km/h (0 Bft) NO 51 0 min 0,025 mm 0,0 UV-I 0 W/m 16,9 C 0,0 km/h (0 Bft)
26.08.2016 22:02 18,9 C 19,0 C 88 % 1017,3 hPa 0,0 mm 0,0 km/h (0 Bft) NO 51 0 min 0,001 mm 0,0 UV-I 0 W/m 16,9 C 0,0 km/h (0 Bft)
26.08.2016 22:03 18,8 C 18,9 C 88 % 1017,3 hPa 0,0 mm 0,0 km/h (0 Bft) NO 51 0 min 0,000 mm 0,0 UV-I 0 W/m 16,8 C 0,0 km/h (0 Bft)
26.08.2016 22:04 18,8 C 18,8 C 88 % 1017,3 hPa 0,0 mm 0,0 km/h (0 Bft) NO 51 0 min 0,000 mm 0,0 UV-I 0 W/m 16,8 C 0,0 km/h (0 Bft)
26.08.2016 22:05 18,8 C 18,8 C 88 % 1017,3 hPa 0,0 mm 0,0 km/h (0 Bft) NO 51 0 min 0,000 mm 0,0 UV-I 0 W/m 16,8 C 0,0 km/h (0 Bft)
26.08.2016 22:06 18,8 C 18,8 C 88 % 1017,3 hPa 0,0 mm 0,0 km/h (0 Bft) NO 51 0 min 0,000 mm 0,0 UV-I 0 W/m 16,8 C 0,0 km/h (0 Bft)
26.08.2016 22:07 18,8 C 18,8 C 88 % 1017,3 hPa 0,0 mm 0,0 km/h (0 Bft) NO 51 0 min 0,000 mm 0,0 UV-I 0 W/m 16,8 C 0,0 km/h (0 Bft)
26.08.2016 22:08 18,8 C 18,8 C 88 % 1017,3 hPa 0,0 mm 0,0 km/h (0 Bft) NO 51 0 min 0,000 mm 0,0 UV-I 0 W/m 16,8 C 0,0 km/h (0 Bft)
26.08.2016 22:09 18,8 C 18,8 C 88 % 1017,3 hPa 0,0 mm 0,0 km/h (0 Bft) NO 51 0 min 0,000 mm 0,0 UV-I 0 W/m 16,8 C 0,0 km/h (0 Bft)
26.08.2016 22:10 18,8 C 18,8 C 88 % 1017,3 hPa 0,0 mm 0,0 km/h (0 Bft) NO 51 0 min 0,000 mm 0,0 UV-I 0 W/m 16,8 C 0,0 km/h (0 Bft)
26.08.2016 22:11 18,8 C 18,8 C 88 % 1017,3 hPa 0,0 mm 0,0 km/h (0 Bft) NO 51 0 min 0,000 mm 0,0 UV-I 0 W/m 16,8 C 0,0 km/h (0 Bft)
26.08.2016 22:12 18,8 C 18,8 C 88 % 1017,3 hPa 0,0 mm 0,0 km/h (0 Bft) NO 51 0 min 0,000 mm 0,0 UV-I 0 W/m 16,8 C 0,0 km/h (0 Bft)
26.08.2016 22:13 18,7 C 18,8 C 88 % 1017,3 hPa 0,0 mm 0,0 km/h (0 Bft) NO 51 0 min 0,000 mm 0,0 UV-I 0 W/m 16,7 C 0,0 km/h (0 Bft)
26.08.2016 22:14 18,7 C 18,7 C 88 % 1017,4 hPa 0,0 mm 0,0 km/h (0 Bft) NO 51 0 min 0,000 mm 0,0 UV-I 0 W/m 16,7 C 0,0 km/h (0 Bft)
26.08.2016 22:15 18,7 C 18,7 C 89 % 1017,4 hPa 0,0 mm 0,1 km/h (0 Bft) NO 51 0 min 0,000 mm 0,0 UV-I 0 W/m 16,8 C 1,6 km/h (1 Bft)
26.08.2016 22:16 18,7 C 18,7 C 89 % 1017,3 hPa 0,0 mm 0,0 km/h (0 Bft) NO 51 0 min 0,000 mm 0,0 UV-I 0 W/m 16,8 C 0,0 km/h (0 Bft)
26.08.2016 22:17 18,7 C 18,7 C 89 % 1017,4 hPa 0,0 mm 0,0 km/h (0 Bft) NO 51 0 min 0,000 mm 0,0 UV-I 0 W/m 16,8 C 0,0 km/h (0 Bft)
26.08.2016 22:18 18,7 C 18,7 C 89 % 1017,4 hPa 0,0 mm 0,0 km/h (0 Bft) NO 51 0 min 0,000 mm 0,0 UV-I 0 W/m 16,8 C 0,0 km/h (0 Bft)
26.08.2016 22:19 18,6 C 18,7 C 88 % 1017,4 hPa 0,0 mm 0,1 km/h (0 Bft) NO 51 0 min 0,000 mm 0,0 UV-I 0 W/m 16,6 C 1,6 km/h (1 Bft)
26.08.2016 22:20 18,6 C 18,6 C 89 % 1017,3 hPa 0,0 mm 0,5 km/h (0 Bft) NO 51 0 min 0,000 mm 0,0 UV-I 0 W/m 16,7 C 1,6 km/h (1 Bft)
26.08.2016 22:21 18,5 C 18,6 C 89 % 1017,3 hPa 0,0 mm 0,0 km/h (0 Bft) NO 51 0 min 0,000 mm 0,0 UV-I 0 W/m 16,7 C 0,0 km/h (0 Bft)
26.08.2016 22:22 18,5 C 18,5 C 89 % 1017,4 hPa 0,0 mm 0,0 km/h (0 Bft) NO 51 0 min 0,000 mm 0,0 UV-I 0 W/m 16,7 C 0,0 km/h (0 Bft)
26.08.2016 22:23 18,5 C 18,5 C 89 % 1017,3 hPa 0,0 mm 0,0 km/h (0 Bft) NO 51 0 min 0,000 mm 0,0 UV-I 0 W/m 16,7 C 0,0 km/h (0 Bft)
26.08.2016 22:24 18,5 C 18,5 C 89 % 1017,4 hPa 0,0 mm 0,0 km/h (0 Bft) NO 51 0 min 0,000 mm 0,0 UV-I 0 W/m 16,7 C 0,0 km/h (0 Bft)
26.08.2016 22:25 18,4 C 18,5 C 89 % 1017,3 hPa 0,0 mm 0,0 km/h (0 Bft) NO 51 0 min 0,000 mm 0,0 UV-I 0 W/m 16,6 C 0,0 km/h (0 Bft)
26.08.2016 22:26 18,5 C 18,5 C 89 % 1017,3 hPa 0,0 mm 0,0 km/h (0 Bft) NO 51 0 min 0,000 mm 0,0 UV-I 0 W/m 16,7 C 0,0 km/h (0 Bft)
26.08.2016 22:27 18,6 C 18,6 C 89 % 1017,3 hPa 0,0 mm 0,0 km/h (0 Bft) NO 51 0 min 0,000 mm 0,0 UV-I 0 W/m 16,7 C 0,0 km/h (0 Bft)
26.08.2016 22:28 18,7 C 18,7 C 89 % 1017,3 hPa 0,0 mm 0,0 km/h (0 Bft) NO 51 0 min 0,000 mm 0,0 UV-I 0 W/m 16,8 C 0,0 km/h (0 Bft)
26.08.2016 22:29 18,8 C 18,8 C 89 % 1017,4 hPa 0,0 mm 0,0 km/h (0 Bft) NO 51 0 min 0,000 mm 0,0 UV-I 0 W/m 16,9 C 0,0 km/h (0 Bft)
26.08.2016 22:30 18,8 C 18,8 C 88 % 1017,3 hPa 0,0 mm 0,0 km/h (0 Bft) NO 51 0 min 0,000 mm 0,0 UV-I 0 W/m 16,8 C 0,0 km/h (0 Bft)
26.08.2016 22:31 18,8 C 18,8 C 89 % 1017,4 hPa 0,0 mm 0,0 km/h (0 Bft) NO 51 0 min 0,000 mm 0,0 UV-I 0 W/m 16,9 C 0,0 km/h (0 Bft)
26.08.2016 22:32 18,8 C 18,8 C 88 % 1017,3 hPa 0,0 mm 0,0 km/h (0 Bft) NO 51 0 min 0,000 mm 0,0 UV-I 0 W/m 16,8 C 0,0 km/h (0 Bft)
26.08.2016 22:33 18,9 C 18,9 C 88 % 1017,3 hPa 0,0 mm 0,0 km/h (0 Bft) NO 51 0 min 0,000 mm 0,0 UV-I 0 W/m 16,9 C 0,0 km/h (0 Bft)
26.08.2016 22:34 18,8 C 18,9 C 88 % 1017,4 hPa 0,0 mm 0,0 km/h (0 Bft) NO 51 0 min 0,000 mm 0,0 UV-I 0 W/m 16,8 C 0,0 km/h (0 Bft)
26.08.2016 22:35 18,8 C 18,8 C 88 % 1017,3 hPa 0,0 mm 0,0 km/h (0 Bft) NO 51 0 min 0,000 mm 0,0 UV-I 0 W/m 16,8 C 0,0 km/h (0 Bft)
26.08.2016 22:36 18,7 C 18,8 C 88 % 1017,4 hPa 0,0 mm 0,0 km/h (0 Bft) NO 51 0 min 0,000 mm 0,0 UV-I 0 W/m 16,7 C 0,0 km/h (0 Bft)
26.08.2016 22:37 18,6 C 18,7 C 89 % 1017,4 hPa 0,0 mm 0,0 km/h (0 Bft) NO 51 0 min 0,000 mm 0,0 UV-I 0 W/m 16,7 C 0,0 km/h (0 Bft)
26.08.2016 22:38 18,6 C 18,6 C 90 % 1017,4 hPa 0,0 mm 0,0 km/h (0 Bft) NO 51 0 min 0,000 mm 0,0 UV-I 0 W/m 16,9 C 0,0 km/h (0 Bft)
26.08.2016 22:39 18,6 C 18,6 C 90 % 1017,4 hPa 0,0 mm 0,0 km/h (0 Bft) NO 51 0 min 0,000 mm 0,0 UV-I 0 W/m 16,9 C 0,0 km/h (0 Bft)
26.08.2016 22:40 18,6 C 18,6 C 90 % 1017,4 hPa 0,0 mm 0,0 km/h (0 Bft) NO 51 0 min 0,000 mm 0,0 UV-I 0 W/m 16,9 C 0,0 km/h (0 Bft)
26.08.2016 22:41 18,7 C 18,7 C 90 % 1017,4 hPa 0,0 mm 0,0 km/h (0 Bft) NO 51 0 min 0,000 mm 0,0 UV-I 0 W/m 17,0 C 0,0 km/h (0 Bft)
26.08.2016 22:42 18,7 C 18,7 C 89 % 1017,4 hPa 0,0 mm 0,0 km/h (0 Bft) NO 51 0 min 0,000 mm 0,0 UV-I 0 W/m 16,8 C 0,0 km/h (0 Bft)
26.08.2016 22:43 18,6 C 18,7 C 89 % 1017,4 hPa 0,0 mm 0,0 km/h (0 Bft) NO 51 0 min 0,000 mm 0,0 UV-I 0 W/m 16,7 C 0,0 km/h (0 Bft)
26.08.2016 22:44 18,5 C 18,6 C 89 % 1017,4 hPa 0,0 mm 0,0 km/h (0 Bft) NO 51 0 min 0,000 mm 0,0 UV-I 0 W/m 16,7 C 0,0 km/h (0 Bft)
26.08.2016 22:45 18,4 C 18,5 C 89 % 1017,4 hPa 0,0 mm 0,0 km/h (0 Bft) NO 51 0 min 0,000 mm 0,0 UV-I 0 W/m 16,6 C 0,0 km/h (0 Bft)
26.08.2016 22:46 18,4 C 18,4 C 90 % 1017,4 hPa 0,0 mm 0,1 km/h (0 Bft) NO 51 0 min 0,000 mm 0,0 UV-I 0 W/m 16,7 C 1,6 km/h (1 Bft)
26.08.2016 22:47 18,3 C 18,4 C 89 % 1017,4 hPa 0,0 mm 1,1 km/h (1 Bft) NO 51 0 min 0,000 mm 0,0 UV-I 0 W/m 16,5 C 1,6 km/h (1 Bft)
26.08.2016 22:48 18,2 C 18,3 C 90 % 1017,5 hPa 0,0 mm 0,1 km/h (0 Bft) NO 51 0 min 0,000 mm 0,0 UV-I 0 W/m 16,5 C 1,6 km/h (1 Bft)
26.08.2016 22:49 18,2 C 18,3 C 90 % 1017,5 hPa 0,0 mm 0,0 km/h (0 Bft) NO 51 0 min 0,000 mm 0,0 UV-I 0 W/m 16,5 C 0,0 km/h (0 Bft)
26.08.2016 22:50 18,2 C 18,2 C 90 % 1017,5 hPa 0,0 mm 0,0 km/h (0 Bft) NO 51 0 min 0,000 mm 0,0 UV-I 0 W/m 16,5 C 0,0 km/h (0 Bft)
26.08.2016 22:51 18,2 C 18,2 C 91 % 1017,5 hPa 0,0 mm 1,6 km/h (1 Bft) NO 51 0 min 0,000 mm 0,0 UV-I 0 W/m 16,7 C 3,2 km/h (1 Bft)
26.08.2016 22:52 18,2 C 18,2 C 91 % 1017,5 hPa 0,0 mm 1,5 km/h (1 Bft) NO 51 0 min 0,000 mm 0,0 UV-I 0 W/m 16,7 C 3,2 km/h (1 Bft)
26.08.2016 22:53 18,2 C 18,3 C 91 % 1017,4 hPa 0,0 mm 0,5 km/h (0 Bft) NO 51 0 min 0,000 mm 0,0 UV-I 0 W/m 16,7 C 1,6 km/h (1 Bft)
26.08.2016 22:54 18,3 C 18,3 C 91 % 1017,5 hPa 0,0 mm 0,9 km/h (0 Bft) NO 51 0 min 0,000 mm 0,0 UV-I 0 W/m 16,8 C 1,6 km/h (1 Bft)
26.08.2016 22:55 18,3 C 18,3 C 91 % 1017,4 hPa 0,0 mm 1,3 km/h (1 Bft) NO 51 0 min 0,000 mm 0,0 UV-I 0 W/m 16,8 C 1,6 km/h (1 Bft)
26.08.2016 22:56 18,4 C 18,4 C 90 % 1017,4 hPa 0,0 mm 0,6 km/h (0 Bft) NO 51 0 min 0,000 mm 0,0 UV-I 0 W/m 16,7 C 1,6 km/h (1 Bft)
26.08.2016 22:57 18,4 C 18,4 C 90 % 1017,4 hPa 0,0 mm 1,1 km/h (1 Bft) NO 51 0 min 0,000 mm 0,0 UV-I 0 W/m 16,7 C 1,6 km/h (1 Bft)
26.08.2016 22:58 18,4 C 18,4 C 90 % 1017,4 hPa 0,0 mm 0,1 km/h (0 Bft) NO 51 0 min 0,000 mm 0,0 UV-I 0 W/m 16,7 C 1,6 km/h (1 Bft)
26.08.2016 22:59 18,4 C 18,4 C 90 % 1017,4 hPa 0,0 mm 0,0 km/h (0 Bft) NO 51 0 min 0,000 mm 0,0 UV-I 0 W/m 16,7 C 0,0 km/h (0 Bft)
26.08.2016 23:00 18,4 C 18,4 C 90 % 1017,4 hPa 0,0 mm 0,0 km/h (0 Bft) NO 51 0 min 0,000 mm 0,0 UV-I 0 W/m 16,7 C 0,0 km/h (0 Bft)
26.08.2016 23:01 18,4 C 18,4 C 90 % 1017,4 hPa 0,0 mm 0,0 km/h (0 Bft) NO 51 0 min 0,000 mm 0,0 UV-I 0 W/m 16,7 C 0,0 km/h (0 Bft)
26.08.2016 23:02 18,3 C 18,4 C 90 % 1017,5 hPa 0,0 mm 0,0 km/h (0 Bft) NO 51 0 min 0,000 mm 0,0 UV-I 0 W/m 16,6 C 0,0 km/h (0 Bft)
26.08.2016 23:03 18,3 C 18,4 C 90 % 1017,4 hPa 0,0 mm 0,0 km/h (0 Bft) NO 51 0 min 0,000 mm 0,0 UV-I 0 W/m 16,6 C 0,0 km/h (0 Bft)
26.08.2016 23:04 18,3 C 18,3 C 89 % 1017,4 hPa 0,0 mm 0,0 km/h (0 Bft) NO 51 0 min 0,000 mm 0,0 UV-I 0 W/m 16,5 C 0,0 km/h (0 Bft)
26.08.2016 23:05 18,2 C 18,3 C 90 % 1017,4 hPa 0,0 mm 0,0 km/h (0 Bft) NO 51 0 min 0,000 mm 0,0 UV-I 0 W/m 16,5 C 0,0 km/h (0 Bft)
26.08.2016 23:06 18,2 C 18,2 C 90 % 1017,4 hPa 0,0 mm 0,1 km/h (0 Bft) NO 51 0 min 0,000 mm 0,0 UV-I 0 W/m 16,5 C 1,6 km/h (1 Bft)
26.08.2016 23:07 18,1 C 18,2 C 90 % 1017,5 hPa 0,0 mm 0,0 km/h (0 Bft) NO 51 0 min 0,000 mm 0,0 UV-I 0 W/m 16,4 C 0,0 km/h (0 Bft)
26.08.2016 23:08 18,0 C 18,1 C 90 % 1017,5 hPa 0,0 mm 0,0 km/h (0 Bft) NO 51 0 min 0,000 mm 0,0 UV-I 0 W/m 16,3 C 0,0 km/h (0 Bft)
26.08.2016 23:09 17,9 C 18,0 C 90 % 1017,4 hPa 0,0 mm 0,0 km/h (0 Bft) NO 51 0 min 0,000 mm 0,0 UV-I 0 W/m 16,2 C 0,0 km/h (0 Bft)
26.08.2016 23:10 17,9 C 17,9 C 90 % 1017,5 hPa 0,0 mm 0,0 km/h (0 Bft) NO 51 0 min 0,000 mm 0,0 UV-I 0 W/m 16,2 C 0,0 km/h (0 Bft)
26.08.2016 23:11 17,8 C 17,9 C 91 % 1017,4 hPa 0,0 mm 0,0 km/h (0 Bft) NO 51 0 min 0,000 mm 0,0 UV-I 0 W/m 16,3 C 0,0 km/h (0 Bft)
26.08.2016 23:12 17,8 C 17,8 C 91 % 1017,5 hPa 0,0 mm 0,0 km/h (0 Bft) NO 51 0 min 0,000 mm 0,0 UV-I 0 W/m 16,3 C 0,0 km/h (0 Bft)
26.08.2016 23:13 17,7 C 17,8 C 90 % 1017,5 hPa 0,0 mm 0,0 km/h (0 Bft) NO 51 0 min 0,000 mm 0,0 UV-I 0 W/m 16,0 C 0,0 km/h (0 Bft)
26.08.2016 23:14 17,7 C 17,7 C 90 % 1017,4 hPa 0,0 mm 0,0 km/h (0 Bft) NO 51 0 min 0,000 mm 0,0 UV-I 0 W/m 16,0 C 0,0 km/h (0 Bft)
26.08.2016 23:15 17,6 C 17,7 C 91 % 1017,4 hPa 0,0 mm 0,0 km/h (0 Bft) NO 51 0 min 0,000 mm 0,0 UV-I 0 W/m 16,1 C 0,0 km/h (0 Bft)
26.08.2016 23:16 17,6 C 17,6 C 92 % 1017,4 hPa 0,0 mm 0,0 km/h (0 Bft) NO 51 0 min 0,000 mm 0,0 UV-I 0 W/m 16,3 C 0,0 km/h (0 Bft)
26.08.2016 23:17 17,6 C 17,6 C 92 % 1017,4 hPa 0,0 mm 0,0 km/h (0 Bft) NO 51 0 min 0,000 mm 0,0 UV-I 0 W/m 16,3 C 0,0 km/h (0 Bft)
26.08.2016 23:18 17,6 C 17,6 C 92 % 1017,4 hPa 0,0 mm 0,0 km/h (0 Bft) NO 51 0 min 0,000 mm 0,0 UV-I 0 W/m 16,3 C 0,0 km/h (0 Bft)
26.08.2016 23:19 17,6 C 17,6 C 92 % 1017,4 hPa 0,0 mm 0,0 km/h (0 Bft) NO 51 0 min 0,000 mm 0,0 UV-I 0 W/m 16,3 C 0,0 km/h (0 Bft)
26.08.2016 23:20 17,5 C 17,6 C 92 % 1017,4 hPa 0,0 mm 0,0 km/h (0 Bft) NO 51 0 min 0,000 mm 0,0 UV-I 0 W/m 16,2 C 0,0 km/h (0 Bft)
26.08.2016 23:21 17,5 C 17,6 C 92 % 1017,4 hPa 0,0 mm 0,2 km/h (0 Bft) NO 51 0 min 0,000 mm 0,0 UV-I 0 W/m 16,2 C 1,6 km/h (1 Bft)
26.08.2016 23:22 17,4 C 17,5 C 91 % 1017,4 hPa 0,0 mm 0,1 km/h (0 Bft) NO 51 0 min 0,000 mm 0,0 UV-I 0 W/m 15,9 C 1,6 km/h (1 Bft)
26.08.2016 23:23 17,4 C 17,4 C 92 % 1017,4 hPa 0,0 mm 0,0 km/h (0 Bft) NO 51 0 min 0,000 mm 0,0 UV-I 0 W/m 16,1 C 0,0 km/h (0 Bft)
26.08.2016 23:24 17,3 C 17,4 C 92 % 1017,4 hPa 0,0 mm 0,9 km/h (0 Bft) NO 51 0 min 0,000 mm 0,0 UV-I 0 W/m 16,0 C 1,6 km/h (1 Bft)
26.08.2016 23:25 17,3 C 17,3 C 92 % 1017,5 hPa 0,0 mm 0,1 km/h (0 Bft) NO 51 0 min 0,000 mm 0,0 UV-I 0 W/m 16,0 C 1,6 km/h (1 Bft)
26.08.2016 23:26 17,3 C 17,3 C 92 % 1017,4 hPa 0,0 mm 0,1 km/h (0 Bft) NO 51 0 min 0,000 mm 0,0 UV-I 0 W/m 16,0 C 1,6 km/h (1 Bft)
26.08.2016 23:27 17,3 C 17,3 C 93 % 1017,4 hPa 0,0 mm 0,0 km/h (0 Bft) NO 51 0 min 0,000 mm 0,0 UV-I 0 W/m 16,2 C 0,0 km/h (0 Bft)
26.08.2016 23:28 17,3 C 17,3 C 93 % 1017,4 hPa 0,0 mm 0,1 km/h (0 Bft) NO 51 0 min 0,000 mm 0,0 UV-I 0 W/m 16,2 C 1,6 km/h (1 Bft)
26.08.2016 23:29 17,3 C 17,3 C 92 % 1017,4 hPa 0,0 mm 0,0 km/h (0 Bft) NO 51 0 min 0,000 mm 0,0 UV-I 0 W/m 16,0 C 0,0 km/h (0 Bft)
26.08.2016 23:30 17,3 C 17,3 C 92 % 1017,4 hPa 0,0 mm 0,0 km/h (0 Bft) NO 51 0 min 0,000 mm 0,0 UV-I 0 W/m 16,0 C 0,0 km/h (0 Bft)
26.08.2016 23:31 17,3 C 17,3 C 92 % 1017,4 hPa 0,0 mm 0,0 km/h (0 Bft) NO 51 0 min 0,000 mm 0,0 UV-I 0 W/m 16,0 C 0,0 km/h (0 Bft)
26.08.2016 23:32 17,4 C 17,4 C 92 % 1017,4 hPa 0,0 mm 0,1 km/h (0 Bft) NO 51 0 min 0,000 mm 0,0 UV-I 0 W/m 16,1 C 1,6 km/h (1 Bft)
26.08.2016 23:33 17,3 C 17,4 C 91 % 1017,4 hPa 0,0 mm 0,0 km/h (0 Bft) NO 51 0 min 0,000 mm 0,0 UV-I 0 W/m 15,8 C 0,0 km/h (0 Bft)
26.08.2016 23:34 17,3 C 17,4 C 91 % 1017,4 hPa 0,0 mm 0,0 km/h (0 Bft) NO 51 0 min 0,000 mm 0,0 UV-I 0 W/m 15,8 C 0,0 km/h (0 Bft)
26.08.2016 23:35 17,3 C 17,3 C 92 % 1017,4 hPa 0,0 mm 0,0 km/h (0 Bft) NO 51 0 min 0,000 mm 0,0 UV-I 0 W/m 16,0 C 0,0 km/h (0 Bft)
26.08.2016 23:36 17,3 C 17,3 C 92 % 1017,4 hPa 0,0 mm 0,0 km/h (0 Bft) NO 51 0 min 0,000 mm 0,0 UV-I 0 W/m 16,0 C 0,0 km/h (0 Bft)
26.08.2016 23:37 17,3 C 17,3 C 92 % 1017,4 hPa 0,0 mm 0,0 km/h (0 Bft) NO 51 0 min 0,000 mm 0,0 UV-I 0 W/m 16,0 C 0,0 km/h (0 Bft)
26.08.2016 23:38 17,3 C 17,3 C 92 % 1017,4 hPa 0,0 mm 0,0 km/h (0 Bft) NO 51 0 min 0,000 mm 0,0 UV-I 0 W/m 16,0 C 0,0 km/h (0 Bft)
26.08.2016 23:39 17,3 C 17,3 C 92 % 1017,4 hPa 0,0 mm 0,0 km/h (0 Bft) NO 51 0 min 0,000 mm 0,0 UV-I 0 W/m 16,0 C 0,0 km/h (0 Bft)
26.08.2016 23:40 17,3 C 17,3 C 92 % 1017,4 hPa 0,0 mm 0,0 km/h (0 Bft) NO 51 0 min 0,000 mm 0,0 UV-I 0 W/m 16,0 C 0,0 km/h (0 Bft)
26.08.2016 23:41 17,3 C 17,3 C 92 % 1017,4 hPa 0,0 mm 0,0 km/h (0 Bft) NO 51 0 min 0,000 mm 0,0 UV-I 0 W/m 16,0 C 0,0 km/h (0 Bft)
26.08.2016 23:42 17,3 C 17,3 C 92 % 1017,4 hPa 0,0 mm 0,0 km/h (0 Bft) NO 51 0 min 0,000 mm 0,0 UV-I 0 W/m 16,0 C 0,0 km/h (0 Bft)
26.08.2016 23:43 17,3 C 17,3 C 91 % 1017,4 hPa 0,0 mm 0,0 km/h (0 Bft) NO 51 0 min 0,000 mm 0,0 UV-I 0 W/m 15,8 C 0,0 km/h (0 Bft)
26.08.2016 23:44 17,3 C 17,3 C 92 % 1017,3 hPa 0,0 mm 0,0 km/h (0 Bft) NO 51 0 min 0,000 mm 0,0 UV-I 0 W/m 16,0 C 0,0 km/h (0 Bft)
26.08.2016 23:45 17,2 C 17,3 C 92 % 1017,3 hPa 0,0 mm 0,0 km/h (0 Bft) NO 51 0 min 0,000 mm 0,0 UV-I 0 W/m 15,9 C 0,0 km/h (0 Bft)
26.08.2016 23:46 17,2 C 17,2 C 92 % 1017,3 hPa 0,0 mm 0,0 km/h (0 Bft) NO 51 0 min 0,000 mm 0,0 UV-I 0 W/m 15,9 C 0,0 km/h (0 Bft)
26.08.2016 23:47 17,2 C 17,2 C 92 % 1017,3 hPa 0,0 mm 0,0 km/h (0 Bft) NO 51 0 min 0,000 mm 0,0 UV-I 0 W/m 15,9 C 0,0 km/h (0 Bft)
26.08.2016 23:48 17,2 C 17,2 C 92 % 1017,4 hPa 0,0 mm 0,0 km/h (0 Bft) NO 51 0 min 0,000 mm 0,0 UV-I 0 W/m 15,9 C 0,0 km/h (0 Bft)
26.08.2016 23:49 17,2 C 17,3 C 92 % 1017,3 hPa 0,0 mm 0,0 km/h (0 Bft) NO 51 0 min 0,000 mm 0,0 UV-I 0 W/m 15,9 C 0,0 km/h (0 Bft)
26.08.2016 23:50 17,2 C 17,2 C 92 % 1017,3 hPa 0,0 mm 0,0 km/h (0 Bft) NO 51 0 min 0,000 mm 0,0 UV-I 0 W/m 15,9 C 0,0 km/h (0 Bft)
26.08.2016 23:51 17,2 C 17,2 C 92 % 1017,3 hPa 0,0 mm 0,6 km/h (0 Bft) NO 51 0 min 0,000 mm 0,0 UV-I 0 W/m 15,9 C 1,6 km/h (1 Bft)
26.08.2016 23:52 17,2 C 17,2 C 92 % 1017,3 hPa 0,0 mm 0,1 km/h (0 Bft) NO 51 0 min 0,000 mm 0,0 UV-I 0 W/m 15,9 C 1,6 km/h (1 Bft)
26.08.2016 23:53 17,2 C 17,2 C 92 % 1017,3 hPa 0,0 mm 0,0 km/h (0 Bft) NO 51 0 min 0,000 mm 0,0 UV-I 0 W/m 15,9 C 0,0 km/h (0 Bft)
26.08.2016 23:54 17,2 C 17,2 C 93 % 1017,3 hPa 0,0 mm 0,0 km/h (0 Bft) NO 51 0 min 0,000 mm 0,0 UV-I 0 W/m 16,1 C 0,0 km/h (0 Bft)
26.08.2016 23:55 17,1 C 17,2 C 93 % 1017,3 hPa 0,0 mm 0,0 km/h (0 Bft) NO 51 0 min 0,000 mm 0,0 UV-I 0 W/m 16,0 C 0,0 km/h (0 Bft)
26.08.2016 23:56 17,1 C 17,2 C 93 % 1017,3 hPa 0,0 mm 0,5 km/h (0 Bft) NO 51 0 min 0,000 mm 0,0 UV-I 0 W/m 16,0 C 1,6 km/h (1 Bft)
26.08.2016 23:57 17,1 C 17,1 C 93 % 1017,3 hPa 0,0 mm 0,3 km/h (0 Bft) NO 51 0 min 0,000 mm 0,0 UV-I 0 W/m 16,0 C 1,6 km/h (1 Bft)
26.08.2016 23:58 17,1 C 17,1 C 93 % 1017,3 hPa 0,0 mm 0,1 km/h (0 Bft) NO 51 0 min 0,000 mm 0,0 UV-I 0 W/m 16,0 C 1,6 km/h (1 Bft)
26.08.2016 23:59 17,1 C 17,1 C 92 % 1017,3 hPa 0,0 mm 0,3 km/h (0 Bft) NO 51 0 min 0,000 mm 0,0 UV-I 0 W/m 15,8 C 1,6 km/h (1 Bft)
_ Min-Zeit 03:39 03:39 16:39 02:53 - 23:55 - - - - - - 03:37 23:55
Minimum _ 13,7 C 13,7 C 47 % 1016,2 hPa - 0,0 km/h (0 Bft) - - - - - - 13,1 C 0,0 km/h (0 Bft)
_ Max-Zeit 16:05 16:06 07:47 23:25 23:59 14:27 - - 12:09 14:01 13:39 13:07 12:30 13:30
Maximum _ 28,6 C 28,6 C 97 % 1017,5 hPa 0,0 mm 13,3 km/h
W (3 Bft)
- - 2 min 0,558 mm 6,3 UV-I 788 W/m 21,0 C 19,3 km/h
W (3 Bft)
Durchschnitt _ 21,0 C 21,0 C 78 % 1016,8 hPa #0,0 mm 2,2 km/h (1 Bft) W-NW - #8:36 h #3,785 mm 4,2 UV-I 222 W/m 16,5 C 3,6 km/h (1 Bft)